<?xml version='1.0' encoding='UTF-8'?><gpx version="1.1" creator="JPX - https://github.com/jenetics/jpx" xmlns="http://www.topografix.com/GPX/1/1"><trk><trkseg><trkpt lat="45.94591391121614" lon="12.796363475471997"><ele>30.0</ele><time>2026-05-03T13:12:45.999Z</time></trkpt><trkpt lat="45.9459793462168" lon="12.796351967730399"><ele>30.0</ele><time>2026-05-03T13:13:09.998Z</time></trkpt><trkpt lat="45.94592141616943" lon="12.796272419222865"><ele>30.0</ele><time>2026-05-03T13:13:13.999Z</time></trkpt><trkpt lat="45.94580801077276" lon="12.796269771172264"><ele>30.0</ele><time>2026-05-03T13:13:17.999Z</time></trkpt><trkpt lat="45.94573461318901" lon="12.79627363361473"><ele>30.0</ele><time>2026-05-03T13:13:19.999Z</time></trkpt><trkpt lat="45.945656649013266" lon="12.796250121547867"><ele>30.0</ele><time>2026-05-03T13:13:21.999Z</time></trkpt><trkpt lat="45.94559212484119" lon="12.79625647522572"><ele>30.2</ele><time>2026-05-03T13:13:26.999Z</time></trkpt><trkpt lat="45.94551103425323" lon="12.79620282621242"><ele>30.4</ele><time>2026-05-03T13:13:31.999Z</time></trkpt><trkpt lat="45.94540806805903" lon="12.79611955286581"><ele>30.6</ele><time>2026-05-03T13:13:33.999Z</time></trkpt><trkpt lat="45.94530021589778" lon="12.796074813028758"><ele>30.8</ele><time>2026-05-03T13:13:35.999Z</time></trkpt><trkpt lat="45.94521921426615" lon="12.796031296938223"><ele>31.0</ele><time>2026-05-03T13:13:38Z</time></trkpt><trkpt lat="45.94514566423216" lon="12.795999578719744"><ele>31.0</ele><time>2026-05-03T13:13:40Z</time></trkpt><trkpt lat="45.945056253932755" lon="12.795944243026675"><ele>31.0</ele><time>2026-05-03T13:13:42Z</time></trkpt><trkpt lat="45.944986230870285" lon="12.795892641381037"><ele>31.0</ele><time>2026-05-03T13:13:43Z</time></trkpt><trkpt lat="45.94489597696957" lon="12.795863758033962"><ele>31.0</ele><time>2026-05-03T13:13:45Z</time></trkpt><trkpt lat="45.944813816202675" lon="12.795820180769349"><ele>31.0</ele><time>2026-05-03T13:13:47Z</time></trkpt><trkpt lat="45.944736633551" lon="12.795739018833729"><ele>31.000000000000004</ele><time>2026-05-03T13:13:49Z</time></trkpt><trkpt lat="45.9446630729798" lon="12.79568718523076"><ele>31.0</ele><time>2026-05-03T13:13:51Z</time></trkpt><trkpt lat="45.94460309560158" lon="12.795587201277021"><ele>31.0</ele><time>2026-05-03T13:13:53Z</time></trkpt><trkpt lat="45.94454602616821" lon="12.795513698892124"><ele>31.0</ele><time>2026-05-03T13:13:55Z</time></trkpt><trkpt lat="45.94447442805524" lon="12.795432960091667"><ele>31.000000000000004</ele><time>2026-05-03T13:13:57Z</time></trkpt><trkpt lat="45.94441992902471" lon="12.795342025233877"><ele>31.0</ele><time>2026-05-03T13:13:59Z</time></trkpt><trkpt lat="45.94436046723105" lon="12.795281537777706"><ele>31.000000000000004</ele><time>2026-05-03T13:14:01Z</time></trkpt><trkpt lat="45.94429520319775" lon="12.795220546655488"><ele>31.0</ele><time>2026-05-03T13:14:03Z</time></trkpt><trkpt lat="45.94421619449115" lon="12.79514355377901"><ele>31.0</ele><time>2026-05-03T13:14:05Z</time></trkpt><trkpt lat="45.944141503004516" lon="12.795080591432088"><ele>31.0</ele><time>2026-05-03T13:14:07Z</time></trkpt><trkpt lat="45.944069865709686" lon="12.795003519014696"><ele>31.000000000000004</ele><time>2026-05-03T13:14:09Z</time></trkpt><trkpt lat="45.94400081004818" lon="12.794955540388958"><ele>31.0</ele><time>2026-05-03T13:14:12Z</time></trkpt><trkpt lat="45.943939606502724" lon="12.794887030301666"><ele>31.000000000000004</ele><time>2026-05-03T13:14:15Z</time></trkpt><trkpt lat="45.94388762278" lon="12.79482827002876"><ele>31.0</ele><time>2026-05-03T13:14:18Z</time></trkpt><trkpt lat="45.94382230612757" lon="12.79475902365834"><ele>31.0</ele><time>2026-05-03T13:14:21Z</time></trkpt><trkpt lat="45.94375812134273" lon="12.794726673896642"><ele>31.0</ele><time>2026-05-03T13:14:27Z</time></trkpt><trkpt lat="45.9437027609416" lon="12.794776857336014"><ele>31.000000000000004</ele><time>2026-05-03T13:14:32Z</time></trkpt><trkpt lat="45.94377335436648" lon="12.794797989739976"><ele>31.0</ele><time>2026-05-03T13:14:39Z</time></trkpt><trkpt lat="45.94378820659449" lon="12.794657808168756"><ele>31.0</ele><time>2026-05-03T13:14:41Z</time></trkpt><trkpt lat="45.94374889306878" lon="12.794572116739683"><ele>31.0</ele><time>2026-05-03T13:14:42Z</time></trkpt><trkpt lat="45.943685878121784" lon="12.794493888570976"><ele>31.0</ele><time>2026-05-03T13:14:43Z</time></trkpt><trkpt lat="45.94359955846135" lon="12.794422450112478"><ele>31.0</ele><time>2026-05-03T13:14:44Z</time></trkpt><trkpt lat="45.943503119332874" lon="12.794350834641994"><ele>31.0</ele><time>2026-05-03T13:14:45Z</time></trkpt><trkpt lat="45.94340472751758" lon="12.794287610088825"><ele>30.6</ele><time>2026-05-03T13:14:46Z</time></trkpt><trkpt lat="45.9433028285315" lon="12.794210359636283"><ele>30.200000000000003</ele><time>2026-05-03T13:14:47Z</time></trkpt><trkpt lat="45.94321124531784" lon="12.794135022500972"><ele>29.799999999999997</ele><time>2026-05-03T13:14:48Z</time></trkpt><trkpt lat="45.94311870130898" lon="12.794066005838097"><ele>29.4</ele><time>2026-05-03T13:14:49Z</time></trkpt><trkpt lat="45.94302505171369" lon="12.793986998744128"><ele>29.0</ele><time>2026-05-03T13:14:50Z</time></trkpt><trkpt lat="45.94293805880173" lon="12.793880402403596"><ele>29.0</ele><time>2026-05-03T13:14:51Z</time></trkpt><trkpt lat="45.94287501746086" lon="12.793726377848229"><ele>29.0</ele><time>2026-05-03T13:14:52Z</time></trkpt><trkpt lat="45.94281014268118" lon="12.793556904764976"><ele>29.0</ele><time>2026-05-03T13:14:52.999Z</time></trkpt><trkpt lat="45.94274619387511" lon="12.793389557990654"><ele>29.0</ele><time>2026-05-03T13:14:53.999Z</time></trkpt><trkpt lat="45.94268688339788" lon="12.793246424380616"><ele>28.4</ele><time>2026-05-03T13:14:54.999Z</time></trkpt><trkpt lat="45.942635728972995" lon="12.793112171500265"><ele>27.799999999999997</ele><time>2026-05-03T13:14:55.999Z</time></trkpt><trkpt lat="45.94257776791906" lon="12.792999607468941"><ele>27.200000000000003</ele><time>2026-05-03T13:14:56.999Z</time></trkpt><trkpt lat="45.9425013059954" lon="12.792909509923707"><ele>26.6</ele><time>2026-05-03T13:14:57.999Z</time></trkpt><trkpt lat="45.94240578716091" lon="12.792834258049878"><ele>26.0</ele><time>2026-05-03T13:14:58.999Z</time></trkpt><trkpt lat="45.94232133199946" lon="12.792723433451737"><ele>26.200000000000003</ele><time>2026-05-03T13:14:59.999Z</time></trkpt><trkpt lat="45.94224027761684" lon="12.792636349093826"><ele>26.400000000000002</ele><time>2026-05-03T13:15:00.999Z</time></trkpt><trkpt lat="45.942163068374406" lon="12.792602387408424"><ele>26.6</ele><time>2026-05-03T13:15:01.999Z</time></trkpt><trkpt lat="45.9420514423086" lon="12.792557078480113"><ele>26.8</ele><time>2026-05-03T13:15:02.999Z</time></trkpt><trkpt lat="45.941964557420356" lon="12.792511368276436"><ele>27.0</ele><time>2026-05-03T13:15:03.999Z</time></trkpt><trkpt lat="45.94187127809945" lon="12.792490019589575"><ele>27.0</ele><time>2026-05-03T13:15:04.999Z</time></trkpt><trkpt lat="45.94176182652777" lon="12.792483346538353"><ele>27.000000000000004</ele><time>2026-05-03T13:15:05.999Z</time></trkpt><trkpt lat="45.94167596501341" lon="12.792438668993123"><ele>27.000000000000004</ele><time>2026-05-03T13:15:06.999Z</time></trkpt><trkpt lat="45.94158486642454" lon="12.792393698341643"><ele>27.0</ele><time>2026-05-03T13:15:07.999Z</time></trkpt><trkpt lat="45.941489624172284" lon="12.792280537471504"><ele>27.0</ele><time>2026-05-03T13:15:08.999Z</time></trkpt><trkpt lat="45.94138522402077" lon="12.792175707970527"><ele>27.25</ele><time>2026-05-03T13:15:09.999Z</time></trkpt><trkpt lat="45.94128320477633" lon="12.792066032179694"><ele>27.5</ele><time>2026-05-03T13:15:10.999Z</time></trkpt><trkpt lat="45.94118299348087" lon="12.791953511753311"><ele>27.75</ele><time>2026-05-03T13:15:11.999Z</time></trkpt><trkpt lat="45.941101748549166" lon="12.791817200071392"><ele>28.0</ele><time>2026-05-03T13:15:12.999Z</time></trkpt><trkpt lat="45.94102958950247" lon="12.79167761214593"><ele>28.0</ele><time>2026-05-03T13:15:13.999Z</time></trkpt><trkpt lat="45.940953689115496" lon="12.791535552076109"><ele>27.999999999999996</ele><time>2026-05-03T13:15:14.999Z</time></trkpt><trkpt lat="45.94087673285805" lon="12.791437617309079"><ele>27.999999999999996</ele><time>2026-05-03T13:15:15.999Z</time></trkpt><trkpt lat="45.94081091931331" lon="12.7913293677292"><ele>28.0</ele><time>2026-05-03T13:15:16.999Z</time></trkpt><trkpt lat="45.94073101280951" lon="12.791242904958104"><ele>28.0</ele><time>2026-05-03T13:15:17.999Z</time></trkpt><trkpt lat="45.94065898511754" lon="12.79114565011481"><ele>28.0</ele><time>2026-05-03T13:15:18.999Z</time></trkpt><trkpt lat="45.94057729926318" lon="12.791029173160078"><ele>27.999999999999996</ele><time>2026-05-03T13:15:19.999Z</time></trkpt><trkpt lat="45.9404971544771" lon="12.790932309039167"><ele>27.999999999999996</ele><time>2026-05-03T13:15:20.999Z</time></trkpt><trkpt lat="45.94041166073973" lon="12.790845551664873"><ele>28.0</ele><time>2026-05-03T13:15:21.999Z</time></trkpt><trkpt lat="45.94032469469451" lon="12.790737373675341"><ele>28.0</ele><time>2026-05-03T13:15:22.999Z</time></trkpt><trkpt lat="45.94022633165438" lon="12.790604596004677"><ele>27.5</ele><time>2026-05-03T13:15:23.999Z</time></trkpt><trkpt lat="45.94011292508149" lon="12.790495128998376"><ele>27.0</ele><time>2026-05-03T13:15:24.999Z</time></trkpt><trkpt lat="45.940014019599275" lon="12.790397228858824"><ele>26.5</ele><time>2026-05-03T13:15:25.999Z</time></trkpt><trkpt lat="45.939930669754894" lon="12.790277910683853"><ele>26.0</ele><time>2026-05-03T13:15:26.999Z</time></trkpt><trkpt lat="45.93986782318426" lon="12.79019442123136"><ele>26.333333333333332</ele><time>2026-05-03T13:15:27.999Z</time></trkpt><trkpt lat="45.93979251995314" lon="12.790111209224602"><ele>26.666666666666664</ele><time>2026-05-03T13:15:28.999Z</time></trkpt><trkpt lat="45.93973075132972" lon="12.790049941946497"><ele>27.0</ele><time>2026-05-03T13:15:29.999Z</time></trkpt><trkpt lat="45.93967277356518" lon="12.790010527780884"><ele>27.333333333333336</ele><time>2026-05-03T13:15:30.999Z</time></trkpt><trkpt lat="45.939601775904414" lon="12.789962196067032"><ele>27.666666666666668</ele><time>2026-05-03T13:15:32.999Z</time></trkpt><trkpt lat="45.939575951347585" lon="12.789859083016486"><ele>28.0</ele><time>2026-05-03T13:15:35.999Z</time></trkpt><trkpt lat="45.93966838156407" lon="12.789733483309258"><ele>28.000000000000004</ele><time>2026-05-03T13:15:37.999Z</time></trkpt><trkpt lat="45.939721084354225" lon="12.789655068720638"><ele>28.0</ele><time>2026-05-03T13:15:38.999Z</time></trkpt><trkpt lat="45.939768021396425" lon="12.789586575803154"><ele>28.0</ele><time>2026-05-03T13:15:39.999Z</time></trkpt><trkpt lat="45.93982043398591" lon="12.78950809048489"><ele>28.0</ele><time>2026-05-03T13:15:40.999Z</time></trkpt><trkpt lat="45.93987777778254" lon="12.789412912265272"><ele>28.000000000000004</ele><time>2026-05-03T13:15:41.999Z</time></trkpt><trkpt lat="45.93993935147464" lon="12.789308284544724"><ele>28.0</ele><time>2026-05-03T13:15:43Z</time></trkpt><trkpt lat="45.93999393242428" lon="12.789217991776335"><ele>27.833333333333336</ele><time>2026-05-03T13:15:44Z</time></trkpt><trkpt lat="45.940043469020736" lon="12.789136316866436"><ele>27.666666666666668</ele><time>2026-05-03T13:15:45Z</time></trkpt><trkpt lat="45.94009057915175" lon="12.789069596761994"><ele>27.5</ele><time>2026-05-03T13:15:46Z</time></trkpt><trkpt lat="45.94015775192717" lon="12.788977517407814"><ele>27.333333333333336</ele><time>2026-05-03T13:15:48Z</time></trkpt><trkpt lat="45.9402453391462" lon="12.78900888336687"><ele>27.166666666666668</ele><time>2026-05-03T13:15:50Z</time></trkpt><trkpt lat="45.94032098504868" lon="12.789046820867926"><ele>27.0</ele><time>2026-05-03T13:15:52Z</time></trkpt><trkpt lat="45.94034699740283" lon="12.788946507250989"><ele>27.0</ele><time>2026-05-03T13:15:55Z</time></trkpt><trkpt lat="45.94040289029464" lon="12.788875730377908"><ele>27.0</ele><time>2026-05-03T13:15:58Z</time></trkpt><trkpt lat="45.94048627780283" lon="12.788894841361122"><ele>27.0</ele><time>2026-05-03T13:15:59Z</time></trkpt><trkpt lat="45.940564745338236" lon="12.788949019416659"><ele>27.0</ele><time>2026-05-03T13:16:00Z</time></trkpt><trkpt lat="45.94063030042214" lon="12.789010479638078"><ele>27.0</ele><time>2026-05-03T13:16:01Z</time></trkpt><trkpt lat="45.94067764517016" lon="12.789097359510427"><ele>27.0</ele><time>2026-05-03T13:16:02Z</time></trkpt><trkpt lat="45.940724318671364" lon="12.789233242738927"><ele>27.0</ele><time>2026-05-03T13:16:03Z</time></trkpt><trkpt lat="45.94078713482199" lon="12.789364864460051"><ele>27.000000000000004</ele><time>2026-05-03T13:16:04Z</time></trkpt><trkpt lat="45.94086236074754" lon="12.789458714791987"><ele>27.000000000000004</ele><time>2026-05-03T13:16:05Z</time></trkpt><trkpt lat="45.94096646672856" lon="12.78953174469974"><ele>27.0</ele><time>2026-05-03T13:16:06Z</time></trkpt><trkpt lat="45.941059693507135" lon="12.789605727024673"><ele>27.0</ele><time>2026-05-03T13:16:07Z</time></trkpt><trkpt lat="45.941131003321274" lon="12.789679108709935"><ele>26.8</ele><time>2026-05-03T13:16:08Z</time></trkpt><trkpt lat="45.94119897891849" lon="12.78976111573363"><ele>26.6</ele><time>2026-05-03T13:16:09Z</time></trkpt><trkpt lat="45.94125862153244" lon="12.789858931734603"><ele>26.400000000000002</ele><time>2026-05-03T13:16:10Z</time></trkpt><trkpt lat="45.94130537750655" lon="12.789927079418653"><ele>26.200000000000003</ele><time>2026-05-03T13:16:11Z</time></trkpt><trkpt lat="45.94142535773573" lon="12.789960348853668"><ele>26.0</ele><time>2026-05-03T13:16:13Z</time></trkpt><trkpt lat="45.94151851282301" lon="12.789920684683459"><ele>26.0</ele><time>2026-05-03T13:16:14Z</time></trkpt><trkpt lat="45.94159333947028" lon="12.789823203189849"><ele>26.0</ele><time>2026-05-03T13:16:15Z</time></trkpt><trkpt lat="45.941690745293805" lon="12.78971157544645"><ele>26.0</ele><time>2026-05-03T13:16:16Z</time></trkpt><trkpt lat="45.94178532066932" lon="12.789608704584237"><ele>26.0</ele><time>2026-05-03T13:16:17Z</time></trkpt><trkpt lat="45.941878306078834" lon="12.789518197437987"><ele>26.0</ele><time>2026-05-03T13:16:18Z</time></trkpt><trkpt lat="45.94197654853632" lon="12.789413719606804"><ele>26.0</ele><time>2026-05-03T13:16:19Z</time></trkpt><trkpt lat="45.94207514543233" lon="12.789332224707078"><ele>26.0</ele><time>2026-05-03T13:16:20Z</time></trkpt><trkpt lat="45.94215330019425" lon="12.789257089886856"><ele>26.0</ele><time>2026-05-03T13:16:21Z</time></trkpt><trkpt lat="45.942211878349354" lon="12.789185113057272"><ele>26.0</ele><time>2026-05-03T13:16:22Z</time></trkpt><trkpt lat="45.942264027074756" lon="12.789132934500211"><ele>25.999999999999996</ele><time>2026-05-03T13:16:23Z</time></trkpt><trkpt lat="45.94232204829031" lon="12.78908981265149"><ele>26.0</ele><time>2026-05-03T13:16:24Z</time></trkpt><trkpt lat="45.94238040723142" lon="12.789041149369064"><ele>26.0</ele><time>2026-05-03T13:16:26Z</time></trkpt><trkpt lat="45.94239972203071" lon="12.788954627006527"><ele>26.0</ele><time>2026-05-03T13:16:29Z</time></trkpt><trkpt lat="45.942347718402225" lon="12.788812971381152"><ele>25.999999999999996</ele><time>2026-05-03T13:16:31Z</time></trkpt><trkpt lat="45.942309391978384" lon="12.788713690381798"><ele>26.0</ele><time>2026-05-03T13:16:32Z</time></trkpt><trkpt lat="45.942254866582886" lon="12.788606118253451"><ele>26.0</ele><time>2026-05-03T13:16:33Z</time></trkpt><trkpt lat="45.94218346496333" lon="12.788495353856508"><ele>26.0</ele><time>2026-05-03T13:16:34Z</time></trkpt><trkpt lat="45.942113037575936" lon="12.788340752706887"><ele>26.0</ele><time>2026-05-03T13:16:35Z</time></trkpt><trkpt lat="45.942029397733336" lon="12.788196348908992"><ele>26.0</ele><time>2026-05-03T13:16:36Z</time></trkpt><trkpt lat="45.941945699921604" lon="12.788043869249183"><ele>26.0</ele><time>2026-05-03T13:16:37Z</time></trkpt><trkpt lat="45.94188460475036" lon="12.787903209246583"><ele>26.0</ele><time>2026-05-03T13:16:38Z</time></trkpt><trkpt lat="45.941793000271694" lon="12.787768134039903"><ele>26.0</ele><time>2026-05-03T13:16:39Z</time></trkpt><trkpt lat="45.94171100132404" lon="12.787637336267737"><ele>26.0</ele><time>2026-05-03T13:16:40Z</time></trkpt><trkpt lat="45.94163795507496" lon="12.787504916827812"><ele>25.75</ele><time>2026-05-03T13:16:41Z</time></trkpt><trkpt lat="45.94155123952216" lon="12.787351667806583"><ele>25.5</ele><time>2026-05-03T13:16:42Z</time></trkpt><trkpt lat="45.94146292077255" lon="12.787192873993776"><ele>25.25</ele><time>2026-05-03T13:16:43Z</time></trkpt><trkpt lat="45.94138265692413" lon="12.787048510862059"><ele>25.0</ele><time>2026-05-03T13:16:44Z</time></trkpt><trkpt lat="45.941306145412995" lon="12.786915867868517"><ele>25.0</ele><time>2026-05-03T13:16:45Z</time></trkpt><trkpt lat="45.94123306026096" lon="12.786785343104604"><ele>25.0</ele><time>2026-05-03T13:16:46Z</time></trkpt><trkpt lat="45.94116201837588" lon="12.786654852017293"><ele>25.0</ele><time>2026-05-03T13:16:47Z</time></trkpt><trkpt lat="45.94108898614394" lon="12.786524897800364"><ele>25.0</ele><time>2026-05-03T13:16:48Z</time></trkpt><trkpt lat="45.941003395575976" lon="12.786397735512182"><ele>25.0</ele><time>2026-05-03T13:16:49Z</time></trkpt><trkpt lat="45.94090662927482" lon="12.786254681367213"><ele>25.0</ele><time>2026-05-03T13:16:50Z</time></trkpt><trkpt lat="45.940822204560455" lon="12.78611201617707"><ele>25.0</ele><time>2026-05-03T13:16:51Z</time></trkpt><trkpt lat="45.940745000511555" lon="12.785980994931407"><ele>25.0</ele><time>2026-05-03T13:16:52Z</time></trkpt><trkpt lat="45.94066780479677" lon="12.785853864772552"><ele>25.0</ele><time>2026-05-03T13:16:53Z</time></trkpt><trkpt lat="45.94059191116919" lon="12.78572454535688"><ele>25.0</ele><time>2026-05-03T13:16:54Z</time></trkpt><trkpt lat="45.94051002097817" lon="12.78558271142827"><ele>25.0</ele><time>2026-05-03T13:16:55Z</time></trkpt><trkpt lat="45.94042331895696" lon="12.78543697874348"><ele>25.0</ele><time>2026-05-03T13:16:56Z</time></trkpt><trkpt lat="45.94034809861501" lon="12.785299236827845"><ele>25.000000000000004</ele><time>2026-05-03T13:16:57Z</time></trkpt><trkpt lat="45.94028839197615" lon="12.785188331918867"><ele>25.0</ele><time>2026-05-03T13:16:58Z</time></trkpt><trkpt lat="45.94024297710166" lon="12.785088718415253"><ele>25.0</ele><time>2026-05-03T13:16:59Z</time></trkpt><trkpt lat="45.94018663035082" lon="12.78498082550124"><ele>25.0</ele><time>2026-05-03T13:17:00Z</time></trkpt><trkpt lat="45.940134038551136" lon="12.784876588435907"><ele>25.000000000000004</ele><time>2026-05-03T13:17:01Z</time></trkpt><trkpt lat="45.940089654504014" lon="12.784794605886692"><ele>25.0</ele><time>2026-05-03T13:17:02Z</time></trkpt><trkpt lat="45.94004764993839" lon="12.78472473878191"><ele>24.6</ele><time>2026-05-03T13:17:03Z</time></trkpt><trkpt lat="45.93998710369034" lon="12.78461711667231"><ele>24.2</ele><time>2026-05-03T13:17:05Z</time></trkpt><trkpt lat="45.939925800321326" lon="12.784670149977492"><ele>23.799999999999997</ele><time>2026-05-03T13:17:10Z</time></trkpt><trkpt lat="45.93990654203897" lon="12.78481259429552"><ele>23.4</ele><time>2026-05-03T13:17:12Z</time></trkpt><trkpt lat="45.93986745258166" lon="12.784896315834256"><ele>23.0</ele><time>2026-05-03T13:17:13Z</time></trkpt><trkpt lat="45.93978311391881" lon="12.785003067307773"><ele>23.0</ele><time>2026-05-03T13:17:14Z</time></trkpt><trkpt lat="45.93971219233106" lon="12.785084819685943"><ele>23.0</ele><time>2026-05-03T13:17:15Z</time></trkpt><trkpt lat="45.93964967358301" lon="12.785160079677727"><ele>23.0</ele><time>2026-05-03T13:17:16Z</time></trkpt><trkpt lat="45.939587002249006" lon="12.785252822498823"><ele>23.0</ele><time>2026-05-03T13:17:17Z</time></trkpt><trkpt lat="45.93950425642589" lon="12.785365508137"><ele>23.0</ele><time>2026-05-03T13:17:18Z</time></trkpt><trkpt lat="45.93941557868925" lon="12.785486568455212"><ele>23.2</ele><time>2026-05-03T13:17:19Z</time></trkpt><trkpt lat="45.93933093129227" lon="12.78559677846824"><ele>23.4</ele><time>2026-05-03T13:17:20Z</time></trkpt><trkpt lat="45.939259570513094" lon="12.78569492577838"><ele>23.599999999999998</ele><time>2026-05-03T13:17:21Z</time></trkpt><trkpt lat="45.93918567187184" lon="12.785793890468867"><ele>23.799999999999997</ele><time>2026-05-03T13:17:21.999Z</time></trkpt><trkpt lat="45.93910528634434" lon="12.785898338405913"><ele>24.0</ele><time>2026-05-03T13:17:22.999Z</time></trkpt><trkpt lat="45.93902684207425" lon="12.78600360881945"><ele>24.2</ele><time>2026-05-03T13:17:23.999Z</time></trkpt><trkpt lat="45.93894664347122" lon="12.786109101872341"><ele>24.4</ele><time>2026-05-03T13:17:24.999Z</time></trkpt><trkpt lat="45.93886799848526" lon="12.786213685995381"><ele>24.6</ele><time>2026-05-03T13:17:25.999Z</time></trkpt><trkpt lat="45.93879708175027" lon="12.786308799621816"><ele>24.8</ele><time>2026-05-03T13:17:26.999Z</time></trkpt><trkpt lat="45.93873681451116" lon="12.786399592008541"><ele>25.0</ele><time>2026-05-03T13:17:27.999Z</time></trkpt><trkpt lat="45.938683712107384" lon="12.786477253692027"><ele>25.0</ele><time>2026-05-03T13:17:28.999Z</time></trkpt><trkpt lat="45.938622154124026" lon="12.786523974786284"><ele>25.0</ele><time>2026-05-03T13:17:29.999Z</time></trkpt><trkpt lat="45.93853650601116" lon="12.786535626420191"><ele>25.0</ele><time>2026-05-03T13:17:30.999Z</time></trkpt><trkpt lat="45.93844565198173" lon="12.786516483564432"><ele>25.0</ele><time>2026-05-03T13:17:31.999Z</time></trkpt><trkpt lat="45.93835516711094" lon="12.786456856635914"><ele>25.0</ele><time>2026-05-03T13:17:32.999Z</time></trkpt><trkpt lat="45.938260390628514" lon="12.78635597219166"><ele>25.0</ele><time>2026-05-03T13:17:33.999Z</time></trkpt><trkpt lat="45.93818094976127" lon="12.786265504416953"><ele>25.0</ele><time>2026-05-03T13:17:34.999Z</time></trkpt><trkpt lat="45.93810373009844" lon="12.78619919714058"><ele>25.0</ele><time>2026-05-03T13:17:35.999Z</time></trkpt><trkpt lat="45.9380195634017" lon="12.786153486603911"><ele>25.0</ele><time>2026-05-03T13:17:36.999Z</time></trkpt><trkpt lat="45.937914507953195" lon="12.786127398559033"><ele>25.0</ele><time>2026-05-03T13:17:37.999Z</time></trkpt><trkpt lat="45.93779706034029" lon="12.786105143552803"><ele>25.0</ele><time>2026-05-03T13:17:38.999Z</time></trkpt><trkpt lat="45.93769924879176" lon="12.78607832083417"><ele>25.0</ele><time>2026-05-03T13:17:39.999Z</time></trkpt><trkpt lat="45.93761272507657" lon="12.786046573681418"><ele>25.0</ele><time>2026-05-03T13:17:40.999Z</time></trkpt><trkpt lat="45.9375241252326" lon="12.786002017485448"><ele>25.0</ele><time>2026-05-03T13:17:41.999Z</time></trkpt><trkpt lat="45.93742644907527" lon="12.785935163413546"><ele>25.0</ele><time>2026-05-03T13:17:42.999Z</time></trkpt><trkpt lat="45.93733087221642" lon="12.785868343252856"><ele>25.333333333333336</ele><time>2026-05-03T13:17:43.999Z</time></trkpt><trkpt lat="45.937237905321794" lon="12.78580283918343"><ele>25.666666666666668</ele><time>2026-05-03T13:17:44.999Z</time></trkpt><trkpt lat="45.937146943414575" lon="12.785747064734425"><ele>26.0</ele><time>2026-05-03T13:17:45.999Z</time></trkpt><trkpt lat="45.93706693258092" lon="12.78569875710258"><ele>26.333333333333336</ele><time>2026-05-03T13:17:46.999Z</time></trkpt><trkpt lat="45.93700331300194" lon="12.785665905497002"><ele>26.666666666666668</ele><time>2026-05-03T13:17:47.999Z</time></trkpt><trkpt lat="45.93693924157188" lon="12.78563137955397"><ele>27.0</ele><time>2026-05-03T13:17:48.999Z</time></trkpt><trkpt lat="45.93684063258674" lon="12.785547469108531"><ele>27.0</ele><time>2026-05-03T13:17:50.999Z</time></trkpt><trkpt lat="45.93678536804988" lon="12.785483628815237"><ele>27.0</ele><time>2026-05-03T13:17:51.999Z</time></trkpt><trkpt lat="45.93673846298872" lon="12.785415155110574"><ele>27.0</ele><time>2026-05-03T13:17:53Z</time></trkpt><trkpt lat="45.93669960615925" lon="12.785322281782708"><ele>27.0</ele><time>2026-05-03T13:17:54Z</time></trkpt><trkpt lat="45.93665913244685" lon="12.785214225994881"><ele>27.0</ele><time>2026-05-03T13:17:55Z</time></trkpt><trkpt lat="45.9366070807139" lon="12.785123521268035"><ele>27.0</ele><time>2026-05-03T13:17:56Z</time></trkpt><trkpt lat="45.93655596868749" lon="12.785059960885095"><ele>27.0</ele><time>2026-05-03T13:17:57Z</time></trkpt><trkpt lat="45.93649027947849" lon="12.785013370880105"><ele>27.0</ele><time>2026-05-03T13:17:58Z</time></trkpt><trkpt lat="45.93641101468369" lon="12.784979938273505"><ele>27.000000000000004</ele><time>2026-05-03T13:17:59Z</time></trkpt><trkpt lat="45.93630994998573" lon="12.784932931384676"><ele>27.000000000000004</ele><time>2026-05-03T13:18:00Z</time></trkpt><trkpt lat="45.93619744743295" lon="12.784868187740381"><ele>27.0</ele><time>2026-05-03T13:18:01Z</time></trkpt><trkpt lat="45.93610527625272" lon="12.784809572376927"><ele>27.0</ele><time>2026-05-03T13:18:02Z</time></trkpt><trkpt lat="45.936023673320776" lon="12.784755376343567"><ele>27.0</ele><time>2026-05-03T13:18:03Z</time></trkpt><trkpt lat="45.93593410112512" lon="12.784701570502621"><ele>27.000000000000004</ele><time>2026-05-03T13:18:04Z</time></trkpt><trkpt lat="45.9358438586217" lon="12.784639259762947"><ele>27.000000000000004</ele><time>2026-05-03T13:18:05Z</time></trkpt><trkpt lat="45.9357434053291" lon="12.784574379934742"><ele>27.0</ele><time>2026-05-03T13:18:06Z</time></trkpt><trkpt lat="45.935652985512924" lon="12.784520699883215"><ele>27.0</ele><time>2026-05-03T13:18:07Z</time></trkpt><trkpt lat="45.935577160975264" lon="12.78448411073827"><ele>27.333333333333332</ele><time>2026-05-03T13:18:08Z</time></trkpt><trkpt lat="45.9354977554077" lon="12.784456281173675"><ele>27.666666666666664</ele><time>2026-05-03T13:18:09Z</time></trkpt><trkpt lat="45.935409195260235" lon="12.784427968637997"><ele>28.0</ele><time>2026-05-03T13:18:10Z</time></trkpt><trkpt lat="45.935325613617884" lon="12.784393520294769"><ele>28.333333333333332</ele><time>2026-05-03T13:18:11Z</time></trkpt><trkpt lat="45.93523833072267" lon="12.784370471506397"><ele>28.666666666666664</ele><time>2026-05-03T13:18:12Z</time></trkpt><trkpt lat="45.935141174858266" lon="12.784341386809684"><ele>29.0</ele><time>2026-05-03T13:18:13Z</time></trkpt><trkpt lat="45.935056082588595" lon="12.784320033423764"><ele>29.333333333333332</ele><time>2026-05-03T13:18:14Z</time></trkpt><trkpt lat="45.93497698644185" lon="12.784302203457122"><ele>29.666666666666664</ele><time>2026-05-03T13:18:15Z</time></trkpt><trkpt lat="45.9348913604074" lon="12.7843024790976"><ele>30.0</ele><time>2026-05-03T13:18:16Z</time></trkpt><trkpt lat="45.93481174261818" lon="12.784320518574205"><ele>30.333333333333336</ele><time>2026-05-03T13:18:17Z</time></trkpt><trkpt lat="45.93474133664929" lon="12.78436508489149"><ele>30.666666666666668</ele><time>2026-05-03T13:18:18Z</time></trkpt><trkpt lat="45.93466613022871" lon="12.784425710874366"><ele>31.0</ele><time>2026-05-03T13:18:19Z</time></trkpt><trkpt lat="45.9345864596381" lon="12.784478159894212"><ele>31.000000000000004</ele><time>2026-05-03T13:18:20Z</time></trkpt><trkpt lat="45.934504891170704" lon="12.784514484013386"><ele>31.0</ele><time>2026-05-03T13:18:21Z</time></trkpt><trkpt lat="45.93442827229841" lon="12.784523551345973"><ele>31.0</ele><time>2026-05-03T13:18:22Z</time></trkpt><trkpt lat="45.934342862988835" lon="12.784499208527773"><ele>31.0</ele><time>2026-05-03T13:18:23Z</time></trkpt><trkpt lat="45.93425407955185" lon="12.784450148146089"><ele>31.000000000000004</ele><time>2026-05-03T13:18:24Z</time></trkpt><trkpt lat="45.93415956490822" lon="12.784401808063718"><ele>31.0</ele><time>2026-05-03T13:18:25Z</time></trkpt><trkpt lat="45.934065473591595" lon="12.784386014452481"><ele>31.8</ele><time>2026-05-03T13:18:26Z</time></trkpt><trkpt lat="45.933965566526204" lon="12.7843973552451"><ele>32.6</ele><time>2026-05-03T13:18:27Z</time></trkpt><trkpt lat="45.93386640498416" lon="12.784435521631607"><ele>33.4</ele><time>2026-05-03T13:18:28Z</time></trkpt><trkpt lat="45.93376886473633" lon="12.784451788436186"><ele>34.2</ele><time>2026-05-03T13:18:29Z</time></trkpt><trkpt lat="45.933687437132434" lon="12.784467397263098"><ele>35.0</ele><time>2026-05-03T13:18:30Z</time></trkpt><trkpt lat="45.933611747395815" lon="12.784498293105555"><ele>35.0</ele><time>2026-05-03T13:18:31Z</time></trkpt><trkpt lat="45.93353693309974" lon="12.78456003425462"><ele>35.0</ele><time>2026-05-03T13:18:32Z</time></trkpt><trkpt lat="45.93348291921025" lon="12.78462595928908"><ele>35.0</ele><time>2026-05-03T13:18:33Z</time></trkpt><trkpt lat="45.93345263141403" lon="12.784711923528064"><ele>35.0</ele><time>2026-05-03T13:18:34Z</time></trkpt><trkpt lat="45.93343214866073" lon="12.784812019905726"><ele>35.0</ele><time>2026-05-03T13:18:35Z</time></trkpt><trkpt lat="45.933391450523004" lon="12.784928703744974"><ele>35.0</ele><time>2026-05-03T13:18:36Z</time></trkpt><trkpt lat="45.93333424571507" lon="12.78506687592658"><ele>34.4</ele><time>2026-05-03T13:18:37Z</time></trkpt><trkpt lat="45.93328892980391" lon="12.785195609983017"><ele>33.8</ele><time>2026-05-03T13:18:38Z</time></trkpt><trkpt lat="45.93325343293957" lon="12.785318372538601"><ele>33.2</ele><time>2026-05-03T13:18:39Z</time></trkpt><trkpt lat="45.933217680640624" lon="12.785446164144863"><ele>32.6</ele><time>2026-05-03T13:18:40Z</time></trkpt><trkpt lat="45.93317814554606" lon="12.78558145267722"><ele>32.0</ele><time>2026-05-03T13:18:41Z</time></trkpt><trkpt lat="45.93313967224662" lon="12.785697112432047"><ele>31.999999999999996</ele><time>2026-05-03T13:18:42Z</time></trkpt><trkpt lat="45.93309776055021" lon="12.785804758690732"><ele>32.0</ele><time>2026-05-03T13:18:43Z</time></trkpt><trkpt lat="45.933056372897155" lon="12.785916342947367"><ele>32.0</ele><time>2026-05-03T13:18:44Z</time></trkpt><trkpt lat="45.93301552351343" lon="12.786023503934608"><ele>32.0</ele><time>2026-05-03T13:18:45Z</time></trkpt><trkpt lat="45.932986572944195" lon="12.786129072115305"><ele>31.999999999999996</ele><time>2026-05-03T13:18:46Z</time></trkpt><trkpt lat="45.93295703920544" lon="12.786214700494616"><ele>32.0</ele><time>2026-05-03T13:18:47Z</time></trkpt><trkpt lat="45.9329055198444" lon="12.786334851949862"><ele>30.6</ele><time>2026-05-03T13:18:49Z</time></trkpt><trkpt lat="45.93281203890793" lon="12.786456306299316"><ele>29.200000000000003</ele><time>2026-05-03T13:18:51Z</time></trkpt><trkpt lat="45.93274370507212" lon="12.786542243191143"><ele>27.8</ele><time>2026-05-03T13:18:52Z</time></trkpt><trkpt lat="45.93266712810828" lon="12.786640642314772"><ele>26.4</ele><time>2026-05-03T13:18:53Z</time></trkpt><trkpt lat="45.93258032730886" lon="12.786750941689512"><ele>25.0</ele><time>2026-05-03T13:18:54Z</time></trkpt><trkpt lat="45.93248329803265" lon="12.786876480706512"><ele>24.75</ele><time>2026-05-03T13:18:55Z</time></trkpt><trkpt lat="45.93238457885645" lon="12.78700127109228"><ele>24.5</ele><time>2026-05-03T13:18:56Z</time></trkpt><trkpt lat="45.932292068426555" lon="12.787118802595305"><ele>24.25</ele><time>2026-05-03T13:18:57Z</time></trkpt><trkpt lat="45.932201218803705" lon="12.787237010527768"><ele>24.0</ele><time>2026-05-03T13:18:58Z</time></trkpt><trkpt lat="45.93211141879084" lon="12.787356466994474"><ele>24.0</ele><time>2026-05-03T13:18:59Z</time></trkpt><trkpt lat="45.932014087768316" lon="12.787477760829113"><ele>24.0</ele><time>2026-05-03T13:19:00Z</time></trkpt><trkpt lat="45.93191488138766" lon="12.78760784662441"><ele>24.0</ele><time>2026-05-03T13:19:01Z</time></trkpt><trkpt lat="45.93180798634386" lon="12.787743814978308"><ele>24.0</ele><time>2026-05-03T13:19:02Z</time></trkpt><trkpt lat="45.93169981943831" lon="12.787890767314924"><ele>23.75</ele><time>2026-05-03T13:19:03Z</time></trkpt><trkpt lat="45.931575416678264" lon="12.78804100509187"><ele>23.5</ele><time>2026-05-03T13:19:04Z</time></trkpt><trkpt lat="45.931463212963315" lon="12.788179353633387"><ele>23.25</ele><time>2026-05-03T13:19:05Z</time></trkpt><trkpt lat="45.93136433080774" lon="12.788306856460359"><ele>23.0</ele><time>2026-05-03T13:19:06Z</time></trkpt><trkpt lat="45.93126333765882" lon="12.788433366589237"><ele>23.0</ele><time>2026-05-03T13:19:07Z</time></trkpt><trkpt lat="45.93116055471248" lon="12.788563147697856"><ele>23.0</ele><time>2026-05-03T13:19:08Z</time></trkpt><trkpt lat="45.931056959710986" lon="12.788695838833998"><ele>23.0</ele><time>2026-05-03T13:19:09Z</time></trkpt><trkpt lat="45.9309541385908" lon="12.788829575360952"><ele>23.0</ele><time>2026-05-03T13:19:10Z</time></trkpt><trkpt lat="45.930851451155" lon="12.78896492954472"><ele>23.0</ele><time>2026-05-03T13:19:11Z</time></trkpt><trkpt lat="45.93074107343886" lon="12.789105312819148"><ele>23.0</ele><time>2026-05-03T13:19:12Z</time></trkpt><trkpt lat="45.930625737504016" lon="12.789251362865208"><ele>23.0</ele><time>2026-05-03T13:19:13Z</time></trkpt><trkpt lat="45.93052030620302" lon="12.789385390556827"><ele>23.0</ele><time>2026-05-03T13:19:14Z</time></trkpt><trkpt lat="45.93043530745406" lon="12.789491530751496"><ele>23.0</ele><time>2026-05-03T13:19:15Z</time></trkpt><trkpt lat="45.93036643232398" lon="12.789574000952614"><ele>23.0</ele><time>2026-05-03T13:19:16Z</time></trkpt><trkpt lat="45.93031703817819" lon="12.789638778343777"><ele>23.0</ele><time>2026-05-03T13:19:17Z</time></trkpt><trkpt lat="45.93024488877535" lon="12.789722321330707"><ele>23.0</ele><time>2026-05-03T13:19:19Z</time></trkpt><trkpt lat="45.93022412320812" lon="12.789809155181521"><ele>23.0</ele><time>2026-05-03T13:19:21Z</time></trkpt><trkpt lat="45.93029714634415" lon="12.789956039505624"><ele>23.0</ele><time>2026-05-03T13:19:23Z</time></trkpt><trkpt lat="45.93036775076092" lon="12.790057727159047"><ele>23.0</ele><time>2026-05-03T13:19:24Z</time></trkpt><trkpt lat="45.9304252721678" lon="12.79014422594932"><ele>23.0</ele><time>2026-05-03T13:19:25Z</time></trkpt><trkpt lat="45.93046810988708" lon="12.790222384338042"><ele>23.0</ele><time>2026-05-03T13:19:26Z</time></trkpt><trkpt lat="45.93048707260981" lon="12.790354312267578"><ele>23.0</ele><time>2026-05-03T13:19:27.999Z</time></trkpt><trkpt lat="45.93049537795288" lon="12.790508861596479"><ele>23.0</ele><time>2026-05-03T13:19:29.999Z</time></trkpt><trkpt lat="45.930571650618155" lon="12.790614905338286"><ele>23.0</ele><time>2026-05-03T13:19:30.999Z</time></trkpt><trkpt lat="45.93066872689069" lon="12.790745069123687"><ele>23.0</ele><time>2026-05-03T13:19:31.999Z</time></trkpt><trkpt lat="45.930753003203314" lon="12.790867348932254"><ele>23.0</ele><time>2026-05-03T13:19:32.999Z</time></trkpt><trkpt lat="45.930826872749854" lon="12.790984879958609"><ele>23.0</ele><time>2026-05-03T13:19:33.999Z</time></trkpt><trkpt lat="45.93090173097499" lon="12.791099500838017"><ele>23.0</ele><time>2026-05-03T13:19:34.999Z</time></trkpt><trkpt lat="45.930967978798925" lon="12.791205677623562"><ele>23.0</ele><time>2026-05-03T13:19:35.999Z</time></trkpt><trkpt lat="45.93103015269683" lon="12.791302020041334"><ele>23.0</ele><time>2026-05-03T13:19:36.999Z</time></trkpt><trkpt lat="45.93109271746384" lon="12.791392987167242"><ele>23.0</ele><time>2026-05-03T13:19:37.999Z</time></trkpt><trkpt lat="45.93116802139439" lon="12.791491209249676"><ele>23.0</ele><time>2026-05-03T13:19:38.999Z</time></trkpt><trkpt lat="45.93125076404439" lon="12.791605878214872"><ele>23.0</ele><time>2026-05-03T13:19:39.999Z</time></trkpt><trkpt lat="45.93131970739072" lon="12.791765784390556"><ele>23.0</ele><time>2026-05-03T13:19:40.999Z</time></trkpt><trkpt lat="45.93142034293125" lon="12.791913550034657"><ele>23.0</ele><time>2026-05-03T13:19:41.999Z</time></trkpt><trkpt lat="45.93152104317804" lon="12.79204813052061"><ele>23.0</ele><time>2026-05-03T13:19:42.999Z</time></trkpt><trkpt lat="45.93158850413474" lon="12.792153078446807"><ele>23.2</ele><time>2026-05-03T13:19:43.999Z</time></trkpt><trkpt lat="45.93166450309179" lon="12.79226036576155"><ele>23.4</ele><time>2026-05-03T13:19:44.999Z</time></trkpt><trkpt lat="45.93172998351535" lon="12.792397572500729"><ele>23.599999999999998</ele><time>2026-05-03T13:19:45.999Z</time></trkpt><trkpt lat="45.931802117195176" lon="12.792501985762224"><ele>23.799999999999997</ele><time>2026-05-03T13:19:46.999Z</time></trkpt><trkpt lat="45.931849052488495" lon="12.792594739459993"><ele>24.0</ele><time>2026-05-03T13:19:47.999Z</time></trkpt><trkpt lat="45.93191177976452" lon="12.792716676513354"><ele>24.0</ele><time>2026-05-03T13:19:48.999Z</time></trkpt><trkpt lat="45.93197263594029" lon="12.792843018969828"><ele>24.0</ele><time>2026-05-03T13:19:49.999Z</time></trkpt><trkpt lat="45.93202958077323" lon="12.792963824721442"><ele>24.0</ele><time>2026-05-03T13:19:50.999Z</time></trkpt><trkpt lat="45.93210195021556" lon="12.79307851819446"><ele>24.0</ele><time>2026-05-03T13:19:51.999Z</time></trkpt><trkpt lat="45.93217754655197" lon="12.793208419596448"><ele>24.0</ele><time>2026-05-03T13:19:52.999Z</time></trkpt><trkpt lat="45.932260318303925" lon="12.793319075844504"><ele>24.0</ele><time>2026-05-03T13:19:53.999Z</time></trkpt><trkpt lat="45.932333722466765" lon="12.793446104187925"><ele>24.0</ele><time>2026-05-03T13:19:54.999Z</time></trkpt><trkpt lat="45.932413493841445" lon="12.793567356115544"><ele>24.0</ele><time>2026-05-03T13:19:55.999Z</time></trkpt><trkpt lat="45.93249546079969" lon="12.793684029220792"><ele>24.0</ele><time>2026-05-03T13:19:56.999Z</time></trkpt><trkpt lat="45.93255656716981" lon="12.793780971468644"><ele>24.0</ele><time>2026-05-03T13:19:57.999Z</time></trkpt><trkpt lat="45.93261417800337" lon="12.793872966828648"><ele>24.5</ele><time>2026-05-03T13:19:58.999Z</time></trkpt><trkpt lat="45.93266089694774" lon="12.793950936926269"><ele>25.0</ele><time>2026-05-03T13:20:00Z</time></trkpt><trkpt lat="45.93269149884735" lon="12.794082129469208"><ele>25.5</ele><time>2026-05-03T13:20:02Z</time></trkpt><trkpt lat="45.93267453992739" lon="12.794172251207444"><ele>26.0</ele><time>2026-05-03T13:20:03Z</time></trkpt><trkpt lat="45.932627448923384" lon="12.794295985250924"><ele>26.5</ele><time>2026-05-03T13:20:04Z</time></trkpt><trkpt lat="45.93258241057333" lon="12.794431676519624"><ele>27.0</ele><time>2026-05-03T13:20:05Z</time></trkpt><trkpt lat="45.93257961066391" lon="12.794547101837464"><ele>27.5</ele><time>2026-05-03T13:20:06Z</time></trkpt><trkpt lat="45.93261134079487" lon="12.794670721320898"><ele>28.0</ele><time>2026-05-03T13:20:07Z</time></trkpt><trkpt lat="45.93264862423498" lon="12.794827987186938"><ele>28.5</ele><time>2026-05-03T13:20:08Z</time></trkpt><trkpt lat="45.93267889486712" lon="12.795020033973138"><ele>29.0</ele><time>2026-05-03T13:20:09Z</time></trkpt><trkpt lat="45.93270206739012" lon="12.795191696847176"><ele>29.75</ele><time>2026-05-03T13:20:10Z</time></trkpt><trkpt lat="45.932731976885165" lon="12.795364052368782"><ele>30.5</ele><time>2026-05-03T13:20:11Z</time></trkpt><trkpt lat="45.932766101027454" lon="12.795537058357318"><ele>31.25</ele><time>2026-05-03T13:20:12Z</time></trkpt><trkpt lat="45.93280853904927" lon="12.795707580174746"><ele>32.0</ele><time>2026-05-03T13:20:13Z</time></trkpt><trkpt lat="45.932858790096105" lon="12.79587286607015"><ele>32.25</ele><time>2026-05-03T13:20:14Z</time></trkpt><trkpt lat="45.93290035434302" lon="12.796026285019432"><ele>32.5</ele><time>2026-05-03T13:20:15Z</time></trkpt><trkpt lat="45.9329361282012" lon="12.796175172450232"><ele>32.75</ele><time>2026-05-03T13:20:16Z</time></trkpt><trkpt lat="45.93297519717198" lon="12.796324551158758"><ele>33.0</ele><time>2026-05-03T13:20:17Z</time></trkpt><trkpt lat="45.93301796815188" lon="12.796479299090597"><ele>33.0</ele><time>2026-05-03T13:20:18Z</time></trkpt><trkpt lat="45.93306208189867" lon="12.796634921687486"><ele>33.0</ele><time>2026-05-03T13:20:19Z</time></trkpt><trkpt lat="45.93311637998674" lon="12.796792049057792"><ele>33.0</ele><time>2026-05-03T13:20:20Z</time></trkpt><trkpt lat="45.93317412641352" lon="12.796960271797815"><ele>33.0</ele><time>2026-05-03T13:20:21Z</time></trkpt><trkpt lat="45.93324699915188" lon="12.797119735575185"><ele>33.0</ele><time>2026-05-03T13:20:22Z</time></trkpt><trkpt lat="45.933329232278574" lon="12.797289560577456"><ele>33.0</ele><time>2026-05-03T13:20:23Z</time></trkpt><trkpt lat="45.93342356318113" lon="12.797469100314844"><ele>33.0</ele><time>2026-05-03T13:20:24Z</time></trkpt><trkpt lat="45.93351578749816" lon="12.79766128204495"><ele>32.25</ele><time>2026-05-03T13:20:25Z</time></trkpt><trkpt lat="45.933602780442904" lon="12.797846757834705"><ele>31.5</ele><time>2026-05-03T13:20:26Z</time></trkpt><trkpt lat="45.93368356829407" lon="12.798011492991288"><ele>30.75</ele><time>2026-05-03T13:20:27Z</time></trkpt><trkpt lat="45.93376671800754" lon="12.798179705789687"><ele>30.0</ele><time>2026-05-03T13:20:28Z</time></trkpt><trkpt lat="45.93385076593859" lon="12.798343619106227"><ele>29.75</ele><time>2026-05-03T13:20:29Z</time></trkpt><trkpt lat="45.93393542404512" lon="12.798511199136215"><ele>29.5</ele><time>2026-05-03T13:20:30Z</time></trkpt><trkpt lat="45.93402297577323" lon="12.798683265635391"><ele>29.25</ele><time>2026-05-03T13:20:31Z</time></trkpt><trkpt lat="45.934113072549636" lon="12.798848890862002"><ele>29.0</ele><time>2026-05-03T13:20:32Z</time></trkpt><trkpt lat="45.93420066474311" lon="12.799021935741315"><ele>29.0</ele><time>2026-05-03T13:20:33Z</time></trkpt><trkpt lat="45.934292171654974" lon="12.799200792176663"><ele>29.0</ele><time>2026-05-03T13:20:34Z</time></trkpt><trkpt lat="45.93438489760916" lon="12.799382791307632"><ele>29.0</ele><time>2026-05-03T13:20:35Z</time></trkpt><trkpt lat="45.934483093719024" lon="12.799575833091913"><ele>29.0</ele><time>2026-05-03T13:20:36Z</time></trkpt><trkpt lat="45.93458349770342" lon="12.799773417428405"><ele>29.0</ele><time>2026-05-03T13:20:37Z</time></trkpt><trkpt lat="45.93467406765163" lon="12.799950551444592"><ele>29.0</ele><time>2026-05-03T13:20:38Z</time></trkpt><trkpt lat="45.93475461008177" lon="12.800105860572314"><ele>28.799999999999997</ele><time>2026-05-03T13:20:39Z</time></trkpt><trkpt lat="45.93483056517457" lon="12.800248448928626"><ele>28.599999999999998</ele><time>2026-05-03T13:20:40Z</time></trkpt><trkpt lat="45.93489551313441" lon="12.800385321403184"><ele>28.4</ele><time>2026-05-03T13:20:41Z</time></trkpt><trkpt lat="45.93495967136936" lon="12.80051378770948"><ele>28.2</ele><time>2026-05-03T13:20:42Z</time></trkpt><trkpt lat="45.9350135734665" lon="12.800624821413376"><ele>28.0</ele><time>2026-05-03T13:20:43Z</time></trkpt><trkpt lat="45.93506670993552" lon="12.800732228783405"><ele>28.0</ele><time>2026-05-03T13:20:44Z</time></trkpt><trkpt lat="45.93511339904258" lon="12.8008333822"><ele>27.999999999999996</ele><time>2026-05-03T13:20:45Z</time></trkpt><trkpt lat="45.93517130970295" lon="12.800914642268106"><ele>27.999999999999996</ele><time>2026-05-03T13:20:46Z</time></trkpt><trkpt lat="45.93524818594569" lon="12.800962975791112"><ele>28.0</ele><time>2026-05-03T13:20:47Z</time></trkpt><trkpt lat="45.935350149951745" lon="12.800975553341463"><ele>28.0</ele><time>2026-05-03T13:20:48Z</time></trkpt><trkpt lat="45.93547486504214" lon="12.80097813430328"><ele>28.5</ele><time>2026-05-03T13:20:49Z</time></trkpt><trkpt lat="45.935612433938985" lon="12.801020622087432"><ele>29.0</ele><time>2026-05-03T13:20:50Z</time></trkpt><trkpt lat="45.935751978116805" lon="12.801092163787722"><ele>29.5</ele><time>2026-05-03T13:20:51Z</time></trkpt><trkpt lat="45.935875166130145" lon="12.801147347617748"><ele>30.0</ele><time>2026-05-03T13:20:52Z</time></trkpt><trkpt lat="45.93599092733112" lon="12.80118369853454"><ele>30.0</ele><time>2026-05-03T13:20:53Z</time></trkpt><trkpt lat="45.93610012121543" lon="12.801219021652468"><ele>30.0</ele><time>2026-05-03T13:20:54Z</time></trkpt><trkpt lat="45.936209898659236" lon="12.801268663929525"><ele>30.0</ele><time>2026-05-03T13:20:55Z</time></trkpt><trkpt lat="45.93632593551374" lon="12.801336986167453"><ele>30.0</ele><time>2026-05-03T13:20:56Z</time></trkpt><trkpt lat="45.93643763148363" lon="12.801428252907973"><ele>30.0</ele><time>2026-05-03T13:20:57Z</time></trkpt><trkpt lat="45.93653926036673" lon="12.80154085896789"><ele>30.0</ele><time>2026-05-03T13:20:58Z</time></trkpt><trkpt lat="45.93662787136074" lon="12.801666811861134"><ele>30.0</ele><time>2026-05-03T13:20:59Z</time></trkpt><trkpt lat="45.93670219753766" lon="12.801780296847864"><ele>30.0</ele><time>2026-05-03T13:21:00Z</time></trkpt><trkpt lat="45.93676033703873" lon="12.801871035886501"><ele>30.0</ele><time>2026-05-03T13:21:01Z</time></trkpt><trkpt lat="45.93680596153029" lon="12.801948428589114"><ele>30.2</ele><time>2026-05-03T13:21:02Z</time></trkpt><trkpt lat="45.936882438647004" lon="12.802085987456541"><ele>30.4</ele><time>2026-05-03T13:21:04Z</time></trkpt><trkpt lat="45.9369419340679" lon="12.802208445021215"><ele>30.6</ele><time>2026-05-03T13:21:06Z</time></trkpt><trkpt lat="45.93695722145485" lon="12.802299838307409"><ele>30.8</ele><time>2026-05-03T13:21:08Z</time></trkpt><trkpt lat="45.936870889182984" lon="12.802407296471289"><ele>31.0</ele><time>2026-05-03T13:21:10Z</time></trkpt><trkpt lat="45.93681158869019" lon="12.802481583513979"><ele>31.0</ele><time>2026-05-03T13:21:11Z</time></trkpt><trkpt lat="45.9367389123102" lon="12.802556246771331"><ele>31.0</ele><time>2026-05-03T13:21:12Z</time></trkpt><trkpt lat="45.93665568761273" lon="12.802638404396761"><ele>31.0</ele><time>2026-05-03T13:21:13Z</time></trkpt><trkpt lat="45.936563122050934" lon="12.802732319074334"><ele>31.0</ele><time>2026-05-03T13:21:14Z</time></trkpt><trkpt lat="45.93647728760929" lon="12.802816545112336"><ele>31.0</ele><time>2026-05-03T13:21:15Z</time></trkpt><trkpt lat="45.93639814948519" lon="12.802899318194509"><ele>32.0</ele><time>2026-05-03T13:21:16Z</time></trkpt><trkpt lat="45.93631902327804" lon="12.802983474725172"><ele>33.0</ele><time>2026-05-03T13:21:17Z</time></trkpt><trkpt lat="45.936246347163916" lon="12.80306243526605"><ele>34.0</ele><time>2026-05-03T13:21:18Z</time></trkpt><trkpt lat="45.936169108667414" lon="12.803142384621106"><ele>35.0</ele><time>2026-05-03T13:21:19Z</time></trkpt><trkpt lat="45.93610211459704" lon="12.80320902084608"><ele>36.0</ele><time>2026-05-03T13:21:20Z</time></trkpt><trkpt lat="45.93603420152049" lon="12.803279783489193"><ele>36.0</ele><time>2026-05-03T13:21:21Z</time></trkpt><trkpt lat="45.93596730268268" lon="12.803351979021432"><ele>36.0</ele><time>2026-05-03T13:21:22Z</time></trkpt><trkpt lat="45.93590601666821" lon="12.803417245290612"><ele>36.0</ele><time>2026-05-03T13:21:23Z</time></trkpt><trkpt lat="45.935838593210555" lon="12.803482809553449"><ele>36.0</ele><time>2026-05-03T13:21:24Z</time></trkpt><trkpt lat="45.935780756526185" lon="12.80354014484911"><ele>36.0</ele><time>2026-05-03T13:21:25Z</time></trkpt><trkpt lat="45.93568675071924" lon="12.803638786783168"><ele>36.0</ele><time>2026-05-03T13:21:27Z</time></trkpt><trkpt lat="45.93560886388575" lon="12.80368626104525"><ele>35.0</ele><time>2026-05-03T13:21:29Z</time></trkpt><trkpt lat="45.93553189270079" lon="12.80372033606064"><ele>34.0</ele><time>2026-05-03T13:21:31Z</time></trkpt><trkpt lat="45.935477987142214" lon="12.80378221224382"><ele>33.0</ele><time>2026-05-03T13:21:32Z</time></trkpt><trkpt lat="45.93541521044921" lon="12.803877363608484"><ele>32.0</ele><time>2026-05-03T13:21:33Z</time></trkpt><trkpt lat="45.935335937056955" lon="12.80400140227346"><ele>31.0</ele><time>2026-05-03T13:21:33.999Z</time></trkpt><trkpt lat="45.935252066633836" lon="12.804126821674258"><ele>31.0</ele><time>2026-05-03T13:21:34.999Z</time></trkpt><trkpt lat="45.93517639387547" lon="12.804236949439774"><ele>31.0</ele><time>2026-05-03T13:21:35.999Z</time></trkpt><trkpt lat="45.935090438777166" lon="12.804361134046381"><ele>31.0</ele><time>2026-05-03T13:21:36.999Z</time></trkpt><trkpt lat="45.93498161509865" lon="12.804514610751282"><ele>31.0</ele><time>2026-05-03T13:21:37.999Z</time></trkpt><trkpt lat="45.93486620556335" lon="12.804679207347759"><ele>29.75</ele><time>2026-05-03T13:21:38.999Z</time></trkpt><trkpt lat="45.934768274107" lon="12.804817980996992"><ele>28.5</ele><time>2026-05-03T13:21:39.999Z</time></trkpt><trkpt lat="45.93467635283007" lon="12.804941631938812"><ele>27.25</ele><time>2026-05-03T13:21:40.999Z</time></trkpt><trkpt lat="45.93459229987788" lon="12.805065050125084"><ele>26.0</ele><time>2026-05-03T13:21:41.999Z</time></trkpt><trkpt lat="45.93450922168671" lon="12.805188211760813"><ele>26.0</ele><time>2026-05-03T13:21:42.999Z</time></trkpt><trkpt lat="45.934418202045876" lon="12.805324313640876"><ele>26.0</ele><time>2026-05-03T13:21:43.999Z</time></trkpt><trkpt lat="45.93432220008457" lon="12.805470459159128"><ele>26.0</ele><time>2026-05-03T13:21:44.999Z</time></trkpt><trkpt lat="45.934211663402415" lon="12.805603659440475"><ele>26.0</ele><time>2026-05-03T13:21:45.999Z</time></trkpt><trkpt lat="45.93410338190028" lon="12.805705577515539"><ele>26.25</ele><time>2026-05-03T13:21:46.999Z</time></trkpt><trkpt lat="45.93398377505994" lon="12.805802834654557"><ele>26.5</ele><time>2026-05-03T13:21:47.999Z</time></trkpt><trkpt lat="45.933856584803834" lon="12.80590866910629"><ele>26.75</ele><time>2026-05-03T13:21:48.999Z</time></trkpt><trkpt lat="45.93373242628382" lon="12.806015192292396"><ele>27.0</ele><time>2026-05-03T13:21:49.999Z</time></trkpt><trkpt lat="45.93361715606863" lon="12.806128239124755"><ele>27.0</ele><time>2026-05-03T13:21:50.999Z</time></trkpt><trkpt lat="45.93351054005771" lon="12.806228929734685"><ele>27.000000000000004</ele><time>2026-05-03T13:21:51.999Z</time></trkpt><trkpt lat="45.93342142601693" lon="12.806305527672222"><ele>27.000000000000004</ele><time>2026-05-03T13:21:52.999Z</time></trkpt><trkpt lat="45.933349806341035" lon="12.806372492381355"><ele>27.0</ele><time>2026-05-03T13:21:53.999Z</time></trkpt><trkpt lat="45.93328798756744" lon="12.80642760045683"><ele>27.0</ele><time>2026-05-03T13:21:54.999Z</time></trkpt><trkpt lat="45.933219869136636" lon="12.806488942929088"><ele>27.0</ele><time>2026-05-03T13:21:55.999Z</time></trkpt><trkpt lat="45.93313929512437" lon="12.806566228049775"><ele>27.000000000000004</ele><time>2026-05-03T13:21:56.999Z</time></trkpt><trkpt lat="45.9330480841995" lon="12.806653285359758"><ele>27.000000000000004</ele><time>2026-05-03T13:21:57.999Z</time></trkpt><trkpt lat="45.93294714453432" lon="12.806727453834277"><ele>27.0</ele><time>2026-05-03T13:21:58.999Z</time></trkpt><trkpt lat="45.932834645097735" lon="12.806798870879799"><ele>27.0</ele><time>2026-05-03T13:21:59.999Z</time></trkpt><trkpt lat="45.93274297168369" lon="12.806864490227982"><ele>27.0</ele><time>2026-05-03T13:22:00.999Z</time></trkpt><trkpt lat="45.932663240399435" lon="12.806921814613043"><ele>27.000000000000004</ele><time>2026-05-03T13:22:01.999Z</time></trkpt><trkpt lat="45.93259028318691" lon="12.80698169892328"><ele>27.000000000000004</ele><time>2026-05-03T13:22:02.999Z</time></trkpt><trkpt lat="45.93252933544781" lon="12.807062370022647"><ele>27.0</ele><time>2026-05-03T13:22:04Z</time></trkpt><trkpt lat="45.932476165027126" lon="12.807174774971948"><ele>27.0</ele><time>2026-05-03T13:22:05Z</time></trkpt><trkpt lat="45.93244004351662" lon="12.807320034712793"><ele>27.200000000000003</ele><time>2026-05-03T13:22:06Z</time></trkpt><trkpt lat="45.93240594707623" lon="12.807498077197938"><ele>27.400000000000002</ele><time>2026-05-03T13:22:07Z</time></trkpt><trkpt lat="45.93237348012974" lon="12.807665469536339"><ele>27.599999999999998</ele><time>2026-05-03T13:22:08Z</time></trkpt><trkpt lat="45.93234625274856" lon="12.80780411435874"><ele>27.799999999999997</ele><time>2026-05-03T13:22:09Z</time></trkpt><trkpt lat="45.932305312419636" lon="12.80792739350644"><ele>28.0</ele><time>2026-05-03T13:22:10Z</time></trkpt><trkpt lat="45.93225750342539" lon="12.80802262930518"><ele>28.000000000000004</ele><time>2026-05-03T13:22:11Z</time></trkpt><trkpt lat="45.93218612998131" lon="12.808099779199836"><ele>28.0</ele><time>2026-05-03T13:22:12Z</time></trkpt><trkpt lat="45.93210238082624" lon="12.808170026048844"><ele>28.0</ele><time>2026-05-03T13:22:13Z</time></trkpt><trkpt lat="45.93202268531554" lon="12.80824088170902"><ele>28.0</ele><time>2026-05-03T13:22:14Z</time></trkpt><trkpt lat="45.93196674389025" lon="12.808322326310595"><ele>28.000000000000004</ele><time>2026-05-03T13:22:15Z</time></trkpt><trkpt lat="45.931930008210934" lon="12.808430324020476"><ele>28.0</ele><time>2026-05-03T13:22:16Z</time></trkpt><trkpt lat="45.93190991022581" lon="12.808551069083048"><ele>27.799999999999997</ele><time>2026-05-03T13:22:17Z</time></trkpt><trkpt lat="45.93190243954643" lon="12.80867873452749"><ele>27.599999999999998</ele><time>2026-05-03T13:22:18Z</time></trkpt><trkpt lat="45.93191300480567" lon="12.808822474486124"><ele>27.400000000000002</ele><time>2026-05-03T13:22:19Z</time></trkpt><trkpt lat="45.93194095164141" lon="12.80898816104598"><ele>27.200000000000003</ele><time>2026-05-03T13:22:20Z</time></trkpt><trkpt lat="45.9319999796152" lon="12.809160929353213"><ele>27.0</ele><time>2026-05-03T13:22:21Z</time></trkpt><trkpt lat="45.93209109667513" lon="12.80936405307435"><ele>26.75</ele><time>2026-05-03T13:22:22Z</time></trkpt><trkpt lat="45.93219712718819" lon="12.809529273012254"><ele>26.5</ele><time>2026-05-03T13:22:23Z</time></trkpt><trkpt lat="45.93229450995965" lon="12.809654029771457"><ele>26.25</ele><time>2026-05-03T13:22:24Z</time></trkpt><trkpt lat="45.932389040540606" lon="12.809766799159064"><ele>26.0</ele><time>2026-05-03T13:22:25Z</time></trkpt><trkpt lat="45.93247411825119" lon="12.809874362218435"><ele>26.0</ele><time>2026-05-03T13:22:26Z</time></trkpt><trkpt lat="45.93255417608081" lon="12.809983366212883"><ele>26.0</ele><time>2026-05-03T13:22:27Z</time></trkpt><trkpt lat="45.93262208955396" lon="12.81009768013784"><ele>26.0</ele><time>2026-05-03T13:22:28Z</time></trkpt><trkpt lat="45.93267240111154" lon="12.810229145751462"><ele>26.0</ele><time>2026-05-03T13:22:29Z</time></trkpt><trkpt lat="45.932708313494906" lon="12.810410565850232"><ele>26.25</ele><time>2026-05-03T13:22:30Z</time></trkpt><trkpt lat="45.93271206074953" lon="12.810554519873547"><ele>26.5</ele><time>2026-05-03T13:22:31Z</time></trkpt><trkpt lat="45.93269233552469" lon="12.810765719729911"><ele>26.75</ele><time>2026-05-03T13:22:32Z</time></trkpt><trkpt lat="45.93267051005527" lon="12.810972029001293"><ele>27.0</ele><time>2026-05-03T13:22:33Z</time></trkpt><trkpt lat="45.93264363750247" lon="12.811191138034273"><ele>27.0</ele><time>2026-05-03T13:22:34Z</time></trkpt><trkpt lat="45.9326270677311" lon="12.811369556515544"><ele>27.0</ele><time>2026-05-03T13:22:35Z</time></trkpt><trkpt lat="45.93260798550312" lon="12.81151784455326"><ele>27.0</ele><time>2026-05-03T13:22:36Z</time></trkpt><trkpt lat="45.93260706898519" lon="12.811673074021552"><ele>27.0</ele><time>2026-05-03T13:22:37Z</time></trkpt><trkpt lat="45.93260775435126" lon="12.811848282565853"><ele>27.5</ele><time>2026-05-03T13:22:38Z</time></trkpt><trkpt lat="45.93257356607555" lon="12.812032280267983"><ele>28.0</ele><time>2026-05-03T13:22:39Z</time></trkpt><trkpt lat="45.93250998679467" lon="12.81221441584606"><ele>28.5</ele><time>2026-05-03T13:22:40Z</time></trkpt><trkpt lat="45.93242990548904" lon="12.812391247963978"><ele>29.0</ele><time>2026-05-03T13:22:41Z</time></trkpt><trkpt lat="45.93235336632434" lon="12.812525383725143"><ele>28.799999999999997</ele><time>2026-05-03T13:22:42Z</time></trkpt><trkpt lat="45.93228776764376" lon="12.812647513705656"><ele>28.599999999999998</ele><time>2026-05-03T13:22:43Z</time></trkpt><trkpt lat="45.93221798837912" lon="12.812758464387336"><ele>28.4</ele><time>2026-05-03T13:22:44Z</time></trkpt><trkpt lat="45.93213371799575" lon="12.812861561535572"><ele>28.2</ele><time>2026-05-03T13:22:45Z</time></trkpt><trkpt lat="45.93205946952946" lon="12.812963299644354"><ele>28.0</ele><time>2026-05-03T13:22:46Z</time></trkpt><trkpt lat="45.93200948296883" lon="12.8130829322517"><ele>28.0</ele><time>2026-05-03T13:22:47Z</time></trkpt><trkpt lat="45.931980521636625" lon="12.81321438968707"><ele>27.999999999999996</ele><time>2026-05-03T13:22:48Z</time></trkpt><trkpt lat="45.931963899879555" lon="12.81335996165943"><ele>27.999999999999996</ele><time>2026-05-03T13:22:49Z</time></trkpt><trkpt lat="45.93196962137105" lon="12.813514539417"><ele>28.0</ele><time>2026-05-03T13:22:50Z</time></trkpt><trkpt lat="45.93200362049595" lon="12.813689912923003"><ele>28.0</ele><time>2026-05-03T13:22:51Z</time></trkpt><trkpt lat="45.93205350707951" lon="12.813855979846926"><ele>28.2</ele><time>2026-05-03T13:22:52Z</time></trkpt><trkpt lat="45.93208692521836" lon="12.81397687001779"><ele>28.4</ele><time>2026-05-03T13:22:53Z</time></trkpt><trkpt lat="45.93210580707527" lon="12.814073118118852"><ele>28.599999999999998</ele><time>2026-05-03T13:22:54Z</time></trkpt><trkpt lat="45.93216957753982" lon="12.814231085024076"><ele>28.799999999999997</ele><time>2026-05-03T13:22:56Z</time></trkpt><trkpt lat="45.93221516986956" lon="12.81434565249269"><ele>29.0</ele><time>2026-05-03T13:22:57Z</time></trkpt><trkpt lat="45.93225449877249" lon="12.814446302701572"><ele>29.166666666666664</ele><time>2026-05-03T13:22:58Z</time></trkpt><trkpt lat="45.932289061190126" lon="12.814545382878558"><ele>29.333333333333332</ele><time>2026-05-03T13:22:59Z</time></trkpt><trkpt lat="45.932323306775636" lon="12.81464821502104"><ele>29.5</ele><time>2026-05-03T13:23:00Z</time></trkpt><trkpt lat="45.932357053462916" lon="12.814752789581073"><ele>29.666666666666664</ele><time>2026-05-03T13:23:01Z</time></trkpt><trkpt lat="45.93238149677091" lon="12.814862756668239"><ele>29.833333333333332</ele><time>2026-05-03T13:23:02Z</time></trkpt><trkpt lat="45.932418050033114" lon="12.814968280728344"><ele>30.0</ele><time>2026-05-03T13:23:03Z</time></trkpt><trkpt lat="45.932458008712246" lon="12.81507406960982"><ele>30.0</ele><time>2026-05-03T13:23:04Z</time></trkpt><trkpt lat="45.93248918432813" lon="12.815168063832353"><ele>30.0</ele><time>2026-05-03T13:23:05Z</time></trkpt><trkpt lat="45.93252476248433" lon="12.815253363890866"><ele>30.0</ele><time>2026-05-03T13:23:06Z</time></trkpt><trkpt lat="45.93255240623795" lon="12.81535899368986"><ele>30.0</ele><time>2026-05-03T13:23:07Z</time></trkpt><trkpt lat="45.932579987110806" lon="12.815448272207998"><ele>30.0</ele><time>2026-05-03T13:23:08Z</time></trkpt><trkpt lat="45.93260547585544" lon="12.815541283886747"><ele>30.0</ele><time>2026-05-03T13:23:09Z</time></trkpt><trkpt lat="45.93263220303221" lon="12.815633132622006"><ele>30.0</ele><time>2026-05-03T13:23:10Z</time></trkpt><trkpt lat="45.93265274127257" lon="12.815728279011267"><ele>30.0</ele><time>2026-05-03T13:23:11Z</time></trkpt><trkpt lat="45.93267308456036" lon="12.815831747152139"><ele>30.0</ele><time>2026-05-03T13:23:12Z</time></trkpt><trkpt lat="45.93269296147495" lon="12.815938313705304"><ele>30.0</ele><time>2026-05-03T13:23:13Z</time></trkpt><trkpt lat="45.93271909326891" lon="12.81605830569547"><ele>30.0</ele><time>2026-05-03T13:23:14Z</time></trkpt><trkpt lat="45.93276187959002" lon="12.816188282604354"><ele>30.0</ele><time>2026-05-03T13:23:15.001Z</time></trkpt><trkpt lat="45.932814231751436" lon="12.816330813542555"><ele>30.0</ele><time>2026-05-03T13:23:16.001Z</time></trkpt><trkpt lat="45.93287268279178" lon="12.81647150622268"><ele>30.0</ele><time>2026-05-03T13:23:17.001Z</time></trkpt><trkpt lat="45.93292982918387" lon="12.81660519456277"><ele>30.0</ele><time>2026-05-03T13:23:18.001Z</time></trkpt><trkpt lat="45.93299059619223" lon="12.816742119095814"><ele>30.0</ele><time>2026-05-03T13:23:19.001Z</time></trkpt><trkpt lat="45.93305555033469" lon="12.816881188895538"><ele>29.5</ele><time>2026-05-03T13:23:20.001Z</time></trkpt><trkpt lat="45.933123199037524" lon="12.81701994433108"><ele>29.0</ele><time>2026-05-03T13:23:21.001Z</time></trkpt><trkpt lat="45.933199954856725" lon="12.817170147249946"><ele>28.5</ele><time>2026-05-03T13:23:22.001Z</time></trkpt><trkpt lat="45.93328262957654" lon="12.817274396631596"><ele>28.0</ele><time>2026-05-03T13:23:23.001Z</time></trkpt><trkpt lat="45.93335063270776" lon="12.817414048031855"><ele>28.0</ele><time>2026-05-03T13:23:24.001Z</time></trkpt><trkpt lat="45.93342325537177" lon="12.817543116459584"><ele>28.0</ele><time>2026-05-03T13:23:25.001Z</time></trkpt><trkpt lat="45.93348444377971" lon="12.817689359006357"><ele>28.0</ele><time>2026-05-03T13:23:26.001Z</time></trkpt><trkpt lat="45.9335698382807" lon="12.817862870626595"><ele>28.0</ele><time>2026-05-03T13:23:27.001Z</time></trkpt><trkpt lat="45.933647726650804" lon="12.818030755826754"><ele>28.0</ele><time>2026-05-03T13:23:28.001Z</time></trkpt><trkpt lat="45.93372731139852" lon="12.818233338468314"><ele>28.0</ele><time>2026-05-03T13:23:29.001Z</time></trkpt><trkpt lat="45.93381367991019" lon="12.818439093000116"><ele>28.0</ele><time>2026-05-03T13:23:30.001Z</time></trkpt><trkpt lat="45.93387054314378" lon="12.818612387958476"><ele>28.75</ele><time>2026-05-03T13:23:31.001Z</time></trkpt><trkpt lat="45.93394502101762" lon="12.818772429974178"><ele>29.5</ele><time>2026-05-03T13:23:32.001Z</time></trkpt><trkpt lat="45.93402827224766" lon="12.81895293845086"><ele>30.25</ele><time>2026-05-03T13:23:33.001Z</time></trkpt><trkpt lat="45.9341104008211" lon="12.819133049101094"><ele>31.0</ele><time>2026-05-03T13:23:34.001Z</time></trkpt><trkpt lat="45.93420168420529" lon="12.819325805421196"><ele>30.666666666666668</ele><time>2026-05-03T13:23:35.001Z</time></trkpt><trkpt lat="45.934291277013386" lon="12.819518781495907"><ele>30.333333333333336</ele><time>2026-05-03T13:23:36.001Z</time></trkpt><trkpt lat="45.93437836303742" lon="12.81972023464076"><ele>30.0</ele><time>2026-05-03T13:23:37.001Z</time></trkpt><trkpt lat="45.93445697603058" lon="12.819916610627857"><ele>30.0</ele><time>2026-05-03T13:23:38.001Z</time></trkpt><trkpt lat="45.93452023236908" lon="12.820104336376444"><ele>30.0</ele><time>2026-05-03T13:23:39.001Z</time></trkpt><trkpt lat="45.93460033211312" lon="12.820299415037537"><ele>30.0</ele><time>2026-05-03T13:23:39.999Z</time></trkpt><trkpt lat="45.934678991508" lon="12.820496394306465"><ele>30.0</ele><time>2026-05-03T13:23:40.999Z</time></trkpt><trkpt lat="45.93474532007962" lon="12.820687350632458"><ele>30.0</ele><time>2026-05-03T13:23:41.999Z</time></trkpt><trkpt lat="45.93482106081981" lon="12.820871987130118"><ele>30.0</ele><time>2026-05-03T13:23:42.999Z</time></trkpt><trkpt lat="45.93490630101123" lon="12.82106040913343"><ele>30.0</ele><time>2026-05-03T13:23:43.999Z</time></trkpt><trkpt lat="45.934983915054595" lon="12.821243562989961"><ele>30.0</ele><time>2026-05-03T13:23:44.999Z</time></trkpt><trkpt lat="45.93505781208455" lon="12.821413040827649"><ele>30.0</ele><time>2026-05-03T13:23:45.999Z</time></trkpt><trkpt lat="45.935157092622866" lon="12.821571150079487"><ele>30.0</ele><time>2026-05-03T13:23:46.999Z</time></trkpt><trkpt lat="45.93525723570377" lon="12.821772037710259"><ele>30.0</ele><time>2026-05-03T13:23:47.999Z</time></trkpt><trkpt lat="45.93536190967898" lon="12.821944039026665"><ele>30.0</ele><time>2026-05-03T13:23:48.999Z</time></trkpt><trkpt lat="45.935451023225255" lon="12.822103350504067"><ele>30.0</ele><time>2026-05-03T13:23:49.999Z</time></trkpt><trkpt lat="45.93553793342536" lon="12.822257284067632"><ele>30.0</ele><time>2026-05-03T13:23:50.999Z</time></trkpt><trkpt lat="45.93563594762374" lon="12.822429574898926"><ele>30.0</ele><time>2026-05-03T13:23:51.999Z</time></trkpt><trkpt lat="45.935733323817985" lon="12.822584391331798"><ele>30.0</ele><time>2026-05-03T13:23:52.999Z</time></trkpt><trkpt lat="45.93582843104697" lon="12.822734359138035"><ele>30.0</ele><time>2026-05-03T13:23:53.999Z</time></trkpt><trkpt lat="45.935914183362975" lon="12.822871466049671"><ele>30.0</ele><time>2026-05-03T13:23:54.999Z</time></trkpt><trkpt lat="45.93600903502305" lon="12.823002339886592"><ele>30.0</ele><time>2026-05-03T13:23:55.999Z</time></trkpt><trkpt lat="45.936108522813086" lon="12.823135321955556"><ele>30.0</ele><time>2026-05-03T13:23:56.999Z</time></trkpt><trkpt lat="45.93621208174125" lon="12.823272173153917"><ele>30.0</ele><time>2026-05-03T13:23:57.999Z</time></trkpt><trkpt lat="45.93630786216217" lon="12.823413067858834"><ele>30.0</ele><time>2026-05-03T13:23:58.999Z</time></trkpt><trkpt lat="45.936412359741894" lon="12.823543899887252"><ele>30.0</ele><time>2026-05-03T13:23:59.999Z</time></trkpt><trkpt lat="45.93653360932907" lon="12.8236814302019"><ele>30.0</ele><time>2026-05-03T13:24:00.999Z</time></trkpt><trkpt lat="45.93663716852548" lon="12.82386467762392"><ele>30.0</ele><time>2026-05-03T13:24:01.999Z</time></trkpt><trkpt lat="45.93673336957868" lon="12.824018966763202"><ele>30.0</ele><time>2026-05-03T13:24:02.999Z</time></trkpt><trkpt lat="45.936857363731946" lon="12.824147936739315"><ele>30.0</ele><time>2026-05-03T13:24:03.999Z</time></trkpt><trkpt lat="45.93697304218701" lon="12.82430854196244"><ele>30.0</ele><time>2026-05-03T13:24:04.999Z</time></trkpt><trkpt lat="45.93704567826022" lon="12.824449937006545"><ele>30.0</ele><time>2026-05-03T13:24:05.999Z</time></trkpt><trkpt lat="45.9371280664187" lon="12.824605995143814"><ele>30.0</ele><time>2026-05-03T13:24:06.999Z</time></trkpt><trkpt lat="45.937210553880426" lon="12.824789887068084"><ele>30.0</ele><time>2026-05-03T13:24:07.999Z</time></trkpt><trkpt lat="45.93727826002407" lon="12.824939549138831"><ele>30.0</ele><time>2026-05-03T13:24:08.999Z</time></trkpt><trkpt lat="45.93732094751669" lon="12.825074429665703"><ele>30.0</ele><time>2026-05-03T13:24:11Z</time></trkpt><trkpt lat="45.93734028826363" lon="12.825200568890889"><ele>30.0</ele><time>2026-05-03T13:24:13Z</time></trkpt><trkpt lat="45.937236606219095" lon="12.825302778416697"><ele>30.0</ele><time>2026-05-03T13:24:15Z</time></trkpt><trkpt lat="45.93714207045171" lon="12.825352840885744"><ele>30.0</ele><time>2026-05-03T13:24:16Z</time></trkpt><trkpt lat="45.93704554925345" lon="12.825424105698554"><ele>30.0</ele><time>2026-05-03T13:24:17Z</time></trkpt><trkpt lat="45.93694501392668" lon="12.825520400862555"><ele>30.0</ele><time>2026-05-03T13:24:18Z</time></trkpt><trkpt lat="45.93684284428154" lon="12.825610467937738"><ele>30.0</ele><time>2026-05-03T13:24:19Z</time></trkpt><trkpt lat="45.93673482740948" lon="12.825699537634152"><ele>30.0</ele><time>2026-05-03T13:24:20Z</time></trkpt><trkpt lat="45.93662857442888" lon="12.825809032166354"><ele>30.0</ele><time>2026-05-03T13:24:21Z</time></trkpt><trkpt lat="45.936486466484084" lon="12.825923256667492"><ele>29.333333333333336</ele><time>2026-05-03T13:24:22Z</time></trkpt><trkpt lat="45.93635074956069" lon="12.826063741457714"><ele>28.666666666666668</ele><time>2026-05-03T13:24:23Z</time></trkpt><trkpt lat="45.93620146749944" lon="12.826208612012374"><ele>28.0</ele><time>2026-05-03T13:24:24Z</time></trkpt><trkpt lat="45.93605463306221" lon="12.826336612122244"><ele>28.0</ele><time>2026-05-03T13:24:25Z</time></trkpt><trkpt lat="45.93594051685747" lon="12.826458133930672"><ele>28.0</ele><time>2026-05-03T13:24:26Z</time></trkpt><trkpt lat="45.935830270304535" lon="12.826566666177742"><ele>28.0</ele><time>2026-05-03T13:24:27Z</time></trkpt><trkpt lat="45.93571691041489" lon="12.826663719887684"><ele>28.0</ele><time>2026-05-03T13:24:28Z</time></trkpt><trkpt lat="45.93561943346518" lon="12.82676248317431"><ele>28.4</ele><time>2026-05-03T13:24:29Z</time></trkpt><trkpt lat="45.935531654742675" lon="12.82685251025662"><ele>28.799999999999997</ele><time>2026-05-03T13:24:30Z</time></trkpt><trkpt lat="45.93545056328267" lon="12.82693059404285"><ele>29.2</ele><time>2026-05-03T13:24:31Z</time></trkpt><trkpt lat="45.935353992005744" lon="12.826991389239929"><ele>29.6</ele><time>2026-05-03T13:24:32Z</time></trkpt><trkpt lat="45.9352718869443" lon="12.827079687940241"><ele>30.0</ele><time>2026-05-03T13:24:33Z</time></trkpt><trkpt lat="45.93517925836785" lon="12.827184254908696"><ele>30.0</ele><time>2026-05-03T13:24:34Z</time></trkpt><trkpt lat="45.935118826164675" lon="12.827295885560757"><ele>30.0</ele><time>2026-05-03T13:24:35Z</time></trkpt><trkpt lat="45.93505417835182" lon="12.82742304740738"><ele>30.0</ele><time>2026-05-03T13:24:36Z</time></trkpt><trkpt lat="45.93499455745259" lon="12.827546416296995"><ele>30.0</ele><time>2026-05-03T13:24:37Z</time></trkpt><trkpt lat="45.93493002316092" lon="12.8276381895519"><ele>30.0</ele><time>2026-05-03T13:24:38Z</time></trkpt><trkpt lat="45.934866854971645" lon="12.827731566816066"><ele>30.0</ele><time>2026-05-03T13:24:39Z</time></trkpt><trkpt lat="45.93480274694702" lon="12.827807859746091"><ele>30.0</ele><time>2026-05-03T13:24:40Z</time></trkpt><trkpt lat="45.934731399360764" lon="12.827864475898291"><ele>30.0</ele><time>2026-05-03T13:24:41Z</time></trkpt><trkpt lat="45.93460785990353" lon="12.82786716034398"><ele>30.0</ele><time>2026-05-03T13:24:43Z</time></trkpt><trkpt lat="45.93454639265242" lon="12.82782490601703"><ele>30.0</ele><time>2026-05-03T13:24:44Z</time></trkpt><trkpt lat="45.93447804398593" lon="12.827758353880972"><ele>30.0</ele><time>2026-05-03T13:24:45Z</time></trkpt><trkpt lat="45.934416007700584" lon="12.827732954472847"><ele>30.0</ele><time>2026-05-03T13:24:46Z</time></trkpt><trkpt lat="45.934299212307046" lon="12.827790853083359"><ele>30.0</ele><time>2026-05-03T13:24:48Z</time></trkpt><trkpt lat="45.934252772966126" lon="12.827858928346954"><ele>30.0</ele><time>2026-05-03T13:24:49Z</time></trkpt><trkpt lat="45.934211040556285" lon="12.827935804180202"><ele>30.0</ele><time>2026-05-03T13:24:50Z</time></trkpt><trkpt lat="45.93417334049859" lon="12.828028233861586"><ele>30.0</ele><time>2026-05-03T13:24:51Z</time></trkpt><trkpt lat="45.93412245255814" lon="12.828124775137178"><ele>30.0</ele><time>2026-05-03T13:24:52Z</time></trkpt><trkpt lat="45.93405533565004" lon="12.82821467644599"><ele>30.0</ele><time>2026-05-03T13:24:53Z</time></trkpt><trkpt lat="45.933997005224306" lon="12.828287136953852"><ele>30.0</ele><time>2026-05-03T13:24:54Z</time></trkpt><trkpt lat="45.933935561929935" lon="12.828352783106089"><ele>30.0</ele><time>2026-05-03T13:24:55Z</time></trkpt><trkpt lat="45.933877365760026" lon="12.828421261933407"><ele>30.0</ele><time>2026-05-03T13:24:56Z</time></trkpt><trkpt lat="45.93381960502776" lon="12.828485270120254"><ele>30.0</ele><time>2026-05-03T13:24:57Z</time></trkpt><trkpt lat="45.933755391001675" lon="12.828537060852094"><ele>30.0</ele><time>2026-05-03T13:24:58Z</time></trkpt><trkpt lat="45.933680923913585" lon="12.828568724626514"><ele>30.0</ele><time>2026-05-03T13:24:59Z</time></trkpt><trkpt lat="45.933595954319095" lon="12.828569345535948"><ele>30.0</ele><time>2026-05-03T13:25:00Z</time></trkpt><trkpt lat="45.933499725002456" lon="12.828573091505595"><ele>30.0</ele><time>2026-05-03T13:25:01Z</time></trkpt><trkpt lat="45.9334232248288" lon="12.828547897808006"><ele>30.0</ele><time>2026-05-03T13:25:02.001Z</time></trkpt><trkpt lat="45.933354533004724" lon="12.82854391284366"><ele>30.0</ele><time>2026-05-03T13:25:03.001Z</time></trkpt><trkpt lat="45.933272408875226" lon="12.828554490256028"><ele>30.0</ele><time>2026-05-03T13:25:04.001Z</time></trkpt><trkpt lat="45.933197304858965" lon="12.828597822061125"><ele>29.8</ele><time>2026-05-03T13:25:05.001Z</time></trkpt><trkpt lat="45.93313039464279" lon="12.828687388136965"><ele>29.6</ele><time>2026-05-03T13:25:06.001Z</time></trkpt><trkpt lat="45.9330866644366" lon="12.828784679975149"><ele>29.4</ele><time>2026-05-03T13:25:07.001Z</time></trkpt><trkpt lat="45.93303027989391" lon="12.828871183619672"><ele>29.2</ele><time>2026-05-03T13:25:08.001Z</time></trkpt><trkpt lat="45.932971520026875" lon="12.828947253376876"><ele>29.0</ele><time>2026-05-03T13:25:09.001Z</time></trkpt><trkpt lat="45.93286560760664" lon="12.82905014421438"><ele>29.0</ele><time>2026-05-03T13:25:11.001Z</time></trkpt><trkpt lat="45.93286787603517" lon="12.829203192190656"><ele>29.0</ele><time>2026-05-03T13:25:13.001Z</time></trkpt><trkpt lat="45.93294076283496" lon="12.829377658299276"><ele>29.0</ele><time>2026-05-03T13:25:15.001Z</time></trkpt><trkpt lat="45.933019820009136" lon="12.829491241194381"><ele>29.0</ele><time>2026-05-03T13:25:16.001Z</time></trkpt><trkpt lat="45.93310658411116" lon="12.829622423923801"><ele>29.0</ele><time>2026-05-03T13:25:17.001Z</time></trkpt><trkpt lat="45.933192188509494" lon="12.829758892933206"><ele>29.0</ele><time>2026-05-03T13:25:18.001Z</time></trkpt><trkpt lat="45.93326817117998" lon="12.829878630356712"><ele>29.0</ele><time>2026-05-03T13:25:19.001Z</time></trkpt><trkpt lat="45.93333649917665" lon="12.829987348268252"><ele>29.0</ele><time>2026-05-03T13:25:20.001Z</time></trkpt><trkpt lat="45.93339840646419" lon="12.830105213862327"><ele>29.0</ele><time>2026-05-03T13:25:21.001Z</time></trkpt><trkpt lat="45.933460708716105" lon="12.830257693960435"><ele>29.0</ele><time>2026-05-03T13:25:22.001Z</time></trkpt><trkpt lat="45.93352857847625" lon="12.830405672310766"><ele>29.0</ele><time>2026-05-03T13:25:23.001Z</time></trkpt><trkpt lat="45.933600057198035" lon="12.830542038302962"><ele>29.0</ele><time>2026-05-03T13:25:24.001Z</time></trkpt><trkpt lat="45.9336793844232" lon="12.830699321788842"><ele>29.0</ele><time>2026-05-03T13:25:25.001Z</time></trkpt><trkpt lat="45.93375926103296" lon="12.830832394250063"><ele>29.0</ele><time>2026-05-03T13:25:26.001Z</time></trkpt><trkpt lat="45.933842792592756" lon="12.830958418193768"><ele>29.0</ele><time>2026-05-03T13:25:27.001Z</time></trkpt><trkpt lat="45.93393533326018" lon="12.831097970924692"><ele>29.0</ele><time>2026-05-03T13:25:28.001Z</time></trkpt><trkpt lat="45.93400551485949" lon="12.831213110412254"><ele>29.0</ele><time>2026-05-03T13:25:29.001Z</time></trkpt><trkpt lat="45.93408896727007" lon="12.831343356546938"><ele>29.0</ele><time>2026-05-03T13:25:30.001Z</time></trkpt><trkpt lat="45.93415607807647" lon="12.831442242065899"><ele>29.0</ele><time>2026-05-03T13:25:31.001Z</time></trkpt><trkpt lat="45.93421842947459" lon="12.831530822866704"><ele>29.0</ele><time>2026-05-03T13:25:32.001Z</time></trkpt><trkpt lat="45.93428991268521" lon="12.831634837483605"><ele>29.0</ele><time>2026-05-03T13:25:33.001Z</time></trkpt><trkpt lat="45.93437144179244" lon="12.831749938055653"><ele>29.0</ele><time>2026-05-03T13:25:34.001Z</time></trkpt><trkpt lat="45.93446063326176" lon="12.831874003558667"><ele>30.0</ele><time>2026-05-03T13:25:35.001Z</time></trkpt><trkpt lat="45.934550794556266" lon="12.831995391147478"><ele>31.0</ele><time>2026-05-03T13:25:36.001Z</time></trkpt><trkpt lat="45.93464364775297" lon="12.832126800293079"><ele>32.0</ele><time>2026-05-03T13:25:37.001Z</time></trkpt><trkpt lat="45.934730899446215" lon="12.8322629702729"><ele>33.0</ele><time>2026-05-03T13:25:38.001Z</time></trkpt><trkpt lat="45.93482326661644" lon="12.832402967389527"><ele>33.0</ele><time>2026-05-03T13:25:39.001Z</time></trkpt><trkpt lat="45.934914959960835" lon="12.832536560558225"><ele>33.0</ele><time>2026-05-03T13:25:40.001Z</time></trkpt><trkpt lat="45.935008337999896" lon="12.832684227422334"><ele>33.0</ele><time>2026-05-03T13:25:41.001Z</time></trkpt><trkpt lat="45.93509915767742" lon="12.832822843616778"><ele>33.0</ele><time>2026-05-03T13:25:42.001Z</time></trkpt><trkpt lat="45.93519603898589" lon="12.832981895155177"><ele>33.0</ele><time>2026-05-03T13:25:43.001Z</time></trkpt><trkpt lat="45.93528789721445" lon="12.833152315781044"><ele>33.0</ele><time>2026-05-03T13:25:44.001Z</time></trkpt><trkpt lat="45.93534727647184" lon="12.833288307853575"><ele>33.0</ele><time>2026-05-03T13:25:44.998Z</time></trkpt><trkpt lat="45.935434568749" lon="12.833444042015223"><ele>33.0</ele><time>2026-05-03T13:25:45.998Z</time></trkpt><trkpt lat="45.935516796445526" lon="12.833592668430398"><ele>33.0</ele><time>2026-05-03T13:25:46.998Z</time></trkpt><trkpt lat="45.9356033734228" lon="12.833780891780936"><ele>33.0</ele><time>2026-05-03T13:25:47.998Z</time></trkpt><trkpt lat="45.93569716691986" lon="12.833950180218517"><ele>33.0</ele><time>2026-05-03T13:25:48.998Z</time></trkpt><trkpt lat="45.93577961152354" lon="12.834114870392838"><ele>33.0</ele><time>2026-05-03T13:25:49.999Z</time></trkpt><trkpt lat="45.93584947005908" lon="12.834280209146906"><ele>33.199999999999996</ele><time>2026-05-03T13:25:50.999Z</time></trkpt><trkpt lat="45.93590209832279" lon="12.834447998404542"><ele>33.4</ele><time>2026-05-03T13:25:51.999Z</time></trkpt><trkpt lat="45.935938202924085" lon="12.834611070670118"><ele>33.599999999999994</ele><time>2026-05-03T13:25:52.999Z</time></trkpt><trkpt lat="45.93596652783996" lon="12.83475907963867"><ele>33.8</ele><time>2026-05-03T13:25:53.999Z</time></trkpt><trkpt lat="45.93597704608397" lon="12.834894436822593"><ele>34.0</ele><time>2026-05-03T13:25:54.999Z</time></trkpt><trkpt lat="45.93599779260224" lon="12.835036197456667"><ele>34.25</ele><time>2026-05-03T13:25:55.999Z</time></trkpt><trkpt lat="45.93603054760726" lon="12.835194391615737"><ele>34.5</ele><time>2026-05-03T13:25:56.999Z</time></trkpt><trkpt lat="45.93607098740456" lon="12.83536354007385"><ele>34.75</ele><time>2026-05-03T13:25:57.999Z</time></trkpt><trkpt lat="45.93612066560746" lon="12.835548134120193"><ele>35.0</ele><time>2026-05-03T13:25:58.999Z</time></trkpt><trkpt lat="45.93618473909221" lon="12.83574930233548"><ele>35.0</ele><time>2026-05-03T13:25:59.999Z</time></trkpt><trkpt lat="45.93623738504453" lon="12.835950000917816"><ele>35.0</ele><time>2026-05-03T13:26:00.999Z</time></trkpt><trkpt lat="45.93630411229608" lon="12.836149902534848"><ele>35.0</ele><time>2026-05-03T13:26:01.999Z</time></trkpt><trkpt lat="45.9363800736894" lon="12.83635090300757"><ele>34.666666666666664</ele><time>2026-05-03T13:26:02.999Z</time></trkpt><trkpt lat="45.9364689714204" lon="12.836555793219054"><ele>34.333333333333336</ele><time>2026-05-03T13:26:03.999Z</time></trkpt><trkpt lat="45.93656661468575" lon="12.836748663233205"><ele>34.0</ele><time>2026-05-03T13:26:04.999Z</time></trkpt><trkpt lat="45.93664725211086" lon="12.836922000657594"><ele>33.75</ele><time>2026-05-03T13:26:05.999Z</time></trkpt><trkpt lat="45.93672971100174" lon="12.837071123100381"><ele>33.5</ele><time>2026-05-03T13:26:06.999Z</time></trkpt><trkpt lat="45.93681319052462" lon="12.837223793689148"><ele>33.25</ele><time>2026-05-03T13:26:07.999Z</time></trkpt><trkpt lat="45.93690294647634" lon="12.837369398553394"><ele>33.0</ele><time>2026-05-03T13:26:08.999Z</time></trkpt><trkpt lat="45.93698413895759" lon="12.837491784162621"><ele>33.0</ele><time>2026-05-03T13:26:09.999Z</time></trkpt><trkpt lat="45.93707768527091" lon="12.837610733926855"><ele>33.0</ele><time>2026-05-03T13:26:10.999Z</time></trkpt><trkpt lat="45.937171001268574" lon="12.837764198070026"><ele>33.0</ele><time>2026-05-03T13:26:11.999Z</time></trkpt><trkpt lat="45.93726686938974" lon="12.837925250874227"><ele>33.0</ele><time>2026-05-03T13:26:12.999Z</time></trkpt><trkpt lat="45.93736923942027" lon="12.838069398757023"><ele>33.0</ele><time>2026-05-03T13:26:14Z</time></trkpt><trkpt lat="45.9374573993342" lon="12.83820308872573"><ele>33.0</ele><time>2026-05-03T13:26:15Z</time></trkpt><trkpt lat="45.93752841379132" lon="12.838331662139018"><ele>33.0</ele><time>2026-05-03T13:26:16Z</time></trkpt><trkpt lat="45.937596299201736" lon="12.838462621839899"><ele>33.0</ele><time>2026-05-03T13:26:17Z</time></trkpt><trkpt lat="45.93767344493284" lon="12.83860590241449"><ele>33.0</ele><time>2026-05-03T13:26:18Z</time></trkpt><trkpt lat="45.93777021296845" lon="12.838760338890486"><ele>33.0</ele><time>2026-05-03T13:26:19Z</time></trkpt><trkpt lat="45.93786908470024" lon="12.83892512440338"><ele>33.0</ele><time>2026-05-03T13:26:20Z</time></trkpt><trkpt lat="45.937963936524376" lon="12.839095597221275"><ele>33.0</ele><time>2026-05-03T13:26:21Z</time></trkpt><trkpt lat="45.93801446987701" lon="12.839266679076687"><ele>33.199999999999996</ele><time>2026-05-03T13:26:22Z</time></trkpt><trkpt lat="45.9380656970328" lon="12.839430522025248"><ele>33.4</ele><time>2026-05-03T13:26:23Z</time></trkpt><trkpt lat="45.93811762016901" lon="12.839581565175452"><ele>33.599999999999994</ele><time>2026-05-03T13:26:24Z</time></trkpt><trkpt lat="45.93816511776105" lon="12.8397176521657"><ele>33.8</ele><time>2026-05-03T13:26:25Z</time></trkpt><trkpt lat="45.938209647008144" lon="12.83983489821662"><ele>34.0</ele><time>2026-05-03T13:26:26Z</time></trkpt><trkpt lat="45.938250037568665" lon="12.839933456008067"><ele>34.0</ele><time>2026-05-03T13:26:27Z</time></trkpt><trkpt lat="45.9382901484033" lon="12.840018128859034"><ele>34.0</ele><time>2026-05-03T13:26:28Z</time></trkpt><trkpt lat="45.938330636004984" lon="12.840090071599707"><ele>34.0</ele><time>2026-05-03T13:26:29Z</time></trkpt><trkpt lat="45.93838895619051" lon="12.840194892524865"><ele>34.0</ele><time>2026-05-03T13:26:31Z</time></trkpt><trkpt lat="45.93843471814502" lon="12.840299171841801"><ele>34.0</ele><time>2026-05-03T13:26:53Z</time></trkpt><trkpt lat="45.93856202865289" lon="12.840245709710569"><ele>34.0</ele><time>2026-05-03T13:26:55.001Z</time></trkpt><trkpt lat="45.93865085827164" lon="12.84020921432085"><ele>34.0</ele><time>2026-05-03T13:26:56.001Z</time></trkpt><trkpt lat="45.93873365358016" lon="12.84017835718035"><ele>34.0</ele><time>2026-05-03T13:26:57.001Z</time></trkpt><trkpt lat="45.938804954815076" lon="12.840131611978022"><ele>34.0</ele><time>2026-05-03T13:26:59.001Z</time></trkpt><trkpt lat="45.93883198973667" lon="12.840219296504955"><ele>34.0</ele><time>2026-05-03T13:27:01.001Z</time></trkpt><trkpt lat="45.93884802399564" lon="12.840317206123022"><ele>34.0</ele><time>2026-05-03T13:27:02.001Z</time></trkpt><trkpt lat="45.938862961051136" lon="12.84044043085585"><ele>34.0</ele><time>2026-05-03T13:27:03.001Z</time></trkpt><trkpt lat="45.938872249680195" lon="12.840579718060958"><ele>34.0</ele><time>2026-05-03T13:27:04.001Z</time></trkpt><trkpt lat="45.93889858815973" lon="12.840729062829102"><ele>34.0</ele><time>2026-05-03T13:27:05.001Z</time></trkpt><trkpt lat="45.938920632482144" lon="12.840875558293844"><ele>34.0</ele><time>2026-05-03T13:27:06.001Z</time></trkpt><trkpt lat="45.93894229969777" lon="12.841026122775494"><ele>34.0</ele><time>2026-05-03T13:27:07.001Z</time></trkpt><trkpt lat="45.93898510093673" lon="12.841163495594753"><ele>34.0</ele><time>2026-05-03T13:27:08.001Z</time></trkpt><trkpt lat="45.939065837827926" lon="12.84127046970629"><ele>33.75</ele><time>2026-05-03T13:27:09.001Z</time></trkpt><trkpt lat="45.93915953330862" lon="12.841364575688214"><ele>33.5</ele><time>2026-05-03T13:27:10.001Z</time></trkpt><trkpt lat="45.93925427286706" lon="12.84145415116896"><ele>33.25</ele><time>2026-05-03T13:27:11.001Z</time></trkpt><trkpt lat="45.93935371909339" lon="12.841551931553948"><ele>33.0</ele><time>2026-05-03T13:27:12.001Z</time></trkpt><trkpt lat="45.93944397658964" lon="12.841669160051898"><ele>33.0</ele><time>2026-05-03T13:27:13.001Z</time></trkpt><trkpt lat="45.93952743831518" lon="12.841772210817824"><ele>33.0</ele><time>2026-05-03T13:27:14.001Z</time></trkpt><trkpt lat="45.93960273927512" lon="12.841842617385053"><ele>33.0</ele><time>2026-05-03T13:27:15.001Z</time></trkpt><trkpt lat="45.939661400846134" lon="12.841920167502156"><ele>33.0</ele><time>2026-05-03T13:27:16.001Z</time></trkpt><trkpt lat="45.93971662272065" lon="12.842058003743423"><ele>33.0</ele><time>2026-05-03T13:27:18.001Z</time></trkpt><trkpt lat="45.939687710304106" lon="12.842151201157675"><ele>32.75</ele><time>2026-05-03T13:27:19.001Z</time></trkpt><trkpt lat="45.939630963027874" lon="12.842256062828604"><ele>32.5</ele><time>2026-05-03T13:27:20.001Z</time></trkpt><trkpt lat="45.939546262546095" lon="12.842365865679835"><ele>32.25</ele><time>2026-05-03T13:27:21.001Z</time></trkpt><trkpt lat="45.93946015482115" lon="12.84250143395118"><ele>32.0</ele><time>2026-05-03T13:27:22.001Z</time></trkpt><trkpt lat="45.93937472027832" lon="12.842644398996779"><ele>32.25</ele><time>2026-05-03T13:27:23.001Z</time></trkpt><trkpt lat="45.939280555052015" lon="12.842783303056347"><ele>32.5</ele><time>2026-05-03T13:27:24.001Z</time></trkpt><trkpt lat="45.93918805503072" lon="12.842937754709865"><ele>32.75</ele><time>2026-05-03T13:27:25.001Z</time></trkpt><trkpt lat="45.939091400021844" lon="12.843075523487904"><ele>33.0</ele><time>2026-05-03T13:27:26.001Z</time></trkpt><trkpt lat="45.93901818812216" lon="12.843234155458651"><ele>33.0</ele><time>2026-05-03T13:27:27.001Z</time></trkpt><trkpt lat="45.93893559855483" lon="12.843386539567343"><ele>33.0</ele><time>2026-05-03T13:27:28.001Z</time></trkpt><trkpt lat="45.93886243134542" lon="12.843551162299498"><ele>33.0</ele><time>2026-05-03T13:27:29.001Z</time></trkpt><trkpt lat="45.938796555341824" lon="12.843714893016463"><ele>33.0</ele><time>2026-05-03T13:27:30.001Z</time></trkpt><trkpt lat="45.93875139774301" lon="12.843900620065535"><ele>33.5</ele><time>2026-05-03T13:27:31.001Z</time></trkpt><trkpt lat="45.93872470097794" lon="12.84410087754911"><ele>34.0</ele><time>2026-05-03T13:27:32.001Z</time></trkpt><trkpt lat="45.93868991624193" lon="12.844294525988062"><ele>34.5</ele><time>2026-05-03T13:27:33.001Z</time></trkpt><trkpt lat="45.938649526591384" lon="12.844483170281924"><ele>35.0</ele><time>2026-05-03T13:27:34.001Z</time></trkpt><trkpt lat="45.9386139450062" lon="12.84466078229286"><ele>35.25</ele><time>2026-05-03T13:27:35.001Z</time></trkpt><trkpt lat="45.938567452385136" lon="12.844818791289658"><ele>35.5</ele><time>2026-05-03T13:27:36.001Z</time></trkpt><trkpt lat="45.93849229732638" lon="12.844969054658469"><ele>35.75</ele><time>2026-05-03T13:27:37.001Z</time></trkpt><trkpt lat="45.93838942489619" lon="12.845114038203201"><ele>36.0</ele><time>2026-05-03T13:27:38.001Z</time></trkpt><trkpt lat="45.938276799358356" lon="12.845246356970696"><ele>35.333333333333336</ele><time>2026-05-03T13:27:39.001Z</time></trkpt><trkpt lat="45.93815606143876" lon="12.845391215154496"><ele>34.66666666666667</ele><time>2026-05-03T13:27:40.001Z</time></trkpt><trkpt lat="45.938033778915944" lon="12.845519317126378"><ele>34.0</ele><time>2026-05-03T13:27:41.001Z</time></trkpt><trkpt lat="45.93790897816435" lon="12.84562879166756"><ele>34.0</ele><time>2026-05-03T13:27:42.001Z</time></trkpt><trkpt lat="45.93778137716784" lon="12.84572435800895"><ele>34.0</ele><time>2026-05-03T13:27:43.001Z</time></trkpt><trkpt lat="45.93764241253581" lon="12.845817776156697"><ele>34.0</ele><time>2026-05-03T13:27:44.001Z</time></trkpt><trkpt lat="45.93750467978048" lon="12.84591236427181"><ele>34.0</ele><time>2026-05-03T13:27:45.001Z</time></trkpt><trkpt lat="45.937358381695745" lon="12.846003025183995"><ele>34.0</ele><time>2026-05-03T13:27:46.002Z</time></trkpt><trkpt lat="45.937208844772094" lon="12.846081678477509"><ele>34.0</ele><time>2026-05-03T13:27:47.002Z</time></trkpt><trkpt lat="45.93705563912148" lon="12.846153312015815"><ele>34.0</ele><time>2026-05-03T13:27:48.002Z</time></trkpt><trkpt lat="45.936906531439405" lon="12.846223913394118"><ele>34.0</ele><time>2026-05-03T13:27:49.002Z</time></trkpt><trkpt lat="45.93675941984804" lon="12.846292904815476"><ele>34.0</ele><time>2026-05-03T13:27:50.002Z</time></trkpt><trkpt lat="45.93660134231269" lon="12.846365811972298"><ele>33.66666666666667</ele><time>2026-05-03T13:27:50.999Z</time></trkpt><trkpt lat="45.93642669523106" lon="12.846450693054617"><ele>33.333333333333336</ele><time>2026-05-03T13:27:51.999Z</time></trkpt><trkpt lat="45.93626400969094" lon="12.84653048383276"><ele>33.0</ele><time>2026-05-03T13:27:52.999Z</time></trkpt><trkpt lat="45.93611379272126" lon="12.846600636627207"><ele>33.0</ele><time>2026-05-03T13:27:53.999Z</time></trkpt><trkpt lat="45.935972750086854" lon="12.84667733668252"><ele>33.0</ele><time>2026-05-03T13:27:54.999Z</time></trkpt><trkpt lat="45.93582696264773" lon="12.846744978622125"><ele>33.0</ele><time>2026-05-03T13:27:55.999Z</time></trkpt><trkpt lat="45.93567748113196" lon="12.846816818025292"><ele>33.0</ele><time>2026-05-03T13:27:56.999Z</time></trkpt><trkpt lat="45.93553338817043" lon="12.846888050035075"><ele>33.0</ele><time>2026-05-03T13:27:57.999Z</time></trkpt><trkpt lat="45.935386816873795" lon="12.84696312423102"><ele>33.0</ele><time>2026-05-03T13:27:58.999Z</time></trkpt><trkpt lat="45.935240122825064" lon="12.847043155003506"><ele>33.0</ele><time>2026-05-03T13:27:59.999Z</time></trkpt><trkpt lat="45.935112122291905" lon="12.84714291631213"><ele>33.0</ele><time>2026-05-03T13:28:00.999Z</time></trkpt><trkpt lat="45.93498224369229" lon="12.847257566801696"><ele>33.0</ele><time>2026-05-03T13:28:01.999Z</time></trkpt><trkpt lat="45.934849979467785" lon="12.847377400632498"><ele>33.0</ele><time>2026-05-03T13:28:02.999Z</time></trkpt><trkpt lat="45.93472286737764" lon="12.84750086182363"><ele>33.0</ele><time>2026-05-03T13:28:03.999Z</time></trkpt><trkpt lat="45.934600695321144" lon="12.847621520298622"><ele>33.0</ele><time>2026-05-03T13:28:04.999Z</time></trkpt><trkpt lat="45.93448741457269" lon="12.847731487610929"><ele>33.0</ele><time>2026-05-03T13:28:05.999Z</time></trkpt><trkpt lat="45.934378611571006" lon="12.84783447089954"><ele>33.0</ele><time>2026-05-03T13:28:06.999Z</time></trkpt><trkpt lat="45.934270298819236" lon="12.84793902790435"><ele>33.0</ele><time>2026-05-03T13:28:07.999Z</time></trkpt><trkpt lat="45.93416346574975" lon="12.848040332153198"><ele>33.0</ele><time>2026-05-03T13:28:08.999Z</time></trkpt><trkpt lat="45.93405011146847" lon="12.8481255013745"><ele>33.0</ele><time>2026-05-03T13:28:09.999Z</time></trkpt><trkpt lat="45.93393061058045" lon="12.848177069230717"><ele>33.0</ele><time>2026-05-03T13:28:10.999Z</time></trkpt><trkpt lat="45.933801095764856" lon="12.848210749296811"><ele>33.0</ele><time>2026-05-03T13:28:11.999Z</time></trkpt><trkpt lat="45.93366255521429" lon="12.848254783995351"><ele>33.0</ele><time>2026-05-03T13:28:12.999Z</time></trkpt><trkpt lat="45.9335309341306" lon="12.848281420831539"><ele>33.0</ele><time>2026-05-03T13:28:13.999Z</time></trkpt><trkpt lat="45.9334140840931" lon="12.848293768986844"><ele>33.0</ele><time>2026-05-03T13:28:14.999Z</time></trkpt><trkpt lat="45.933310878196885" lon="12.848310197114296"><ele>33.0</ele><time>2026-05-03T13:28:15.999Z</time></trkpt><trkpt lat="45.93321151428282" lon="12.848325065026133"><ele>33.0</ele><time>2026-05-03T13:28:16.999Z</time></trkpt><trkpt lat="45.933121263239705" lon="12.848332594463042"><ele>33.0</ele><time>2026-05-03T13:28:18Z</time></trkpt><trkpt lat="45.933048021781886" lon="12.84834783866342"><ele>33.0</ele><time>2026-05-03T13:28:19Z</time></trkpt><trkpt lat="45.932979518381686" lon="12.848356118443014"><ele>33.0</ele><time>2026-05-03T13:28:20Z</time></trkpt><trkpt lat="45.93288061398078" lon="12.848348438894082"><ele>33.0</ele><time>2026-05-03T13:28:22Z</time></trkpt><trkpt lat="45.93284233710781" lon="12.848446485996861"><ele>33.0</ele><time>2026-05-03T13:28:24Z</time></trkpt><trkpt lat="45.93284577641113" lon="12.84854878504629"><ele>33.0</ele><time>2026-05-03T13:28:25Z</time></trkpt><trkpt lat="45.932866165331326" lon="12.848671411604093"><ele>33.0</ele><time>2026-05-03T13:28:26Z</time></trkpt><trkpt lat="45.93289798949065" lon="12.848811010813437"><ele>33.0</ele><time>2026-05-03T13:28:27Z</time></trkpt><trkpt lat="45.93291300598676" lon="12.848970775518026"><ele>32.75</ele><time>2026-05-03T13:28:28Z</time></trkpt><trkpt lat="45.93289752333351" lon="12.84915219630933"><ele>32.5</ele><time>2026-05-03T13:28:29Z</time></trkpt><trkpt lat="45.932879472901575" lon="12.8493504107713"><ele>32.25</ele><time>2026-05-03T13:28:30Z</time></trkpt><trkpt lat="45.93287548579952" lon="12.849549810382909"><ele>32.0</ele><time>2026-05-03T13:28:31Z</time></trkpt><trkpt lat="45.93288505814278" lon="12.849731917473102"><ele>32.0</ele><time>2026-05-03T13:28:32Z</time></trkpt><trkpt lat="45.93290488293505" lon="12.849922994088907"><ele>32.0</ele><time>2026-05-03T13:28:33Z</time></trkpt><trkpt lat="45.93293287536164" lon="12.850111615065742"><ele>32.0</ele><time>2026-05-03T13:28:34Z</time></trkpt><trkpt lat="45.93296448173612" lon="12.850297026374657"><ele>32.0</ele><time>2026-05-03T13:28:35Z</time></trkpt><trkpt lat="45.9330062709635" lon="12.850478390805982"><ele>32.5</ele><time>2026-05-03T13:28:36Z</time></trkpt><trkpt lat="45.93305852882387" lon="12.850665454332114"><ele>33.0</ele><time>2026-05-03T13:28:37Z</time></trkpt><trkpt lat="45.933114817935" lon="12.85085987945599"><ele>33.5</ele><time>2026-05-03T13:28:38Z</time></trkpt><trkpt lat="45.93318272654895" lon="12.851056035478424"><ele>34.0</ele><time>2026-05-03T13:28:39Z</time></trkpt><trkpt lat="45.9332484457953" lon="12.851240872340309"><ele>34.0</ele><time>2026-05-03T13:28:40Z</time></trkpt><trkpt lat="45.93330404061558" lon="12.851398528496173"><ele>34.0</ele><time>2026-05-03T13:28:41Z</time></trkpt><trkpt lat="45.93334555719009" lon="12.85155549078639"><ele>34.0</ele><time>2026-05-03T13:28:42Z</time></trkpt><trkpt lat="45.933363988543064" lon="12.851720282646834"><ele>34.0</ele><time>2026-05-03T13:28:43Z</time></trkpt><trkpt lat="45.93336256569779" lon="12.85189847702201"><ele>33.75</ele><time>2026-05-03T13:28:44Z</time></trkpt><trkpt lat="45.933341494872835" lon="12.852092648881193"><ele>33.5</ele><time>2026-05-03T13:28:45Z</time></trkpt><trkpt lat="45.93331129326033" lon="12.85229072603793"><ele>33.25</ele><time>2026-05-03T13:28:46Z</time></trkpt><trkpt lat="45.933271763547666" lon="12.852473760665054"><ele>33.0</ele><time>2026-05-03T13:28:47Z</time></trkpt><trkpt lat="45.93323476068587" lon="12.852641216383995"><ele>33.5</ele><time>2026-05-03T13:28:48Z</time></trkpt><trkpt lat="45.9332170326672" lon="12.852827087569109"><ele>34.0</ele><time>2026-05-03T13:28:49Z</time></trkpt><trkpt lat="45.93321877597277" lon="12.853017734116914"><ele>34.5</ele><time>2026-05-03T13:28:50Z</time></trkpt><trkpt lat="45.9332330124349" lon="12.853220463824178"><ele>35.0</ele><time>2026-05-03T13:28:51Z</time></trkpt><trkpt lat="45.933260625694125" lon="12.853428958787596"><ele>34.75</ele><time>2026-05-03T13:28:52Z</time></trkpt><trkpt lat="45.93329776278245" lon="12.853621525927094"><ele>34.5</ele><time>2026-05-03T13:28:53.001Z</time></trkpt><trkpt lat="45.93335439081496" lon="12.853796325740097"><ele>34.25</ele><time>2026-05-03T13:28:54.001Z</time></trkpt><trkpt lat="45.93341808368402" lon="12.853980096833327"><ele>34.0</ele><time>2026-05-03T13:28:55.001Z</time></trkpt><trkpt lat="45.93348147199532" lon="12.854156908540503"><ele>33.5</ele><time>2026-05-03T13:28:56.001Z</time></trkpt><trkpt lat="45.933550523502234" lon="12.854332528956895"><ele>33.0</ele><time>2026-05-03T13:28:57.001Z</time></trkpt><trkpt lat="45.933620325072475" lon="12.854500767174416"><ele>32.5</ele><time>2026-05-03T13:28:58.001Z</time></trkpt><trkpt lat="45.93369485886387" lon="12.854655207944203"><ele>32.0</ele><time>2026-05-03T13:28:59.001Z</time></trkpt><trkpt lat="45.93378301224259" lon="12.85480184921449"><ele>32.0</ele><time>2026-05-03T13:29:00.001Z</time></trkpt><trkpt lat="45.93387734047622" lon="12.854939620046684"><ele>32.0</ele><time>2026-05-03T13:29:01.001Z</time></trkpt><trkpt lat="45.93398047782936" lon="12.855083155493597"><ele>32.0</ele><time>2026-05-03T13:29:02.001Z</time></trkpt><trkpt lat="45.93408404251389" lon="12.855255037184996"><ele>32.0</ele><time>2026-05-03T13:29:03.001Z</time></trkpt><trkpt lat="45.93418523250379" lon="12.855461934826657"><ele>32.0</ele><time>2026-05-03T13:29:04.001Z</time></trkpt><trkpt lat="45.934275044987565" lon="12.85567923239889"><ele>32.0</ele><time>2026-05-03T13:29:05.001Z</time></trkpt><trkpt lat="45.93435750438868" lon="12.855895355178113"><ele>32.0</ele><time>2026-05-03T13:29:06.001Z</time></trkpt><trkpt lat="45.93444187009567" lon="12.85609670353736"><ele>32.0</ele><time>2026-05-03T13:29:07.001Z</time></trkpt><trkpt lat="45.93452825827923" lon="12.856302207210964"><ele>32.0</ele><time>2026-05-03T13:29:08.001Z</time></trkpt><trkpt lat="45.93461122218939" lon="12.856498849007536"><ele>32.0</ele><time>2026-05-03T13:29:09.001Z</time></trkpt><trkpt lat="45.934691615461404" lon="12.856689528356647"><ele>32.0</ele><time>2026-05-03T13:29:10.001Z</time></trkpt><trkpt lat="45.934773779157574" lon="12.856881584941013"><ele>32.0</ele><time>2026-05-03T13:29:11.001Z</time></trkpt><trkpt lat="45.93485558221" lon="12.857074444437858"><ele>32.0</ele><time>2026-05-03T13:29:12.001Z</time></trkpt><trkpt lat="45.934938790145395" lon="12.857270447990285"><ele>32.0</ele><time>2026-05-03T13:29:13.001Z</time></trkpt><trkpt lat="45.93501883937137" lon="12.857458894985164"><ele>32.0</ele><time>2026-05-03T13:29:14.001Z</time></trkpt><trkpt lat="45.93509726137857" lon="12.857648174949109"><ele>32.0</ele><time>2026-05-03T13:29:15.001Z</time></trkpt><trkpt lat="45.935174883230715" lon="12.857835409565569"><ele>32.5</ele><time>2026-05-03T13:29:16.001Z</time></trkpt><trkpt lat="45.93524532148838" lon="12.857998619748829"><ele>33.0</ele><time>2026-05-03T13:29:17.001Z</time></trkpt><trkpt lat="45.935312958464216" lon="12.85815353120459"><ele>33.5</ele><time>2026-05-03T13:29:18.001Z</time></trkpt><trkpt lat="45.93537267543324" lon="12.858295556037309"><ele>34.0</ele><time>2026-05-03T13:29:19.001Z</time></trkpt><trkpt lat="45.93542642834088" lon="12.858423890185096"><ele>34.0</ele><time>2026-05-03T13:29:20.001Z</time></trkpt><trkpt lat="45.93547789934186" lon="12.858542598320986"><ele>34.0</ele><time>2026-05-03T13:29:21.001Z</time></trkpt><trkpt lat="45.935537450348654" lon="12.85864131471012"><ele>34.0</ele><time>2026-05-03T13:29:22.001Z</time></trkpt><trkpt lat="45.935614241896666" lon="12.858714380637231"><ele>34.0</ele><time>2026-05-03T13:29:23.001Z</time></trkpt><trkpt lat="45.93571747366627" lon="12.858759390060403"><ele>34.0</ele><time>2026-05-03T13:29:24.001Z</time></trkpt><trkpt lat="45.93583738628272" lon="12.85877722792002"><ele>34.5</ele><time>2026-05-03T13:29:25.001Z</time></trkpt><trkpt lat="45.93596891587108" lon="12.858784038936907"><ele>35.0</ele><time>2026-05-03T13:29:26.001Z</time></trkpt><trkpt lat="45.936110700557556" lon="12.85878783233711"><ele>35.5</ele><time>2026-05-03T13:29:27.001Z</time></trkpt><trkpt lat="45.936267957519895" lon="12.858796680419296"><ele>36.0</ele><time>2026-05-03T13:29:28.001Z</time></trkpt><trkpt lat="45.93642170951248" lon="12.858805955750606"><ele>36.0</ele><time>2026-05-03T13:29:29.001Z</time></trkpt><trkpt lat="45.93656339577183" lon="12.858816920416496"><ele>36.0</ele><time>2026-05-03T13:29:30.001Z</time></trkpt><trkpt lat="45.93670704513389" lon="12.858826535885918"><ele>36.0</ele><time>2026-05-03T13:29:31.001Z</time></trkpt><trkpt lat="45.93685404679267" lon="12.858845739353452"><ele>36.0</ele><time>2026-05-03T13:29:32.001Z</time></trkpt><trkpt lat="45.93700868744235" lon="12.85886884124077"><ele>36.333333333333336</ele><time>2026-05-03T13:29:33.001Z</time></trkpt><trkpt lat="45.93717244037653" lon="12.858893942217152"><ele>36.66666666666667</ele><time>2026-05-03T13:29:34.001Z</time></trkpt><trkpt lat="45.93734768593767" lon="12.858934967887087"><ele>37.0</ele><time>2026-05-03T13:29:35.001Z</time></trkpt><trkpt lat="45.93753016288899" lon="12.858974202492927"><ele>36.0</ele><time>2026-05-03T13:29:36.002Z</time></trkpt><trkpt lat="45.93769790214697" lon="12.859023864809526"><ele>35.0</ele><time>2026-05-03T13:29:37.002Z</time></trkpt><trkpt lat="45.93784493834919" lon="12.859062574447256"><ele>34.0</ele><time>2026-05-03T13:29:38.002Z</time></trkpt><trkpt lat="45.9379834890815" lon="12.859096724174943"><ele>34.0</ele><time>2026-05-03T13:29:39.002Z</time></trkpt><trkpt lat="45.938114286642815" lon="12.859131004180755"><ele>34.0</ele><time>2026-05-03T13:29:40.002Z</time></trkpt><trkpt lat="45.9382354830309" lon="12.859167434797202"><ele>34.0</ele><time>2026-05-03T13:29:41.002Z</time></trkpt><trkpt lat="45.93834782607193" lon="12.85922645616533"><ele>34.0</ele><time>2026-05-03T13:29:42.002Z</time></trkpt><trkpt lat="45.93845952532262" lon="12.859319561772562"><ele>33.66666666666667</ele><time>2026-05-03T13:29:43.002Z</time></trkpt><trkpt lat="45.938584270270354" lon="12.859451325609342"><ele>33.333333333333336</ele><time>2026-05-03T13:29:44.002Z</time></trkpt><trkpt lat="45.93871339035977" lon="12.85961297800773"><ele>33.0</ele><time>2026-05-03T13:29:45.002Z</time></trkpt><trkpt lat="45.93883298911435" lon="12.859760100620022"><ele>33.0</ele><time>2026-05-03T13:29:46.002Z</time></trkpt><trkpt lat="45.938937917858475" lon="12.859900328066297"><ele>33.0</ele><time>2026-05-03T13:29:47.002Z</time></trkpt><trkpt lat="45.939045553662275" lon="12.860067898825738"><ele>33.0</ele><time>2026-05-03T13:29:48.002Z</time></trkpt><trkpt lat="45.93913690600216" lon="12.86023320360684"><ele>33.0</ele><time>2026-05-03T13:29:49.002Z</time></trkpt><trkpt lat="45.93922128395857" lon="12.860380209458345"><ele>33.25</ele><time>2026-05-03T13:29:50.002Z</time></trkpt><trkpt lat="45.939298792843154" lon="12.860517386532992"><ele>33.5</ele><time>2026-05-03T13:29:51.002Z</time></trkpt><trkpt lat="45.93937940318494" lon="12.86063554288703"><ele>33.75</ele><time>2026-05-03T13:29:52.002Z</time></trkpt><trkpt lat="45.939466655746415" lon="12.86071669985668"><ele>34.0</ele><time>2026-05-03T13:29:53.002Z</time></trkpt><trkpt lat="45.93956774719764" lon="12.860781669344375"><ele>34.0</ele><time>2026-05-03T13:29:54.002Z</time></trkpt><trkpt lat="45.93969229842986" lon="12.860825300616055"><ele>34.0</ele><time>2026-05-03T13:29:55.002Z</time></trkpt><trkpt lat="45.93982988171815" lon="12.860864560078724"><ele>34.0</ele><time>2026-05-03T13:29:56.002Z</time></trkpt><trkpt lat="45.93996484112961" lon="12.860881939246822"><ele>34.0</ele><time>2026-05-03T13:29:56.999Z</time></trkpt><trkpt lat="45.940084586325796" lon="12.860895255069565"><ele>34.0</ele><time>2026-05-03T13:29:57.999Z</time></trkpt><trkpt lat="45.940194320419614" lon="12.860910444405118"><ele>34.0</ele><time>2026-05-03T13:29:58.999Z</time></trkpt><trkpt lat="45.940305757534595" lon="12.860936944699697"><ele>34.0</ele><time>2026-05-03T13:29:59.999Z</time></trkpt><trkpt lat="45.940423971723234" lon="12.860978223252895"><ele>34.0</ele><time>2026-05-03T13:30:00.999Z</time></trkpt><trkpt lat="45.94054613684613" lon="12.861033549094785"><ele>34.5</ele><time>2026-05-03T13:30:01.999Z</time></trkpt><trkpt lat="45.940663703970635" lon="12.861095390913492"><ele>35.0</ele><time>2026-05-03T13:30:02.999Z</time></trkpt><trkpt lat="45.940775237771234" lon="12.86116961494584"><ele>35.5</ele><time>2026-05-03T13:30:03.999Z</time></trkpt><trkpt lat="45.94087950600084" lon="12.861254170874577"><ele>36.0</ele><time>2026-05-03T13:30:04.999Z</time></trkpt><trkpt lat="45.9409783085883" lon="12.861342304608215"><ele>36.25</ele><time>2026-05-03T13:30:05.999Z</time></trkpt><trkpt lat="45.941078162744006" lon="12.861452324327873"><ele>36.5</ele><time>2026-05-03T13:30:06.999Z</time></trkpt><trkpt lat="45.94117814792261" lon="12.861574986377574"><ele>36.75</ele><time>2026-05-03T13:30:07.999Z</time></trkpt><trkpt lat="45.94128033919678" lon="12.861692728941572"><ele>37.0</ele><time>2026-05-03T13:30:08.999Z</time></trkpt><trkpt lat="45.94139184176506" lon="12.86179076199303"><ele>36.75</ele><time>2026-05-03T13:30:09.999Z</time></trkpt><trkpt lat="45.94151361135135" lon="12.86187420291218"><ele>36.5</ele><time>2026-05-03T13:30:10.999Z</time></trkpt><trkpt lat="45.94163714386798" lon="12.861953673373801"><ele>36.25</ele><time>2026-05-03T13:30:11.999Z</time></trkpt><trkpt lat="45.9417576749398" lon="12.862028671168414"><ele>36.0</ele><time>2026-05-03T13:30:12.999Z</time></trkpt><trkpt lat="45.94188448139348" lon="12.862106637457366"><ele>36.0</ele><time>2026-05-03T13:30:13.999Z</time></trkpt><trkpt lat="45.94201074003287" lon="12.862184016130644"><ele>36.0</ele><time>2026-05-03T13:30:14.999Z</time></trkpt><trkpt lat="45.942133197901896" lon="12.862269744149888"><ele>36.0</ele><time>2026-05-03T13:30:15.999Z</time></trkpt><trkpt lat="45.94224514860994" lon="12.862366115199672"><ele>36.0</ele><time>2026-05-03T13:30:16.999Z</time></trkpt><trkpt lat="45.942350835206234" lon="12.862472288800422"><ele>36.0</ele><time>2026-05-03T13:30:17.999Z</time></trkpt><trkpt lat="45.94244199793308" lon="12.862587551895583"><ele>36.0</ele><time>2026-05-03T13:30:18.999Z</time></trkpt><trkpt lat="45.942522660648606" lon="12.86270445052002"><ele>36.0</ele><time>2026-05-03T13:30:19.999Z</time></trkpt><trkpt lat="45.94259631139486" lon="12.862818374390024"><ele>36.0</ele><time>2026-05-03T13:30:20.999Z</time></trkpt><trkpt lat="45.9426672982258" lon="12.862925676325363"><ele>36.0</ele><time>2026-05-03T13:30:22Z</time></trkpt><trkpt lat="45.94273748437989" lon="12.863031729540195"><ele>36.0</ele><time>2026-05-03T13:30:23Z</time></trkpt><trkpt lat="45.94281145253783" lon="12.863144933754132"><ele>36.0</ele><time>2026-05-03T13:30:24Z</time></trkpt><trkpt lat="45.94288181935959" lon="12.8632532453072"><ele>36.0</ele><time>2026-05-03T13:30:25Z</time></trkpt><trkpt lat="45.942946517169176" lon="12.863358400646774"><ele>36.0</ele><time>2026-05-03T13:30:26Z</time></trkpt><trkpt lat="45.943012784026145" lon="12.86346516948664"><ele>36.0</ele><time>2026-05-03T13:30:27Z</time></trkpt><trkpt lat="45.943078522549186" lon="12.86357334253625"><ele>36.0</ele><time>2026-05-03T13:30:28Z</time></trkpt><trkpt lat="45.94314389784412" lon="12.863685085053575"><ele>36.0</ele><time>2026-05-03T13:30:29Z</time></trkpt><trkpt lat="45.94320041291361" lon="12.863793267845386"><ele>36.0</ele><time>2026-05-03T13:30:30Z</time></trkpt><trkpt lat="45.94324979043994" lon="12.863901619511125"><ele>36.0</ele><time>2026-05-03T13:30:31Z</time></trkpt><trkpt lat="45.943287891461395" lon="12.864015449214653"><ele>36.0</ele><time>2026-05-03T13:30:32Z</time></trkpt><trkpt lat="45.94331474055689" lon="12.864130676890756"><ele>36.0</ele><time>2026-05-03T13:30:33Z</time></trkpt><trkpt lat="45.94335168399159" lon="12.864240106259322"><ele>36.0</ele><time>2026-05-03T13:30:34Z</time></trkpt><trkpt lat="45.94340169342478" lon="12.864346062854763"><ele>36.0</ele><time>2026-05-03T13:30:35Z</time></trkpt><trkpt lat="45.94345734295334" lon="12.864455222389784"><ele>36.0</ele><time>2026-05-03T13:30:36Z</time></trkpt><trkpt lat="45.94351679288758" lon="12.864560997664059"><ele>36.0</ele><time>2026-05-03T13:30:37Z</time></trkpt><trkpt lat="45.94357950176307" lon="12.8646628357773"><ele>36.0</ele><time>2026-05-03T13:30:38Z</time></trkpt><trkpt lat="45.94364074107804" lon="12.864766188885163"><ele>36.0</ele><time>2026-05-03T13:30:39Z</time></trkpt><trkpt lat="45.94370157703113" lon="12.864872124270523"><ele>36.0</ele><time>2026-05-03T13:30:40Z</time></trkpt><trkpt lat="45.943761234681915" lon="12.864984599832527"><ele>36.0</ele><time>2026-05-03T13:30:41Z</time></trkpt><trkpt lat="45.94382262024329" lon="12.865101435776914"><ele>36.0</ele><time>2026-05-03T13:30:42Z</time></trkpt><trkpt lat="45.943877449028214" lon="12.865221839513918"><ele>35.6</ele><time>2026-05-03T13:30:43Z</time></trkpt><trkpt lat="45.94392392080587" lon="12.865351944534178"><ele>35.2</ele><time>2026-05-03T13:30:44Z</time></trkpt><trkpt lat="45.943961113254325" lon="12.865487755567234"><ele>34.8</ele><time>2026-05-03T13:30:45Z</time></trkpt><trkpt lat="45.943990555279335" lon="12.865618616054515"><ele>34.4</ele><time>2026-05-03T13:30:46Z</time></trkpt><trkpt lat="45.94401704540378" lon="12.86574184009745"><ele>34.0</ele><time>2026-05-03T13:30:47Z</time></trkpt><trkpt lat="45.9440459778523" lon="12.865862669630495"><ele>34.4</ele><time>2026-05-03T13:30:48Z</time></trkpt><trkpt lat="45.944076864483264" lon="12.865980885407298"><ele>34.8</ele><time>2026-05-03T13:30:49Z</time></trkpt><trkpt lat="45.9441090407712" lon="12.866093593279405"><ele>35.2</ele><time>2026-05-03T13:30:50Z</time></trkpt><trkpt lat="45.944147759779426" lon="12.866211241507436"><ele>35.6</ele><time>2026-05-03T13:30:51Z</time></trkpt><trkpt lat="45.94418520506212" lon="12.866337963410427"><ele>36.0</ele><time>2026-05-03T13:30:52.001Z</time></trkpt><trkpt lat="45.94422669841827" lon="12.86647512373454"><ele>36.2</ele><time>2026-05-03T13:30:53.001Z</time></trkpt><trkpt lat="45.944270236471795" lon="12.866612714280304"><ele>36.400000000000006</ele><time>2026-05-03T13:30:54.001Z</time></trkpt><trkpt lat="45.94431623261068" lon="12.866752212203643"><ele>36.6</ele><time>2026-05-03T13:30:55.001Z</time></trkpt><trkpt lat="45.94435993164449" lon="12.866892350253027"><ele>36.800000000000004</ele><time>2026-05-03T13:30:56.001Z</time></trkpt><trkpt lat="45.94440644252595" lon="12.86704257448931"><ele>37.0</ele><time>2026-05-03T13:30:57.001Z</time></trkpt><trkpt lat="45.94444375784554" lon="12.867202961600885"><ele>37.0</ele><time>2026-05-03T13:30:58.001Z</time></trkpt><trkpt lat="45.944478939162956" lon="12.867374515132719"><ele>37.0</ele><time>2026-05-03T13:30:59.001Z</time></trkpt><trkpt lat="45.94451961953554" lon="12.867550262465949"><ele>37.0</ele><time>2026-05-03T13:31:00.001Z</time></trkpt><trkpt lat="45.944562858309425" lon="12.867723334424186"><ele>37.0</ele><time>2026-05-03T13:31:01.001Z</time></trkpt><trkpt lat="45.944610797868634" lon="12.867896658126718"><ele>37.0</ele><time>2026-05-03T13:31:02.001Z</time></trkpt><trkpt lat="45.94466094295023" lon="12.868071314176309"><ele>37.0</ele><time>2026-05-03T13:31:03.001Z</time></trkpt><trkpt lat="45.94470484551314" lon="12.868231044581073"><ele>37.0</ele><time>2026-05-03T13:31:04.001Z</time></trkpt><trkpt lat="45.9447439620409" lon="12.86837562596426"><ele>37.0</ele><time>2026-05-03T13:31:05.001Z</time></trkpt><trkpt lat="45.944781056133145" lon="12.868506110936739"><ele>37.333333333333336</ele><time>2026-05-03T13:31:06.001Z</time></trkpt><trkpt lat="45.94481086364378" lon="12.868617747349418"><ele>37.66666666666667</ele><time>2026-05-03T13:31:07.001Z</time></trkpt><trkpt lat="45.944827433566694" lon="12.868716283638506"><ele>38.0</ele><time>2026-05-03T13:31:08.001Z</time></trkpt><trkpt lat="45.94480706913603" lon="12.868829250490963"><ele>38.333333333333336</ele><time>2026-05-03T13:31:10.001Z</time></trkpt><trkpt lat="45.944756560373705" lon="12.868976147713733"><ele>38.666666666666664</ele><time>2026-05-03T13:31:12.001Z</time></trkpt><trkpt lat="45.94471490896055" lon="12.869085596029535"><ele>39.0</ele><time>2026-05-03T13:31:13.001Z</time></trkpt><trkpt lat="45.94467916095678" lon="12.8692189302436"><ele>39.0</ele><time>2026-05-03T13:31:14.001Z</time></trkpt><trkpt lat="45.94466783913507" lon="12.869369259488519"><ele>39.0</ele><time>2026-05-03T13:31:15.001Z</time></trkpt><trkpt lat="45.9446949886048" lon="12.869522960438285"><ele>39.0</ele><time>2026-05-03T13:31:16.001Z</time></trkpt><trkpt lat="45.94475792444791" lon="12.869687857166513"><ele>39.0</ele><time>2026-05-03T13:31:17.001Z</time></trkpt><trkpt lat="45.94484301255663" lon="12.869852049211076"><ele>39.0</ele><time>2026-05-03T13:31:18.001Z</time></trkpt><trkpt lat="45.944931654928006" lon="12.870019149780756"><ele>39.0</ele><time>2026-05-03T13:31:19.001Z</time></trkpt><trkpt lat="45.94501632622867" lon="12.870212501865128"><ele>39.0</ele><time>2026-05-03T13:31:20.001Z</time></trkpt><trkpt lat="45.94508769711028" lon="12.870423908386654"><ele>38.666666666666664</ele><time>2026-05-03T13:31:21.001Z</time></trkpt><trkpt lat="45.94514164068985" lon="12.87066441283009"><ele>38.33333333333333</ele><time>2026-05-03T13:31:22.001Z</time></trkpt><trkpt lat="45.94518393432006" lon="12.870922049431874"><ele>38.0</ele><time>2026-05-03T13:31:23.001Z</time></trkpt><trkpt lat="45.945215558373015" lon="12.871199913430035"><ele>38.33333333333333</ele><time>2026-05-03T13:31:24.001Z</time></trkpt><trkpt lat="45.94524081053799" lon="12.871480492022533"><ele>38.666666666666664</ele><time>2026-05-03T13:31:25.001Z</time></trkpt><trkpt lat="45.94526698826035" lon="12.871753919570848"><ele>39.0</ele><time>2026-05-03T13:31:26.001Z</time></trkpt><trkpt lat="45.94529808993819" lon="12.872029959388543"><ele>39.0</ele><time>2026-05-03T13:31:27.001Z</time></trkpt><trkpt lat="45.94533150756269" lon="12.872300064980507"><ele>39.0</ele><time>2026-05-03T13:31:28.002Z</time></trkpt><trkpt lat="45.945362721952506" lon="12.872563235539516"><ele>39.0</ele><time>2026-05-03T13:31:29.002Z</time></trkpt><trkpt lat="45.94539332511051" lon="12.872817641654313"><ele>39.0</ele><time>2026-05-03T13:31:30.002Z</time></trkpt><trkpt lat="45.94542467173596" lon="12.873070370472972"><ele>39.0</ele><time>2026-05-03T13:31:31.002Z</time></trkpt><trkpt lat="45.94545217976393" lon="12.87331187754922"><ele>39.0</ele><time>2026-05-03T13:31:32.002Z</time></trkpt><trkpt lat="45.94547787860294" lon="12.873554164005045"><ele>39.0</ele><time>2026-05-03T13:31:33.002Z</time></trkpt><trkpt lat="45.94550024811914" lon="12.873794810125592"><ele>39.0</ele><time>2026-05-03T13:31:34.002Z</time></trkpt><trkpt lat="45.94552143989132" lon="12.874022271091423"><ele>39.0</ele><time>2026-05-03T13:31:35.002Z</time></trkpt><trkpt lat="45.94554213359682" lon="12.874259374985533"><ele>40.0</ele><time>2026-05-03T13:31:36.002Z</time></trkpt><trkpt lat="45.945566525662194" lon="12.874503761119573"><ele>41.0</ele><time>2026-05-03T13:31:37.002Z</time></trkpt><trkpt lat="45.94559316727035" lon="12.874751953557325"><ele>42.0</ele><time>2026-05-03T13:31:38.002Z</time></trkpt><trkpt lat="45.94562164375351" lon="12.875003157707686"><ele>41.666666666666664</ele><time>2026-05-03T13:31:39.002Z</time></trkpt><trkpt lat="45.945652146409635" lon="12.875268116356581"><ele>41.33333333333333</ele><time>2026-05-03T13:31:40.002Z</time></trkpt><trkpt lat="45.945679792422744" lon="12.875532119215864"><ele>41.0</ele><time>2026-05-03T13:31:41.002Z</time></trkpt><trkpt lat="45.94570844332107" lon="12.875798397726834"><ele>41.33333333333333</ele><time>2026-05-03T13:31:42.002Z</time></trkpt><trkpt lat="45.945741914841705" lon="12.876087348375734"><ele>41.666666666666664</ele><time>2026-05-03T13:31:43.002Z</time></trkpt><trkpt lat="45.945773940134764" lon="12.876388298943615"><ele>42.0</ele><time>2026-05-03T13:31:44.002Z</time></trkpt><trkpt lat="45.945808433688335" lon="12.876692647768964"><ele>41.666666666666664</ele><time>2026-05-03T13:31:45.002Z</time></trkpt><trkpt lat="45.9458419430579" lon="12.876987513923416"><ele>41.33333333333333</ele><time>2026-05-03T13:31:46.002Z</time></trkpt><trkpt lat="45.94588139189555" lon="12.87727038618506"><ele>41.0</ele><time>2026-05-03T13:31:47.002Z</time></trkpt><trkpt lat="45.945918656343224" lon="12.877527365679356"><ele>40.666666666666664</ele><time>2026-05-03T13:31:48.002Z</time></trkpt><trkpt lat="45.94596017788228" lon="12.87776416908395"><ele>40.333333333333336</ele><time>2026-05-03T13:31:49.002Z</time></trkpt><trkpt lat="45.946008200900934" lon="12.87798544611246"><ele>40.0</ele><time>2026-05-03T13:31:50.002Z</time></trkpt><trkpt lat="45.94606066722552" lon="12.878186530212101"><ele>40.0</ele><time>2026-05-03T13:31:51.002Z</time></trkpt><trkpt lat="45.94611920749967" lon="12.878403070146582"><ele>40.0</ele><time>2026-05-03T13:31:52.002Z</time></trkpt><trkpt lat="45.94617302616192" lon="12.87861767441325"><ele>40.0</ele><time>2026-05-03T13:31:53.002Z</time></trkpt><trkpt lat="45.94621660257507" lon="12.878817413887717"><ele>40.0</ele><time>2026-05-03T13:31:54.002Z</time></trkpt><trkpt lat="45.94624649695702" lon="12.879002524125214"><ele>40.0</ele><time>2026-05-03T13:31:55.002Z</time></trkpt><trkpt lat="45.946253263499585" lon="12.879162051626714"><ele>40.0</ele><time>2026-05-03T13:31:56.002Z</time></trkpt><trkpt lat="45.9462368898635" lon="12.879297263602759"><ele>40.0</ele><time>2026-05-03T13:31:57.002Z</time></trkpt><trkpt lat="45.94618846520495" lon="12.879405716856171"><ele>40.0</ele><time>2026-05-03T13:31:58.002Z</time></trkpt><trkpt lat="45.94610220426504" lon="12.879502262700264"><ele>40.0</ele><time>2026-05-03T13:31:59.002Z</time></trkpt><trkpt lat="45.94600987431645" lon="12.879612604843368"><ele>40.0</ele><time>2026-05-03T13:32:00.002Z</time></trkpt><trkpt lat="45.94592936508514" lon="12.879752273077424"><ele>40.0</ele><time>2026-05-03T13:32:01.002Z</time></trkpt><trkpt lat="45.945870797110615" lon="12.879900536911817"><ele>40.0</ele><time>2026-05-03T13:32:02.002Z</time></trkpt><trkpt lat="45.94584433172987" lon="12.880062641590479"><ele>39.75</ele><time>2026-05-03T13:32:02.999Z</time></trkpt><trkpt lat="45.945852192602935" lon="12.880234930554865"><ele>39.5</ele><time>2026-05-03T13:32:03.999Z</time></trkpt><trkpt lat="45.94589509407879" lon="12.880402814052523"><ele>39.25</ele><time>2026-05-03T13:32:04.999Z</time></trkpt><trkpt lat="45.94596875980499" lon="12.88055814271214"><ele>39.0</ele><time>2026-05-03T13:32:05.999Z</time></trkpt><trkpt lat="45.946072959677565" lon="12.880706504951917"><ele>39.0</ele><time>2026-05-03T13:32:06.999Z</time></trkpt><trkpt lat="45.94617953290354" lon="12.880860200204637"><ele>39.0</ele><time>2026-05-03T13:32:07.999Z</time></trkpt><trkpt lat="45.94626023833183" lon="12.88105316593283"><ele>39.0</ele><time>2026-05-03T13:32:08.999Z</time></trkpt><trkpt lat="45.946299599138705" lon="12.881280532586"><ele>38.666666666666664</ele><time>2026-05-03T13:32:09.999Z</time></trkpt><trkpt lat="45.94633238910106" lon="12.881509334128225"><ele>38.33333333333333</ele><time>2026-05-03T13:32:10.999Z</time></trkpt><trkpt lat="45.94636597575884" lon="12.881739272357002"><ele>38.0</ele><time>2026-05-03T13:32:11.999Z</time></trkpt><trkpt lat="45.94639960397387" lon="12.881969319910423"><ele>38.666666666666664</ele><time>2026-05-03T13:32:12.999Z</time></trkpt><trkpt lat="45.946425856263915" lon="12.88220759815597"><ele>39.333333333333336</ele><time>2026-05-03T13:32:13.999Z</time></trkpt><trkpt lat="45.94644974225037" lon="12.882446949637222"><ele>40.0</ele><time>2026-05-03T13:32:14.999Z</time></trkpt><trkpt lat="45.946478155682584" lon="12.882686821800803"><ele>40.0</ele><time>2026-05-03T13:32:15.999Z</time></trkpt><trkpt lat="45.94650422239725" lon="12.882927167323139"><ele>40.0</ele><time>2026-05-03T13:32:16.999Z</time></trkpt><trkpt lat="45.946531490540885" lon="12.883168719677704"><ele>40.0</ele><time>2026-05-03T13:32:17.999Z</time></trkpt><trkpt lat="45.94655824797032" lon="12.88340957188583"><ele>40.0</ele><time>2026-05-03T13:32:18.999Z</time></trkpt><trkpt lat="45.94658703847104" lon="12.883654107846437"><ele>40.0</ele><time>2026-05-03T13:32:19.999Z</time></trkpt><trkpt lat="45.94661458228142" lon="12.88389526022209"><ele>40.0</ele><time>2026-05-03T13:32:20.999Z</time></trkpt><trkpt lat="45.94664180223793" lon="12.884142792805692"><ele>40.333333333333336</ele><time>2026-05-03T13:32:21.999Z</time></trkpt><trkpt lat="45.9466736950717" lon="12.88437848994674"><ele>40.666666666666664</ele><time>2026-05-03T13:32:22.999Z</time></trkpt><trkpt lat="45.9467011946237" lon="12.884612845230556"><ele>41.0</ele><time>2026-05-03T13:32:23.999Z</time></trkpt><trkpt lat="45.94672362943443" lon="12.884844718648676"><ele>41.0</ele><time>2026-05-03T13:32:24.999Z</time></trkpt><trkpt lat="45.94674545213101" lon="12.885075367847817"><ele>41.0</ele><time>2026-05-03T13:32:26Z</time></trkpt><trkpt lat="45.94676289957894" lon="12.885292918911372"><ele>41.0</ele><time>2026-05-03T13:32:27Z</time></trkpt><trkpt lat="45.946770642092936" lon="12.885499058673075"><ele>41.25</ele><time>2026-05-03T13:32:28Z</time></trkpt><trkpt lat="45.94675854757804" lon="12.88570028223587"><ele>41.5</ele><time>2026-05-03T13:32:29Z</time></trkpt><trkpt lat="45.94673009854945" lon="12.885891926522635"><ele>41.75</ele><time>2026-05-03T13:32:30Z</time></trkpt><trkpt lat="45.94670331393442" lon="12.8860719169466"><ele>42.0</ele><time>2026-05-03T13:32:31Z</time></trkpt><trkpt lat="45.946693243886656" lon="12.886247429526765"><ele>42.0</ele><time>2026-05-03T13:32:32Z</time></trkpt><trkpt lat="45.94670012482308" lon="12.886422862775122"><ele>42.0</ele><time>2026-05-03T13:32:33Z</time></trkpt><trkpt lat="45.94672445760307" lon="12.886603705423068"><ele>42.0</ele><time>2026-05-03T13:32:34Z</time></trkpt><trkpt lat="45.946768450785015" lon="12.886789429711133"><ele>42.0</ele><time>2026-05-03T13:32:35Z</time></trkpt><trkpt lat="45.9468239823732" lon="12.886982896993198"><ele>41.666666666666664</ele><time>2026-05-03T13:32:36Z</time></trkpt><trkpt lat="45.94686773250879" lon="12.887192123205587"><ele>41.33333333333333</ele><time>2026-05-03T13:32:37Z</time></trkpt><trkpt lat="45.94689663737153" lon="12.887419737841139"><ele>41.0</ele><time>2026-05-03T13:32:38Z</time></trkpt><trkpt lat="45.946919364441456" lon="12.887654908968655"><ele>40.666666666666664</ele><time>2026-05-03T13:32:39Z</time></trkpt><trkpt lat="45.94693870183518" lon="12.887900040854133"><ele>40.333333333333336</ele><time>2026-05-03T13:32:40Z</time></trkpt><trkpt lat="45.94696720144949" lon="12.88814294135798"><ele>40.0</ele><time>2026-05-03T13:32:41Z</time></trkpt><trkpt lat="45.94699672559958" lon="12.88838116627696"><ele>39.66666666666667</ele><time>2026-05-03T13:32:42Z</time></trkpt><trkpt lat="45.94702622380857" lon="12.888626990783694"><ele>39.333333333333336</ele><time>2026-05-03T13:32:43Z</time></trkpt><trkpt lat="45.94705542269496" lon="12.88889594473205"><ele>39.0</ele><time>2026-05-03T13:32:44Z</time></trkpt><trkpt lat="45.94708468092714" lon="12.889182002839755"><ele>38.666666666666664</ele><time>2026-05-03T13:32:45Z</time></trkpt><trkpt lat="45.947113395871085" lon="12.889476906028491"><ele>38.33333333333333</ele><time>2026-05-03T13:32:46Z</time></trkpt><trkpt lat="45.947143804252555" lon="12.889775593767766"><ele>38.0</ele><time>2026-05-03T13:32:47Z</time></trkpt><trkpt lat="45.9471736333366" lon="12.890070382722861"><ele>38.0</ele><time>2026-05-03T13:32:48Z</time></trkpt><trkpt lat="45.9472036863443" lon="12.890357427941787"><ele>38.0</ele><time>2026-05-03T13:32:49Z</time></trkpt><trkpt lat="45.947232404301985" lon="12.890628946410175"><ele>38.0</ele><time>2026-05-03T13:32:50Z</time></trkpt><trkpt lat="45.94726011837205" lon="12.890892168635894"><ele>38.33333333333333</ele><time>2026-05-03T13:32:51Z</time></trkpt><trkpt lat="45.94728903458655" lon="12.891140716541889"><ele>38.666666666666664</ele><time>2026-05-03T13:32:52.001Z</time></trkpt><trkpt lat="45.94731739360274" lon="12.89137199808921"><ele>39.0</ele><time>2026-05-03T13:32:53.001Z</time></trkpt><trkpt lat="45.94734455729877" lon="12.8915947084519"><ele>39.0</ele><time>2026-05-03T13:32:54.001Z</time></trkpt><trkpt lat="45.947368713149274" lon="12.89181139154252"><ele>39.0</ele><time>2026-05-03T13:32:55.001Z</time></trkpt><trkpt lat="45.947391310172755" lon="12.892024293639162"><ele>39.0</ele><time>2026-05-03T13:32:56.001Z</time></trkpt><trkpt lat="45.94741791024579" lon="12.892226309601815"><ele>39.0</ele><time>2026-05-03T13:32:57.001Z</time></trkpt><trkpt lat="45.94744122091961" lon="12.892416915694069"><ele>38.75</ele><time>2026-05-03T13:32:58.001Z</time></trkpt><trkpt lat="45.94745763680151" lon="12.892609747949011"><ele>38.5</ele><time>2026-05-03T13:32:59.001Z</time></trkpt><trkpt lat="45.94746416633132" lon="12.892791391748178"><ele>38.25</ele><time>2026-05-03T13:33:00.001Z</time></trkpt><trkpt lat="45.94747364927261" lon="12.893012744853174"><ele>38.0</ele><time>2026-05-03T13:33:01.001Z</time></trkpt><trkpt lat="45.94747869954699" lon="12.893238204150784"><ele>38.0</ele><time>2026-05-03T13:33:02.001Z</time></trkpt><trkpt lat="45.94747927960835" lon="12.893489680783139"><ele>38.0</ele><time>2026-05-03T13:33:03.001Z</time></trkpt><trkpt lat="45.947478898781604" lon="12.893723958654641"><ele>38.0</ele><time>2026-05-03T13:33:04.001Z</time></trkpt><trkpt lat="45.94748827274402" lon="12.893939229976938"><ele>38.0</ele><time>2026-05-03T13:33:05.001Z</time></trkpt><trkpt lat="45.94751602066552" lon="12.89414574657718"><ele>38.0</ele><time>2026-05-03T13:33:06.001Z</time></trkpt><trkpt lat="45.94754999400527" lon="12.894350719560501"><ele>38.0</ele><time>2026-05-03T13:33:07.001Z</time></trkpt><trkpt lat="45.9475893669781" lon="12.89454595325461"><ele>38.0</ele><time>2026-05-03T13:33:08.001Z</time></trkpt><trkpt lat="45.94763362742874" lon="12.894751098545019"><ele>38.0</ele><time>2026-05-03T13:33:09.001Z</time></trkpt><trkpt lat="45.947682627237825" lon="12.894976190928066"><ele>38.0</ele><time>2026-05-03T13:33:10.001Z</time></trkpt><trkpt lat="45.94773140593533" lon="12.895184218057816"><ele>38.0</ele><time>2026-05-03T13:33:11.001Z</time></trkpt><trkpt lat="45.947770418817896" lon="12.895368983112702"><ele>38.0</ele><time>2026-05-03T13:33:12.001Z</time></trkpt><trkpt lat="45.947803703623855" lon="12.89554347966427"><ele>38.0</ele><time>2026-05-03T13:33:13.001Z</time></trkpt><trkpt lat="45.947836759391635" lon="12.895707037384682"><ele>38.0</ele><time>2026-05-03T13:33:14.001Z</time></trkpt><trkpt lat="45.947875501294014" lon="12.89585158347602"><ele>38.0</ele><time>2026-05-03T13:33:15.001Z</time></trkpt><trkpt lat="45.947924593361755" lon="12.895983818367494"><ele>38.25</ele><time>2026-05-03T13:33:16.001Z</time></trkpt><trkpt lat="45.947990199816275" lon="12.896102027662925"><ele>38.5</ele><time>2026-05-03T13:33:17.001Z</time></trkpt><trkpt lat="45.94809030053929" lon="12.896203759872956"><ele>38.75</ele><time>2026-05-03T13:33:18.001Z</time></trkpt><trkpt lat="45.94820591174985" lon="12.89631111776384"><ele>39.0</ele><time>2026-05-03T13:33:19.001Z</time></trkpt><trkpt lat="45.94830876338624" lon="12.896413262825899"><ele>39.0</ele><time>2026-05-03T13:33:20.001Z</time></trkpt><trkpt lat="45.94840167681489" lon="12.896511854313644"><ele>39.0</ele><time>2026-05-03T13:33:21.001Z</time></trkpt><trkpt lat="45.94849244851685" lon="12.896630345378693"><ele>39.0</ele><time>2026-05-03T13:33:22.001Z</time></trkpt><trkpt lat="45.94857227137302" lon="12.89675269118313"><ele>39.0</ele><time>2026-05-03T13:33:23.001Z</time></trkpt><trkpt lat="45.94864881745019" lon="12.896884756601779"><ele>39.2</ele><time>2026-05-03T13:33:24.001Z</time></trkpt><trkpt lat="45.94871722671141" lon="12.897026087198515"><ele>39.4</ele><time>2026-05-03T13:33:25.002Z</time></trkpt><trkpt lat="45.94877191568876" lon="12.897167582761751"><ele>39.6</ele><time>2026-05-03T13:33:26.002Z</time></trkpt><trkpt lat="45.94880572155716" lon="12.897282532310774"><ele>39.8</ele><time>2026-05-03T13:33:27.002Z</time></trkpt><trkpt lat="45.94883182175372" lon="12.897387582691588"><ele>40.0</ele><time>2026-05-03T13:33:28.002Z</time></trkpt><trkpt lat="45.94885174609254" lon="12.897487873334061"><ele>40.0</ele><time>2026-05-03T13:33:29.002Z</time></trkpt><trkpt lat="45.94888180590263" lon="12.897572041120124"><ele>40.0</ele><time>2026-05-03T13:33:30.002Z</time></trkpt><trkpt lat="45.94892638097818" lon="12.897656547508557"><ele>40.0</ele><time>2026-05-03T13:33:31.002Z</time></trkpt><trkpt lat="45.94897682496101" lon="12.897742494782872"><ele>40.0</ele><time>2026-05-03T13:33:32.002Z</time></trkpt><trkpt lat="45.94903910678575" lon="12.89782960003318"><ele>40.0</ele><time>2026-05-03T13:33:33.002Z</time></trkpt><trkpt lat="45.949120389070245" lon="12.897921341914369"><ele>40.0</ele><time>2026-05-03T13:33:34.002Z</time></trkpt><trkpt lat="45.94920577651091" lon="12.898034639445793"><ele>39.75</ele><time>2026-05-03T13:33:35.002Z</time></trkpt><trkpt lat="45.94929305620196" lon="12.898148096116612"><ele>39.5</ele><time>2026-05-03T13:33:36.002Z</time></trkpt><trkpt lat="45.94939370109694" lon="12.89825001682558"><ele>39.25</ele><time>2026-05-03T13:33:37.002Z</time></trkpt><trkpt lat="45.94948561201815" lon="12.898347445576453"><ele>39.0</ele><time>2026-05-03T13:33:38.002Z</time></trkpt><trkpt lat="45.949583413049005" lon="12.89844824723399"><ele>39.4</ele><time>2026-05-03T13:33:39.002Z</time></trkpt><trkpt lat="45.94967385710708" lon="12.898537569547095"><ele>39.8</ele><time>2026-05-03T13:33:40.002Z</time></trkpt><trkpt lat="45.949759090195045" lon="12.898622528964836"><ele>40.199999999999996</ele><time>2026-05-03T13:33:41.002Z</time></trkpt><trkpt lat="45.949839950992086" lon="12.898707426870768"><ele>40.599999999999994</ele><time>2026-05-03T13:33:42.002Z</time></trkpt><trkpt lat="45.94991533058867" lon="12.89878637956615"><ele>41.0</ele><time>2026-05-03T13:33:43.002Z</time></trkpt><trkpt lat="45.94998159410391" lon="12.89885402344832"><ele>41.0</ele><time>2026-05-03T13:33:44.002Z</time></trkpt><trkpt lat="45.95003914119004" lon="12.898917978563261"><ele>41.0</ele><time>2026-05-03T13:33:45.002Z</time></trkpt><trkpt lat="45.95008502539463" lon="12.898985938054837"><ele>41.0</ele><time>2026-05-03T13:33:46.002Z</time></trkpt><trkpt lat="45.950143906502134" lon="12.899136072632793"><ele>41.0</ele><time>2026-05-03T13:33:48.002Z</time></trkpt><trkpt lat="45.95015502972619" lon="12.899233845826448"><ele>41.0</ele><time>2026-05-03T13:33:49.002Z</time></trkpt><trkpt lat="45.95016362694064" lon="12.899335151705888"><ele>41.0</ele><time>2026-05-03T13:33:50.002Z</time></trkpt><trkpt lat="45.950171272635565" lon="12.899442202142415"><ele>40.857142857142854</ele><time>2026-05-03T13:33:51.002Z</time></trkpt><trkpt lat="45.95018151362171" lon="12.899552387441743"><ele>40.714285714285715</ele><time>2026-05-03T13:33:52.002Z</time></trkpt><trkpt lat="45.950188517119706" lon="12.899652758093293"><ele>40.57142857142857</ele><time>2026-05-03T13:33:53.002Z</time></trkpt><trkpt lat="45.95019458265219" lon="12.899750754181287"><ele>40.42857142857143</ele><time>2026-05-03T13:33:54.002Z</time></trkpt><trkpt lat="45.950192083961404" lon="12.89985278625081"><ele>40.285714285714285</ele><time>2026-05-03T13:33:55.002Z</time></trkpt><trkpt lat="45.95019690271364" lon="12.89995920098827"><ele>40.14285714285714</ele><time>2026-05-03T13:33:56.002Z</time></trkpt><trkpt lat="45.950212707110204" lon="12.900077625838318"><ele>40.0</ele><time>2026-05-03T13:33:57.002Z</time></trkpt><trkpt lat="45.95024208609976" lon="12.900176764625455"><ele>39.8</ele><time>2026-05-03T13:33:58.003Z</time></trkpt><trkpt lat="45.95028612733788" lon="12.90026360050146"><ele>39.6</ele><time>2026-05-03T13:33:59.003Z</time></trkpt><trkpt lat="45.950348790705206" lon="12.90035372998171"><ele>39.4</ele><time>2026-05-03T13:34:00.003Z</time></trkpt><trkpt lat="45.95042973707202" lon="12.900435141535777"><ele>39.2</ele><time>2026-05-03T13:34:01.003Z</time></trkpt><trkpt lat="45.95054123229774" lon="12.90050321917551"><ele>39.0</ele><time>2026-05-03T13:34:02.003Z</time></trkpt><trkpt lat="45.95067550736466" lon="12.90055669798849"><ele>39.0</ele><time>2026-05-03T13:34:03.003Z</time></trkpt><trkpt lat="45.95081800768378" lon="12.900601315580243"><ele>39.0</ele><time>2026-05-03T13:34:04.003Z</time></trkpt><trkpt lat="45.95095800542139" lon="12.900645176697841"><ele>39.0</ele><time>2026-05-03T13:34:05.003Z</time></trkpt><trkpt lat="45.95109713002103" lon="12.900677023985285"><ele>39.0</ele><time>2026-05-03T13:34:06.003Z</time></trkpt><trkpt lat="45.95122301419391" lon="12.900702878040983"><ele>39.0</ele><time>2026-05-03T13:34:07.003Z</time></trkpt><trkpt lat="45.95134144513405" lon="12.900731839345001"><ele>39.0</ele><time>2026-05-03T13:34:08.003Z</time></trkpt><trkpt lat="45.95145586151542" lon="12.900762432955707"><ele>39.0</ele><time>2026-05-03T13:34:08.999Z</time></trkpt><trkpt lat="45.95159310368431" lon="12.90079785387732"><ele>39.0</ele><time>2026-05-03T13:34:09.999Z</time></trkpt><trkpt lat="45.95172132395822" lon="12.90082495027043"><ele>39.0</ele><time>2026-05-03T13:34:10.999Z</time></trkpt><trkpt lat="45.9518321647785" lon="12.900842275977231"><ele>39.0</ele><time>2026-05-03T13:34:11.999Z</time></trkpt><trkpt lat="45.9519521043531" lon="12.900851999536094"><ele>39.0</ele><time>2026-05-03T13:34:12.999Z</time></trkpt><trkpt lat="45.952093384339946" lon="12.900866327548128"><ele>39.0</ele><time>2026-05-03T13:34:13.999Z</time></trkpt><trkpt lat="45.952238965416576" lon="12.900875011526274"><ele>39.0</ele><time>2026-05-03T13:34:14.999Z</time></trkpt><trkpt lat="45.95237616832994" lon="12.900868826893817"><ele>39.0</ele><time>2026-05-03T13:34:15.999Z</time></trkpt><trkpt lat="45.95251900874369" lon="12.900871436096514"><ele>39.0</ele><time>2026-05-03T13:34:16.999Z</time></trkpt><trkpt lat="45.95265237987767" lon="12.900880095940977"><ele>39.0</ele><time>2026-05-03T13:34:17.999Z</time></trkpt><trkpt lat="45.952770897698514" lon="12.900887014864763"><ele>39.0</ele><time>2026-05-03T13:34:18.999Z</time></trkpt><trkpt lat="45.952880361301936" lon="12.900888935474818"><ele>39.0</ele><time>2026-05-03T13:34:19.999Z</time></trkpt><trkpt lat="45.95298981096108" lon="12.900894951737175"><ele>39.0</ele><time>2026-05-03T13:34:20.999Z</time></trkpt><trkpt lat="45.953103555648674" lon="12.900908648662396"><ele>39.0</ele><time>2026-05-03T13:34:21.999Z</time></trkpt><trkpt lat="45.953217465812116" lon="12.900924263898677"><ele>39.0</ele><time>2026-05-03T13:34:22.999Z</time></trkpt><trkpt lat="45.953336423283986" lon="12.90092803926842"><ele>39.0</ele><time>2026-05-03T13:34:23.999Z</time></trkpt><trkpt lat="45.953454502241655" lon="12.900926486429093"><ele>39.0</ele><time>2026-05-03T13:34:24.999Z</time></trkpt><trkpt lat="45.95357137982132" lon="12.90093443579502"><ele>39.0</ele><time>2026-05-03T13:34:25.999Z</time></trkpt><trkpt lat="45.9536848665066" lon="12.900948033433162"><ele>39.0</ele><time>2026-05-03T13:34:27Z</time></trkpt><trkpt lat="45.95380399422475" lon="12.900961841483293"><ele>39.0</ele><time>2026-05-03T13:34:28Z</time></trkpt><trkpt lat="45.95391554684319" lon="12.90097685879595"><ele>39.0</ele><time>2026-05-03T13:34:29Z</time></trkpt><trkpt lat="45.9540223976697" lon="12.900985892819842"><ele>39.0</ele><time>2026-05-03T13:34:30Z</time></trkpt><trkpt lat="45.9541363581584" lon="12.900991728623877"><ele>39.0</ele><time>2026-05-03T13:34:31Z</time></trkpt><trkpt lat="45.9542335902727" lon="12.900992702778252"><ele>39.0</ele><time>2026-05-03T13:34:32Z</time></trkpt><trkpt lat="45.95433456885576" lon="12.900996818640754"><ele>39.0</ele><time>2026-05-03T13:34:33Z</time></trkpt><trkpt lat="45.95444736703078" lon="12.90101544893026"><ele>39.0</ele><time>2026-05-03T13:34:34Z</time></trkpt><trkpt lat="45.954564470640975" lon="12.901036217740813"><ele>39.0</ele><time>2026-05-03T13:34:35Z</time></trkpt><trkpt lat="45.95466597771036" lon="12.901052152393726"><ele>39.0</ele><time>2026-05-03T13:34:36Z</time></trkpt><trkpt lat="45.95476662395244" lon="12.901065808161443"><ele>39.0</ele><time>2026-05-03T13:34:37Z</time></trkpt><trkpt lat="45.954859517868584" lon="12.901083443444563"><ele>39.0</ele><time>2026-05-03T13:34:38Z</time></trkpt><trkpt lat="45.95496168854303" lon="12.901095654966925"><ele>39.0</ele><time>2026-05-03T13:34:39Z</time></trkpt><trkpt lat="45.9550715030296" lon="12.901101899229216"><ele>39.0</ele><time>2026-05-03T13:34:40Z</time></trkpt><trkpt lat="45.955165461517474" lon="12.901115050378433"><ele>39.0</ele><time>2026-05-03T13:34:41Z</time></trkpt><trkpt lat="45.95525135146542" lon="12.90114464901737"><ele>39.0</ele><time>2026-05-03T13:34:42Z</time></trkpt><trkpt lat="45.9553471358104" lon="12.901182815280379"><ele>39.0</ele><time>2026-05-03T13:34:43Z</time></trkpt><trkpt lat="45.955424654078676" lon="12.90125019455951"><ele>39.0</ele><time>2026-05-03T13:34:44Z</time></trkpt><trkpt lat="45.95549106127364" lon="12.901287471177742"><ele>39.0</ele><time>2026-05-03T13:34:45Z</time></trkpt><trkpt lat="45.95556192851" lon="12.901304075071593"><ele>39.0</ele><time>2026-05-03T13:34:46Z</time></trkpt><trkpt lat="45.95564373116249" lon="12.9013119825733"><ele>39.0</ele><time>2026-05-03T13:34:47Z</time></trkpt><trkpt lat="45.955734225817025" lon="12.901325013744719"><ele>39.0</ele><time>2026-05-03T13:34:48Z</time></trkpt><trkpt lat="45.9558145065103" lon="12.901345027913399"><ele>39.166666666666664</ele><time>2026-05-03T13:34:49Z</time></trkpt><trkpt lat="45.95589490029957" lon="12.901365134724122"><ele>39.333333333333336</ele><time>2026-05-03T13:34:50Z</time></trkpt><trkpt lat="45.9559654575134" lon="12.901389348024011"><ele>39.5</ele><time>2026-05-03T13:34:51.001Z</time></trkpt><trkpt lat="45.95604623956078" lon="12.901415963686123"><ele>39.66666666666667</ele><time>2026-05-03T13:34:52.001Z</time></trkpt><trkpt lat="45.956144410139274" lon="12.901445845263229"><ele>39.833333333333336</ele><time>2026-05-03T13:34:53.001Z</time></trkpt><trkpt lat="45.95624591712319" lon="12.901476604495551"><ele>40.0</ele><time>2026-05-03T13:34:54.001Z</time></trkpt><trkpt lat="45.95634514270946" lon="12.90151955076676"><ele>40.0</ele><time>2026-05-03T13:34:55.001Z</time></trkpt><trkpt lat="45.956434302609715" lon="12.90155155780257"><ele>40.0</ele><time>2026-05-03T13:34:56.001Z</time></trkpt><trkpt lat="45.95653304021845" lon="12.901594417285427"><ele>40.0</ele><time>2026-05-03T13:34:57.001Z</time></trkpt><trkpt lat="45.95661213361115" lon="12.901631418791574"><ele>40.0</ele><time>2026-05-03T13:34:58.001Z</time></trkpt><trkpt lat="45.95669468091238" lon="12.901698337810691"><ele>40.0</ele><time>2026-05-03T13:34:59.001Z</time></trkpt><trkpt lat="45.956771441985545" lon="12.901751528849926"><ele>40.0</ele><time>2026-05-03T13:35:00.001Z</time></trkpt><trkpt lat="45.956870287162744" lon="12.901807373314595"><ele>40.0</ele><time>2026-05-03T13:35:01.001Z</time></trkpt><trkpt lat="45.95695762958162" lon="12.901865058906452"><ele>40.0</ele><time>2026-05-03T13:35:02.001Z</time></trkpt><trkpt lat="45.95706106339206" lon="12.901939655746832"><ele>40.0</ele><time>2026-05-03T13:35:03.001Z</time></trkpt><trkpt lat="45.95715060692763" lon="12.901965947898717"><ele>40.0</ele><time>2026-05-03T13:35:04.001Z</time></trkpt><trkpt lat="45.95723165084252" lon="12.902044968228122"><ele>40.0</ele><time>2026-05-03T13:35:05.001Z</time></trkpt><trkpt lat="45.957332375775835" lon="12.902091647220162"><ele>40.0</ele><time>2026-05-03T13:35:06.001Z</time></trkpt><trkpt lat="45.95742360956538" lon="12.902143309070949"><ele>40.0</ele><time>2026-05-03T13:35:07.001Z</time></trkpt><trkpt lat="45.95751326746354" lon="12.902221756240845"><ele>40.0</ele><time>2026-05-03T13:35:08.001Z</time></trkpt><trkpt lat="45.9576216079012" lon="12.90229423561528"><ele>40.0</ele><time>2026-05-03T13:35:09.001Z</time></trkpt><trkpt lat="45.95772773252156" lon="12.902352340548976"><ele>40.0</ele><time>2026-05-03T13:35:10.001Z</time></trkpt><trkpt lat="45.95783343568344" lon="12.9024161954269"><ele>40.0</ele><time>2026-05-03T13:35:11.001Z</time></trkpt><trkpt lat="45.957928592593866" lon="12.902483869936793"><ele>40.0</ele><time>2026-05-03T13:35:12.001Z</time></trkpt><trkpt lat="45.95800566375346" lon="12.902522547980638"><ele>40.0</ele><time>2026-05-03T13:35:13.001Z</time></trkpt><trkpt lat="45.95809673648089" lon="12.902559783084047"><ele>40.0</ele><time>2026-05-03T13:35:14.001Z</time></trkpt><trkpt lat="45.958196955445096" lon="12.902617517140534"><ele>40.0</ele><time>2026-05-03T13:35:15.001Z</time></trkpt><trkpt lat="45.95828283977485" lon="12.902667438653282"><ele>40.0</ele><time>2026-05-03T13:35:16.001Z</time></trkpt><trkpt lat="45.95837073908156" lon="12.90270800175596"><ele>40.0</ele><time>2026-05-03T13:35:17.001Z</time></trkpt><trkpt lat="45.95846631723605" lon="12.90274798306516"><ele>40.0</ele><time>2026-05-03T13:35:18.001Z</time></trkpt><trkpt lat="45.95857921112482" lon="12.902777597851939"><ele>40.0</ele><time>2026-05-03T13:35:19.001Z</time></trkpt><trkpt lat="45.95870994791256" lon="12.902806344206063"><ele>40.0</ele><time>2026-05-03T13:35:20.001Z</time></trkpt><trkpt lat="45.95884515577164" lon="12.902837435247141"><ele>40.0</ele><time>2026-05-03T13:35:21.001Z</time></trkpt><trkpt lat="45.958958661725184" lon="12.902866630020984"><ele>40.0</ele><time>2026-05-03T13:35:22.001Z</time></trkpt><trkpt lat="45.95905482713029" lon="12.902893375798937"><ele>40.0</ele><time>2026-05-03T13:35:23.002Z</time></trkpt><trkpt lat="45.95915160504918" lon="12.902902893867617"><ele>40.0</ele><time>2026-05-03T13:35:24.002Z</time></trkpt><trkpt lat="45.95924447651344" lon="12.902912346940228"><ele>40.8</ele><time>2026-05-03T13:35:25.002Z</time></trkpt><trkpt lat="45.95932888400428" lon="12.90294306561886"><ele>41.6</ele><time>2026-05-03T13:35:26.002Z</time></trkpt><trkpt lat="45.959403824633156" lon="12.902976914708473"><ele>42.400000000000006</ele><time>2026-05-03T13:35:27.002Z</time></trkpt><trkpt lat="45.95949268850063" lon="12.903012644598853"><ele>43.2</ele><time>2026-05-03T13:35:28.002Z</time></trkpt><trkpt lat="45.95958893142975" lon="12.903049654429921"><ele>44.0</ele><time>2026-05-03T13:35:29.002Z</time></trkpt><trkpt lat="45.9597060396952" lon="12.903078665758327"><ele>44.0</ele><time>2026-05-03T13:35:30.002Z</time></trkpt><trkpt lat="45.95979956960934" lon="12.903104358694456"><ele>44.0</ele><time>2026-05-03T13:35:31.002Z</time></trkpt><trkpt lat="45.959869160091806" lon="12.903124992752087"><ele>44.0</ele><time>2026-05-03T13:35:32.002Z</time></trkpt><trkpt lat="45.95998430603237" lon="12.903141386683004"><ele>44.0</ele><time>2026-05-03T13:35:34.002Z</time></trkpt><trkpt lat="45.96006839280026" lon="12.903147653996932"><ele>44.0</ele><time>2026-05-03T13:36:30Z</time></trkpt><trkpt lat="45.9601778313253" lon="12.903135400841046"><ele>43.400000000000006</ele><time>2026-05-03T13:36:32Z</time></trkpt><trkpt lat="45.96024955905053" lon="12.9031290344622"><ele>42.8</ele><time>2026-05-03T13:36:33Z</time></trkpt><trkpt lat="45.96032693570009" lon="12.903126456740283"><ele>42.2</ele><time>2026-05-03T13:36:34Z</time></trkpt><trkpt lat="45.96042123822948" lon="12.903109630597866"><ele>41.599999999999994</ele><time>2026-05-03T13:36:35Z</time></trkpt><trkpt lat="45.960523775242315" lon="12.903066290353676"><ele>41.0</ele><time>2026-05-03T13:36:36Z</time></trkpt><trkpt lat="45.96061979749125" lon="12.903023525560508"><ele>41.0</ele><time>2026-05-03T13:36:37Z</time></trkpt><trkpt lat="45.9607136929474" lon="12.90296669155045"><ele>41.0</ele><time>2026-05-03T13:36:38Z</time></trkpt><trkpt lat="45.96080160180887" lon="12.90291581367211"><ele>41.0</ele><time>2026-05-03T13:36:39Z</time></trkpt><trkpt lat="45.96089035390651" lon="12.902876670735617"><ele>41.0</ele><time>2026-05-03T13:36:40Z</time></trkpt><trkpt lat="45.960988682064176" lon="12.902843164906518"><ele>41.0</ele><time>2026-05-03T13:36:41Z</time></trkpt><trkpt lat="45.9610813548012" lon="12.902816245415693"><ele>41.166666666666664</ele><time>2026-05-03T13:36:42Z</time></trkpt><trkpt lat="45.96115436654761" lon="12.902792561391687"><ele>41.33333333333333</ele><time>2026-05-03T13:36:43Z</time></trkpt><trkpt lat="45.96123081030107" lon="12.902760416407997"><ele>41.5</ele><time>2026-05-03T13:36:44Z</time></trkpt><trkpt lat="45.961314193471345" lon="12.902732539730875"><ele>41.666666666666664</ele><time>2026-05-03T13:36:45Z</time></trkpt><trkpt lat="45.96139235363909" lon="12.902709270975716"><ele>41.833333333333336</ele><time>2026-05-03T13:36:46Z</time></trkpt><trkpt lat="45.96145860024154" lon="12.902707597987067"><ele>42.0</ele><time>2026-05-03T13:36:47Z</time></trkpt><trkpt lat="45.961527933132786" lon="12.902712073337037"><ele>42.0</ele><time>2026-05-03T13:36:48Z</time></trkpt><trkpt lat="45.96163898637014" lon="12.902709180161994"><ele>42.0</ele><time>2026-05-03T13:36:50.001Z</time></trkpt><trkpt lat="45.96175840393899" lon="12.902660129219724"><ele>42.0</ele><time>2026-05-03T13:36:52.001Z</time></trkpt><trkpt lat="45.96182369391244" lon="12.90258896623795"><ele>42.0</ele><time>2026-05-03T13:36:53.001Z</time></trkpt><trkpt lat="45.96189027681426" lon="12.902506384140459"><ele>42.0</ele><time>2026-05-03T13:36:54.001Z</time></trkpt><trkpt lat="45.96194853091068" lon="12.90243169613982"><ele>42.0</ele><time>2026-05-03T13:36:55.001Z</time></trkpt><trkpt lat="45.96203359430446" lon="12.902333208975222"><ele>42.0</ele><time>2026-05-03T13:36:57.001Z</time></trkpt><trkpt lat="45.962092629740454" lon="12.902291077892572"><ele>42.0</ele><time>2026-05-03T13:36:58.001Z</time></trkpt><trkpt lat="45.962170816055135" lon="12.902254071456085"><ele>42.0</ele><time>2026-05-03T13:36:59.001Z</time></trkpt><trkpt lat="45.962262279686065" lon="12.9022229777797"><ele>42.0</ele><time>2026-05-03T13:37:00.001Z</time></trkpt><trkpt lat="45.96236769568702" lon="12.902200541606003"><ele>42.0</ele><time>2026-05-03T13:37:01.001Z</time></trkpt><trkpt lat="45.96246633792851" lon="12.902192759167033"><ele>42.0</ele><time>2026-05-03T13:37:02.001Z</time></trkpt><trkpt lat="45.96255117587013" lon="12.90218927584025"><ele>42.0</ele><time>2026-05-03T13:37:03.001Z</time></trkpt><trkpt lat="45.96263337012197" lon="12.902185767526296"><ele>42.0</ele><time>2026-05-03T13:37:04.001Z</time></trkpt><trkpt lat="45.962725241353674" lon="12.902181147684113"><ele>42.0</ele><time>2026-05-03T13:37:05.001Z</time></trkpt><trkpt lat="45.9628315809941" lon="12.902175821303965"><ele>42.0</ele><time>2026-05-03T13:37:06.001Z</time></trkpt><trkpt lat="45.96293168896266" lon="12.902175575972585"><ele>42.0</ele><time>2026-05-03T13:37:07.001Z</time></trkpt><trkpt lat="45.963037028076485" lon="12.902183489442288"><ele>42.0</ele><time>2026-05-03T13:37:08.001Z</time></trkpt><trkpt lat="45.96315204988235" lon="12.90220157388596"><ele>42.0</ele><time>2026-05-03T13:37:09.001Z</time></trkpt><trkpt lat="45.96326370394041" lon="12.902208959169165"><ele>42.0</ele><time>2026-05-03T13:37:10.001Z</time></trkpt><trkpt lat="45.96336188241423" lon="12.90221301288952"><ele>41.75</ele><time>2026-05-03T13:37:11.001Z</time></trkpt><trkpt lat="45.963454866632794" lon="12.90221682700345"><ele>41.5</ele><time>2026-05-03T13:37:12.001Z</time></trkpt><trkpt lat="45.96355899811993" lon="12.902230145469808"><ele>41.25</ele><time>2026-05-03T13:37:13.001Z</time></trkpt><trkpt lat="45.9636836986789" lon="12.902248844728078"><ele>41.0</ele><time>2026-05-03T13:37:14.001Z</time></trkpt><trkpt lat="45.963810971894" lon="12.902263852762127"><ele>41.0</ele><time>2026-05-03T13:37:15.001Z</time></trkpt><trkpt lat="45.9639189806701" lon="12.902266659875668"><ele>41.0</ele><time>2026-05-03T13:37:16.001Z</time></trkpt><trkpt lat="45.96400627104543" lon="12.902258929421565"><ele>41.0</ele><time>2026-05-03T13:37:17.001Z</time></trkpt><trkpt lat="45.964076127764315" lon="12.902236186339529"><ele>41.0</ele><time>2026-05-03T13:37:18.001Z</time></trkpt><trkpt lat="45.96413673133262" lon="12.902200423186901"><ele>41.0</ele><time>2026-05-03T13:37:19.001Z</time></trkpt><trkpt lat="45.96423784637432" lon="12.902108299268871"><ele>41.4</ele><time>2026-05-03T13:37:21.002Z</time></trkpt><trkpt lat="45.96429368790726" lon="12.90206443573948"><ele>41.8</ele><time>2026-05-03T13:37:22.002Z</time></trkpt><trkpt lat="45.9644213605855" lon="12.902006119975985"><ele>42.199999999999996</ele><time>2026-05-03T13:37:24.002Z</time></trkpt><trkpt lat="45.96453308333719" lon="12.90197189948614"><ele>42.599999999999994</ele><time>2026-05-03T13:37:26.002Z</time></trkpt><trkpt lat="45.96466337737171" lon="12.901958541637176"><ele>43.0</ele><time>2026-05-03T13:37:28.002Z</time></trkpt><trkpt lat="45.964749085945" lon="12.90197100472795"><ele>43.0</ele><time>2026-05-03T13:37:29.002Z</time></trkpt><trkpt lat="45.96484587673045" lon="12.901974966498399"><ele>43.0</ele><time>2026-05-03T13:37:30.002Z</time></trkpt><trkpt lat="45.96492709953365" lon="12.90197656170538"><ele>43.0</ele><time>2026-05-03T13:37:31.002Z</time></trkpt><trkpt lat="45.965014801464186" lon="12.901959938868963"><ele>43.0</ele><time>2026-05-03T13:37:33.002Z</time></trkpt><trkpt lat="45.965112457603006" lon="12.901940042907226"><ele>43.0</ele><time>2026-05-03T13:37:36.002Z</time></trkpt><trkpt lat="45.965179721890614" lon="12.901906660989772"><ele>43.0</ele><time>2026-05-03T13:37:39.002Z</time></trkpt><trkpt lat="45.965238775808544" lon="12.901838410233678"><ele>42.833333333333336</ele><time>2026-05-03T13:37:42.002Z</time></trkpt><trkpt lat="45.96519828370819" lon="12.901740825445708"><ele>42.66666666666667</ele><time>2026-05-03T13:37:45.002Z</time></trkpt><trkpt lat="45.965147547112906" lon="12.901669765416006"><ele>42.5</ele><time>2026-05-03T13:37:46.002Z</time></trkpt><trkpt lat="45.965088441475366" lon="12.901547876836984"><ele>42.333333333333336</ele><time>2026-05-03T13:37:48.002Z</time></trkpt><trkpt lat="45.965059100118644" lon="12.901447889135241"><ele>42.166666666666664</ele><time>2026-05-03T13:37:50.002Z</time></trkpt><trkpt lat="45.96503081761225" lon="12.901357651351992"><ele>42.0</ele><time>2026-05-03T13:37:52.002Z</time></trkpt><trkpt lat="45.965220547445426" lon="12.901305963760317"><ele>42.0</ele><time>2026-05-03T13:39:03.001Z</time></trkpt><trkpt lat="45.965346743538134" lon="12.901420505650355"><ele>42.0</ele><time>2026-05-03T13:39:07.001Z</time></trkpt><trkpt lat="45.96540006267551" lon="12.901490861518992"><ele>42.0</ele><time>2026-05-03T13:39:08.001Z</time></trkpt><trkpt lat="45.965475827357274" lon="12.901547564102387"><ele>42.0</ele><time>2026-05-03T13:39:09.001Z</time></trkpt><trkpt lat="45.965541736012504" lon="12.90160168192069"><ele>42.0</ele><time>2026-05-03T13:39:10.001Z</time></trkpt><trkpt lat="45.96564154119174" lon="12.901600023529234"><ele>42.0</ele><time>2026-05-03T13:39:11.001Z</time></trkpt><trkpt lat="45.96571405075503" lon="12.901628941823935"><ele>42.0</ele><time>2026-05-03T13:39:12.001Z</time></trkpt><trkpt lat="45.96579728899506" lon="12.901694973038733"><ele>42.0</ele><time>2026-05-03T13:39:13.001Z</time></trkpt><trkpt lat="45.96587410066937" lon="12.901762702099628"><ele>42.0</ele><time>2026-05-03T13:39:14.001Z</time></trkpt><trkpt lat="45.965949289863865" lon="12.901803030197145"><ele>42.0</ele><time>2026-05-03T13:39:15.001Z</time></trkpt><trkpt lat="45.966015206039096" lon="12.901815156776896"><ele>42.0</ele><time>2026-05-03T13:39:16.001Z</time></trkpt><trkpt lat="45.96608517287266" lon="12.901802145055111"><ele>42.166666666666664</ele><time>2026-05-03T13:39:17.001Z</time></trkpt><trkpt lat="45.966195549928045" lon="12.901820909951994"><ele>42.333333333333336</ele><time>2026-05-03T13:39:19.001Z</time></trkpt><trkpt lat="45.966265413514364" lon="12.901848287997172"><ele>42.5</ele><time>2026-05-03T13:39:20.001Z</time></trkpt><trkpt lat="45.96634045201453" lon="12.901900550865285"><ele>42.66666666666667</ele><time>2026-05-03T13:39:21.001Z</time></trkpt><trkpt lat="45.9664010288809" lon="12.901948533210621"><ele>42.833333333333336</ele><time>2026-05-03T13:39:23.001Z</time></trkpt><trkpt lat="45.96642259110292" lon="12.90182423074286"><ele>43.0</ele><time>2026-05-03T13:39:25.002Z</time></trkpt><trkpt lat="45.96638724926774" lon="12.901701591386404"><ele>43.2</ele><time>2026-05-03T13:39:27.002Z</time></trkpt><trkpt lat="45.966320162941386" lon="12.901627383271592"><ele>43.4</ele><time>2026-05-03T13:39:28.002Z</time></trkpt><trkpt lat="45.96626653502476" lon="12.901553901190889"><ele>43.6</ele><time>2026-05-03T13:39:29.002Z</time></trkpt><trkpt lat="45.966275293870666" lon="12.901429252162558"><ele>43.800000000000004</ele><time>2026-05-03T13:39:32.002Z</time></trkpt><trkpt lat="45.966321914109976" lon="12.901365120679047"><ele>44.0</ele><time>2026-05-03T13:39:34.002Z</time></trkpt><trkpt lat="45.966461173218015" lon="12.901319888602643"><ele>44.0</ele><time>2026-05-03T13:39:37.002Z</time></trkpt><trkpt lat="45.96656501905908" lon="12.901296079356738"><ele>44.0</ele><time>2026-05-03T13:39:39.002Z</time></trkpt><trkpt lat="45.96662171201041" lon="12.901222279164"><ele>44.0</ele><time>2026-05-03T13:39:40.002Z</time></trkpt><trkpt lat="45.9666888101951" lon="12.90117273668763"><ele>44.0</ele><time>2026-05-03T13:39:41.002Z</time></trkpt><trkpt lat="45.96675184105189" lon="12.90114057616888"><ele>44.0</ele><time>2026-05-03T13:39:42.002Z</time></trkpt><trkpt lat="45.96683561207055" lon="12.901094796297354"><ele>44.0</ele><time>2026-05-03T13:39:44.002Z</time></trkpt><trkpt lat="45.9669240716096" lon="12.901190211219689"><ele>44.166666666666664</ele><time>2026-05-03T13:39:47.002Z</time></trkpt><trkpt lat="45.96692105314781" lon="12.90130318406736"><ele>44.33333333333333</ele><time>2026-05-03T13:39:48.002Z</time></trkpt><trkpt lat="45.96692858070426" lon="12.901454899248314"><ele>44.5</ele><time>2026-05-03T13:39:50.002Z</time></trkpt><trkpt lat="45.966892389615964" lon="12.901548260935842"><ele>44.666666666666664</ele><time>2026-05-03T13:39:51.002Z</time></trkpt><trkpt lat="45.96686058346181" lon="12.901639751521548"><ele>44.833333333333336</ele><time>2026-05-03T13:39:52.002Z</time></trkpt><trkpt lat="45.966796869973244" lon="12.90175017902099"><ele>45.0</ele><time>2026-05-03T13:39:54.002Z</time></trkpt><trkpt lat="45.96672169493602" lon="12.901825908154327"><ele>44.6</ele><time>2026-05-03T13:39:56.002Z</time></trkpt><trkpt lat="45.96665616390292" lon="12.901899249539074"><ele>44.2</ele><time>2026-05-03T13:39:58.003Z</time></trkpt><trkpt lat="45.96655945837448" lon="12.901948932644167"><ele>43.8</ele><time>2026-05-03T13:40:00.003Z</time></trkpt><trkpt lat="45.96649799518167" lon="12.902030825653641"><ele>43.4</ele><time>2026-05-03T13:40:03.003Z</time></trkpt><trkpt lat="45.96642475310597" lon="12.902194256027164"><ele>43.0</ele><time>2026-05-03T13:40:05.003Z</time></trkpt><trkpt lat="45.966406037326585" lon="12.902298860742384"><ele>43.0</ele><time>2026-05-03T13:40:06.003Z</time></trkpt><trkpt lat="45.96638109662512" lon="12.902398755319043"><ele>43.0</ele><time>2026-05-03T13:40:07.003Z</time></trkpt><trkpt lat="45.96634914060637" lon="12.902487526749805"><ele>43.0</ele><time>2026-05-03T13:40:08.003Z</time></trkpt><trkpt lat="45.966309662746944" lon="12.902564352804918"><ele>43.0</ele><time>2026-05-03T13:40:09.003Z</time></trkpt><trkpt lat="45.96618571668403" lon="12.902643897811215"><ele>43.0</ele><time>2026-05-03T13:40:11.003Z</time></trkpt><trkpt lat="45.9661199803735" lon="12.90267644118461"><ele>43.0</ele><time>2026-05-03T13:40:12.003Z</time></trkpt><trkpt lat="45.96604680546797" lon="12.902701875769633"><ele>43.0</ele><time>2026-05-03T13:40:13.003Z</time></trkpt><trkpt lat="45.96597031503624" lon="12.902716991311108"><ele>43.0</ele><time>2026-05-03T13:40:14.003Z</time></trkpt><trkpt lat="45.965869163459445" lon="12.9026670897553"><ele>43.0</ele><time>2026-05-03T13:40:16.003Z</time></trkpt><trkpt lat="45.96581620105989" lon="12.902583211543543"><ele>43.0</ele><time>2026-05-03T13:40:17.003Z</time></trkpt><trkpt lat="45.96574719814016" lon="12.902501691955027"><ele>43.0</ele><time>2026-05-03T13:40:18.003Z</time></trkpt><trkpt lat="45.96566993517074" lon="12.902418181358492"><ele>43.0</ele><time>2026-05-03T13:40:19.003Z</time></trkpt><trkpt lat="45.965608593101855" lon="12.902376882667424"><ele>43.0</ele><time>2026-05-03T13:40:20.003Z</time></trkpt><trkpt lat="45.96554310156895" lon="12.902349662808554"><ele>43.0</ele><time>2026-05-03T13:40:21.003Z</time></trkpt><trkpt lat="45.96546658715361" lon="12.902335535598386"><ele>43.0</ele><time>2026-05-03T13:40:22.003Z</time></trkpt><trkpt lat="45.96537143153994" lon="12.902341370458197"><ele>43.0</ele><time>2026-05-03T13:40:23.003Z</time></trkpt><trkpt lat="45.96529156386841" lon="12.902310711157172"><ele>43.0</ele><time>2026-05-03T13:40:24.003Z</time></trkpt><trkpt lat="45.96521835213674" lon="12.902277188314024"><ele>43.0</ele><time>2026-05-03T13:40:25.003Z</time></trkpt><trkpt lat="45.96515342295827" lon="12.90224480919102"><ele>43.0</ele><time>2026-05-03T13:40:26.003Z</time></trkpt><trkpt lat="45.96506834383385" lon="12.902178382700278"><ele>43.0</ele><time>2026-05-03T13:40:27.999Z</time></trkpt><trkpt lat="45.965001298321376" lon="12.902090532719479"><ele>43.0</ele><time>2026-05-03T13:40:29.999Z</time></trkpt><trkpt lat="45.96496182159812" lon="12.901987571021593"><ele>43.0</ele><time>2026-05-03T13:40:31.999Z</time></trkpt><trkpt lat="45.96496519615008" lon="12.901888405952413"><ele>43.0</ele><time>2026-05-03T13:40:33.999Z</time></trkpt><trkpt lat="45.96502710185516" lon="12.901777078625642"><ele>43.0</ele><time>2026-05-03T13:40:36Z</time></trkpt><trkpt lat="45.96508576347361" lon="12.901681458104786"><ele>43.00000000000001</ele><time>2026-05-03T13:40:39Z</time></trkpt><trkpt lat="45.965103590620316" lon="12.901578393811926"><ele>43.0</ele><time>2026-05-03T13:40:43Z</time></trkpt><trkpt lat="45.965063142965555" lon="12.90150273851608"><ele>43.0</ele><time>2026-05-03T13:40:44Z</time></trkpt><trkpt lat="45.96500508489566" lon="12.901419234273508"><ele>43.0</ele><time>2026-05-03T13:40:46Z</time></trkpt><trkpt lat="45.96501246453991" lon="12.901302336130927"><ele>43.0</ele><time>2026-05-03T13:40:48Z</time></trkpt><trkpt lat="45.9650707538367" lon="12.901263417720324"><ele>43.00000000000001</ele><time>2026-05-03T13:40:51Z</time></trkpt><trkpt lat="45.9651499250526" lon="12.901289819737336"><ele>43.0</ele><time>2026-05-03T13:40:53Z</time></trkpt><trkpt lat="45.96523711550663" lon="12.901300409250627"><ele>42.833333333333336</ele><time>2026-05-03T13:40:55Z</time></trkpt><trkpt lat="45.96533155286016" lon="12.901376264509208"><ele>42.66666666666667</ele><time>2026-05-03T13:40:57Z</time></trkpt><trkpt lat="45.965391407316254" lon="12.901428530579878"><ele>42.5</ele><time>2026-05-03T13:40:58Z</time></trkpt><trkpt lat="45.96544675648437" lon="12.901485010117463"><ele>42.333333333333336</ele><time>2026-05-03T13:40:59Z</time></trkpt><trkpt lat="45.9655357297495" lon="12.901537813717132"><ele>42.166666666666664</ele><time>2026-05-03T13:41:00Z</time></trkpt><trkpt lat="45.96562639900862" lon="12.90157867027416"><ele>42.0</ele><time>2026-05-03T13:41:01.001Z</time></trkpt><trkpt lat="45.9656972874935" lon="12.901611723886093"><ele>42.0</ele><time>2026-05-03T13:41:02.001Z</time></trkpt><trkpt lat="45.96576174271749" lon="12.901652937324922"><ele>42.0</ele><time>2026-05-03T13:41:03.001Z</time></trkpt><trkpt lat="45.965828802963316" lon="12.901710867089655"><ele>42.0</ele><time>2026-05-03T13:41:04.001Z</time></trkpt><trkpt lat="45.96589808446396" lon="12.901764107636332"><ele>42.0</ele><time>2026-05-03T13:41:05.001Z</time></trkpt><trkpt lat="45.96597126265165" lon="12.901803263931999"><ele>42.0</ele><time>2026-05-03T13:41:06.001Z</time></trkpt><trkpt lat="45.96605812656436" lon="12.901827507576773"><ele>42.0</ele><time>2026-05-03T13:41:07.001Z</time></trkpt><trkpt lat="45.966127526048226" lon="12.90183020702627"><ele>42.2</ele><time>2026-05-03T13:41:08.001Z</time></trkpt><trkpt lat="45.96622679447318" lon="12.901792960306452"><ele>42.400000000000006</ele><time>2026-05-03T13:41:10.001Z</time></trkpt><trkpt lat="45.96630052498713" lon="12.901826950219046"><ele>42.599999999999994</ele><time>2026-05-03T13:41:11.001Z</time></trkpt><trkpt lat="45.966377792709395" lon="12.901869796962453"><ele>42.8</ele><time>2026-05-03T13:41:12.001Z</time></trkpt><trkpt lat="45.96647062334501" lon="12.90183091469209"><ele>43.0</ele><time>2026-05-03T13:41:15.001Z</time></trkpt><trkpt lat="45.96643264044141" lon="12.901700013473278"><ele>43.2</ele><time>2026-05-03T13:41:17.001Z</time></trkpt><trkpt lat="45.966370551956786" lon="12.901618457067093"><ele>43.4</ele><time>2026-05-03T13:41:18.001Z</time></trkpt><trkpt lat="45.966313830505285" lon="12.90154969998379"><ele>43.6</ele><time>2026-05-03T13:41:19.001Z</time></trkpt><trkpt lat="45.96625571396406" lon="12.901435466097011"><ele>43.800000000000004</ele><time>2026-05-03T13:41:21.001Z</time></trkpt><trkpt lat="45.96630432931477" lon="12.901297878780607"><ele>44.0</ele><time>2026-05-03T13:41:23.001Z</time></trkpt><trkpt lat="45.96638287287237" lon="12.901193869743715"><ele>44.0</ele><time>2026-05-03T13:41:25.001Z</time></trkpt><trkpt lat="45.96651085104271" lon="12.901153348094367"><ele>44.0</ele><time>2026-05-03T13:41:28.001Z</time></trkpt><trkpt lat="45.96657192360986" lon="12.901190699878411"><ele>44.0</ele><time>2026-05-03T13:41:29.001Z</time></trkpt><trkpt lat="45.96669344929739" lon="12.901154134766093"><ele>44.0</ele><time>2026-05-03T13:41:31.002Z</time></trkpt><trkpt lat="45.96677724022507" lon="12.901094969561788"><ele>44.0</ele><time>2026-05-03T13:41:32.002Z</time></trkpt><trkpt lat="45.966840419928104" lon="12.90104812333884"><ele>44.166666666666664</ele><time>2026-05-03T13:41:33.002Z</time></trkpt><trkpt lat="45.96692591704778" lon="12.900988285468895"><ele>44.33333333333333</ele><time>2026-05-03T13:41:35.002Z</time></trkpt><trkpt lat="45.96699445803781" lon="12.901105303557415"><ele>44.5</ele><time>2026-05-03T13:41:38.002Z</time></trkpt><trkpt lat="45.96700588890549" lon="12.901218387784132"><ele>44.666666666666664</ele><time>2026-05-03T13:41:39.002Z</time></trkpt><trkpt lat="45.96700798169681" lon="12.901344565144923"><ele>44.833333333333336</ele><time>2026-05-03T13:41:40.002Z</time></trkpt><trkpt lat="45.966997311290925" lon="12.901443199505382"><ele>45.0</ele><time>2026-05-03T13:41:41.002Z</time></trkpt><trkpt lat="45.96697374435525" lon="12.901532742984"><ele>45.0</ele><time>2026-05-03T13:41:42.002Z</time></trkpt><trkpt lat="45.96693970985847" lon="12.90162391656457"><ele>45.0</ele><time>2026-05-03T13:41:43.002Z</time></trkpt><trkpt lat="45.966902267879526" lon="12.901701170819251"><ele>45.0</ele><time>2026-05-03T13:41:44.002Z</time></trkpt><trkpt lat="45.96681950284239" lon="12.901813022834224"><ele>45.0</ele><time>2026-05-03T13:41:46.002Z</time></trkpt><trkpt lat="45.96672968161821" lon="12.901898823205602"><ele>45.0</ele><time>2026-05-03T13:41:48.002Z</time></trkpt><trkpt lat="45.96661748825546" lon="12.901912109660827"><ele>44.6</ele><time>2026-05-03T13:41:49.002Z</time></trkpt><trkpt lat="45.9665223873817" lon="12.901970881369289"><ele>44.2</ele><time>2026-05-03T13:41:51.002Z</time></trkpt><trkpt lat="45.9664804941461" lon="12.90204614533222"><ele>43.8</ele><time>2026-05-03T13:41:53.002Z</time></trkpt><trkpt lat="45.966426888623864" lon="12.90218542640692"><ele>43.4</ele><time>2026-05-03T13:41:55.002Z</time></trkpt><trkpt lat="45.966391828333684" lon="12.902295242308261"><ele>43.0</ele><time>2026-05-03T13:41:56.002Z</time></trkpt><trkpt lat="45.96634895100279" lon="12.902414692834284"><ele>43.0</ele><time>2026-05-03T13:41:57.002Z</time></trkpt><trkpt lat="45.96629857955125" lon="12.902495794192973"><ele>43.0</ele><time>2026-05-03T13:41:58.002Z</time></trkpt><trkpt lat="45.96623359410193" lon="12.902514672937013"><ele>43.0</ele><time>2026-05-03T13:41:59.002Z</time></trkpt><trkpt lat="45.966158738021306" lon="12.902540662690908"><ele>43.0</ele><time>2026-05-03T13:42:00.002Z</time></trkpt><trkpt lat="45.96608458295073" lon="12.902546164698192"><ele>43.0</ele><time>2026-05-03T13:42:01.002Z</time></trkpt><trkpt lat="45.96594993895006" lon="12.902547752888793"><ele>43.0</ele><time>2026-05-03T13:42:03.003Z</time></trkpt><trkpt lat="45.96588685535523" lon="12.90252937266383"><ele>43.0</ele><time>2026-05-03T13:42:04.003Z</time></trkpt><trkpt lat="45.965815859216335" lon="12.902511876256982"><ele>43.0</ele><time>2026-05-03T13:42:05.003Z</time></trkpt><trkpt lat="45.96575187117763" lon="12.902480524271873"><ele>43.0</ele><time>2026-05-03T13:42:06.003Z</time></trkpt><trkpt lat="45.96569058662033" lon="12.902451370216957"><ele>43.0</ele><time>2026-05-03T13:42:07.003Z</time></trkpt><trkpt lat="45.96557016988552" lon="12.90238084510774"><ele>43.0</ele><time>2026-05-03T13:42:09.003Z</time></trkpt><trkpt lat="45.96549709303523" lon="12.90234831838256"><ele>43.0</ele><time>2026-05-03T13:42:10.003Z</time></trkpt><trkpt lat="45.96539785690383" lon="12.902332684923048"><ele>43.0</ele><time>2026-05-03T13:42:11.003Z</time></trkpt><trkpt lat="45.9653241286093" lon="12.902330069307952"><ele>43.0</ele><time>2026-05-03T13:42:12.003Z</time></trkpt><trkpt lat="45.96520251736154" lon="12.902284914765492"><ele>43.0</ele><time>2026-05-03T13:42:14.003Z</time></trkpt><trkpt lat="45.96508745403969" lon="12.90220629684466"><ele>43.0</ele><time>2026-05-03T13:42:16.003Z</time></trkpt><trkpt lat="45.96503343131574" lon="12.902151117549096"><ele>43.0</ele><time>2026-05-03T13:42:17.003Z</time></trkpt><trkpt lat="45.96496997199614" lon="12.902040220799885"><ele>43.0</ele><time>2026-05-03T13:42:19.003Z</time></trkpt><trkpt lat="45.96497125107159" lon="12.90192224936008"><ele>43.0</ele><time>2026-05-03T13:42:21.003Z</time></trkpt><trkpt lat="45.96500538399064" lon="12.901811151866504"><ele>43.0</ele><time>2026-05-03T13:42:23.003Z</time></trkpt><trkpt lat="45.96506002538229" lon="12.901715237276976"><ele>43.0</ele><time>2026-05-03T13:42:26.003Z</time></trkpt><trkpt lat="45.96511309871819" lon="12.901637999042233"><ele>43.0</ele><time>2026-05-03T13:42:29.003Z</time></trkpt><trkpt lat="45.96507716520877" lon="12.901537930714687"><ele>43.0</ele><time>2026-05-03T13:42:32.003Z</time></trkpt><trkpt lat="45.965064866084845" lon="12.901371199413493"><ele>42.833333333333336</ele><time>2026-05-03T13:42:33.999Z</time></trkpt><trkpt lat="45.96503474345681" lon="12.90126203336466"><ele>42.66666666666667</ele><time>2026-05-03T13:42:35.999Z</time></trkpt><trkpt lat="45.96512446414154" lon="12.901265533309669"><ele>42.5</ele><time>2026-05-03T13:42:39.999Z</time></trkpt><trkpt lat="45.965219627364945" lon="12.901292727837415"><ele>42.333333333333336</ele><time>2026-05-03T13:42:41.999Z</time></trkpt><trkpt lat="45.9652743599871" lon="12.90135599661216"><ele>42.166666666666664</ele><time>2026-05-03T13:42:43.999Z</time></trkpt><trkpt lat="45.9653414078353" lon="12.90143320795381"><ele>42.0</ele><time>2026-05-03T13:42:45.999Z</time></trkpt><trkpt lat="45.9654446892781" lon="12.901495851907073"><ele>42.0</ele><time>2026-05-03T13:42:48Z</time></trkpt><trkpt lat="45.965515577761494" lon="12.901539250939878"><ele>42.0</ele><time>2026-05-03T13:42:49Z</time></trkpt><trkpt lat="45.96558813994629" lon="12.901572779972145"><ele>42.0</ele><time>2026-05-03T13:42:50Z</time></trkpt><trkpt lat="45.96569962767559" lon="12.901648411133435"><ele>42.0</ele><time>2026-05-03T13:42:52Z</time></trkpt><trkpt lat="45.96577074199021" lon="12.90169350537152"><ele>42.0</ele><time>2026-05-03T13:42:53Z</time></trkpt><trkpt lat="45.965832222471256" lon="12.901720980406564"><ele>42.0</ele><time>2026-05-03T13:42:54Z</time></trkpt><trkpt lat="45.96590428132276" lon="12.90179572277817"><ele>42.166666666666664</ele><time>2026-05-03T13:42:56Z</time></trkpt><trkpt lat="45.96600316177115" lon="12.90180172011602"><ele>42.333333333333336</ele><time>2026-05-03T13:42:57Z</time></trkpt><trkpt lat="45.96608772235358" lon="12.90182900301991"><ele>42.5</ele><time>2026-05-03T13:42:58Z</time></trkpt><trkpt lat="45.96615748370599" lon="12.901823577852493"><ele>42.66666666666667</ele><time>2026-05-03T13:42:59Z</time></trkpt><trkpt lat="45.96625117811102" lon="12.901824774990793"><ele>42.833333333333336</ele><time>2026-05-03T13:43:01Z</time></trkpt><trkpt lat="45.96633807858288" lon="12.9018885789264"><ele>43.0</ele><time>2026-05-03T13:43:03Z</time></trkpt><trkpt lat="45.96641979210464" lon="12.901897986355133"><ele>43.0</ele><time>2026-05-03T13:43:05Z</time></trkpt><trkpt lat="45.96639614534228" lon="12.901772027378144"><ele>43.0</ele><time>2026-05-03T13:43:08.001Z</time></trkpt><trkpt lat="45.96633293395495" lon="12.90161220296647"><ele>43.0</ele><time>2026-05-03T13:43:09.001Z</time></trkpt><trkpt lat="45.96627436564009" lon="12.901538821797292"><ele>43.0</ele><time>2026-05-03T13:43:10.001Z</time></trkpt><trkpt lat="45.966261931726415" lon="12.901433489438753"><ele>43.0</ele><time>2026-05-03T13:43:12.001Z</time></trkpt><trkpt lat="45.96631740721757" lon="12.9012873417129"><ele>43.16666666666667</ele><time>2026-05-03T13:43:14.001Z</time></trkpt><trkpt lat="45.96639859085582" lon="12.901181826931476"><ele>43.333333333333336</ele><time>2026-05-03T13:43:16.001Z</time></trkpt><trkpt lat="45.966470862293654" lon="12.901222903881678"><ele>43.5</ele><time>2026-05-03T13:43:18.001Z</time></trkpt><trkpt lat="45.96657078593884" lon="12.901267961851618"><ele>43.666666666666664</ele><time>2026-05-03T13:43:20.001Z</time></trkpt><trkpt lat="45.966634628583854" lon="12.901256477379432"><ele>43.83333333333333</ele><time>2026-05-03T13:43:21.001Z</time></trkpt><trkpt lat="45.966704537530674" lon="12.901202023836554"><ele>44.0</ele><time>2026-05-03T13:43:22.001Z</time></trkpt><trkpt lat="45.966759429501224" lon="12.901146524912301"><ele>44.2</ele><time>2026-05-03T13:43:23.001Z</time></trkpt><trkpt lat="45.96684942100417" lon="12.901064830367265"><ele>44.400000000000006</ele><time>2026-05-03T13:43:25.001Z</time></trkpt><trkpt lat="45.966929655245465" lon="12.901003356305976"><ele>44.6</ele><time>2026-05-03T13:43:27.001Z</time></trkpt><trkpt lat="45.96692974985916" lon="12.901164500058792"><ele>44.8</ele><time>2026-05-03T13:43:29.001Z</time></trkpt><trkpt lat="45.96695133211705" lon="12.901284066071282"><ele>45.0</ele><time>2026-05-03T13:43:30.001Z</time></trkpt><trkpt lat="45.96693689517537" lon="12.901418051318869"><ele>45.0</ele><time>2026-05-03T13:43:31.001Z</time></trkpt><trkpt lat="45.9668994644173" lon="12.901513995260345"><ele>45.0</ele><time>2026-05-03T13:43:32.001Z</time></trkpt><trkpt lat="45.96686988792764" lon="12.901596178469"><ele>45.0</ele><time>2026-05-03T13:43:33.001Z</time></trkpt><trkpt lat="45.96681801444641" lon="12.901716395646826"><ele>45.0</ele><time>2026-05-03T13:43:35.001Z</time></trkpt><trkpt lat="45.96673805893852" lon="12.901804989324784"><ele>45.0</ele><time>2026-05-03T13:43:37.002Z</time></trkpt><trkpt lat="45.966646544462" lon="12.901867005720721"><ele>45.0</ele><time>2026-05-03T13:43:39.002Z</time></trkpt><trkpt lat="45.966549813325756" lon="12.901899414858008"><ele>44.5</ele><time>2026-05-03T13:43:41.002Z</time></trkpt><trkpt lat="45.9665036298185" lon="12.901964683967735"><ele>44.0</ele><time>2026-05-03T13:43:42.002Z</time></trkpt><trkpt lat="45.96644437811704" lon="12.90201366507919"><ele>43.5</ele><time>2026-05-03T13:43:44.002Z</time></trkpt><trkpt lat="45.966418761492015" lon="12.902122546264694"><ele>43.0</ele><time>2026-05-03T13:43:47.002Z</time></trkpt><trkpt lat="45.966279385935664" lon="12.902505302843215"><ele>43.0</ele><time>2026-05-03T13:43:50.002Z</time></trkpt><trkpt lat="45.966236103907285" lon="12.902579497164723"><ele>43.0</ele><time>2026-05-03T13:43:51.002Z</time></trkpt><trkpt lat="45.96610402538359" lon="12.902618927793196"><ele>43.0</ele><time>2026-05-03T13:43:53.002Z</time></trkpt><trkpt lat="45.96603491783515" lon="12.902635053226977"><ele>43.0</ele><time>2026-05-03T13:43:54.002Z</time></trkpt><trkpt lat="45.96596600636716" lon="12.902633742135162"><ele>43.0</ele><time>2026-05-03T13:43:55.002Z</time></trkpt><trkpt lat="45.96583413350004" lon="12.90261567728081"><ele>43.0</ele><time>2026-05-03T13:43:57.002Z</time></trkpt><trkpt lat="45.96576443163329" lon="12.902557277589368"><ele>43.0</ele><time>2026-05-03T13:43:58.002Z</time></trkpt><trkpt lat="45.96571815701947" lon="12.902470570986418"><ele>43.0</ele><time>2026-05-03T13:43:59.002Z</time></trkpt><trkpt lat="45.96560973849015" lon="12.902410881527413"><ele>43.0</ele><time>2026-05-03T13:44:01.002Z</time></trkpt><trkpt lat="45.96554429992285" lon="12.90236308876502"><ele>43.0</ele><time>2026-05-03T13:44:02.002Z</time></trkpt><trkpt lat="45.96547399092335" lon="12.902339519100218"><ele>43.0</ele><time>2026-05-03T13:44:03.002Z</time></trkpt><trkpt lat="45.96538940565164" lon="12.90233529468358"><ele>43.0</ele><time>2026-05-03T13:44:04.002Z</time></trkpt><trkpt lat="45.96531185474466" lon="12.90233082866133"><ele>43.0</ele><time>2026-05-03T13:44:05.002Z</time></trkpt><trkpt lat="45.96524277151544" lon="12.902279670208046"><ele>43.0</ele><time>2026-05-03T13:44:06.002Z</time></trkpt><trkpt lat="45.96516590687193" lon="12.902248057002181"><ele>43.0</ele><time>2026-05-03T13:44:07.002Z</time></trkpt><trkpt lat="45.96506201038549" lon="12.902162685717984"><ele>43.0</ele><time>2026-05-03T13:44:09.002Z</time></trkpt><trkpt lat="45.96498570866085" lon="12.902103488947544"><ele>43.0</ele><time>2026-05-03T13:44:11.003Z</time></trkpt><trkpt lat="45.964967716286154" lon="12.90188916305658"><ele>43.0</ele><time>2026-05-03T13:47:04Z</time></trkpt><trkpt lat="45.965014559686196" lon="12.90178209120863"><ele>43.0</ele><time>2026-05-03T13:47:06Z</time></trkpt><trkpt lat="45.965057583554994" lon="12.901706803622101"><ele>43.0</ele><time>2026-05-03T13:47:08Z</time></trkpt><trkpt lat="45.965106242118594" lon="12.901636143795612"><ele>43.0</ele><time>2026-05-03T13:47:10Z</time></trkpt><trkpt lat="45.96509039651561" lon="12.901536723363824"><ele>43.0</ele><time>2026-05-03T13:47:13Z</time></trkpt><trkpt lat="45.96502331683041" lon="12.901418016927366"><ele>43.0</ele><time>2026-05-03T13:47:15Z</time></trkpt><trkpt lat="45.96500674121919" lon="12.901290332706388"><ele>42.8</ele><time>2026-05-03T13:47:17.001Z</time></trkpt><trkpt lat="45.96521464372331" lon="12.901296081996986"><ele>42.599999999999994</ele><time>2026-05-03T13:47:22.001Z</time></trkpt><trkpt lat="45.96528098409176" lon="12.901346846023408"><ele>42.400000000000006</ele><time>2026-05-03T13:47:24.001Z</time></trkpt><trkpt lat="45.96534174180875" lon="12.901409027336628"><ele>42.2</ele><time>2026-05-03T13:47:25.001Z</time></trkpt><trkpt lat="45.965417051811045" lon="12.901484106871902"><ele>42.0</ele><time>2026-05-03T13:47:26.001Z</time></trkpt><trkpt lat="45.965501526325596" lon="12.901527301329663"><ele>42.0</ele><time>2026-05-03T13:47:27.001Z</time></trkpt><trkpt lat="45.96556808053877" lon="12.901556714810589"><ele>42.0</ele><time>2026-05-03T13:47:28.001Z</time></trkpt><trkpt lat="45.96564539471788" lon="12.901579554383234"><ele>42.0</ele><time>2026-05-03T13:47:29.001Z</time></trkpt><trkpt lat="45.96572071862778" lon="12.901633647463006"><ele>42.0</ele><time>2026-05-03T13:47:30.001Z</time></trkpt><trkpt lat="45.96580723713943" lon="12.901662887628445"><ele>42.0</ele><time>2026-05-03T13:47:31.001Z</time></trkpt><trkpt lat="45.965884684871334" lon="12.901725827004906"><ele>42.0</ele><time>2026-05-03T13:47:32.001Z</time></trkpt><trkpt lat="45.9659431498814" lon="12.901801281015592"><ele>42.166666666666664</ele><time>2026-05-03T13:47:33.001Z</time></trkpt><trkpt lat="45.9660081643673" lon="12.90180641244899"><ele>42.333333333333336</ele><time>2026-05-03T13:47:34.001Z</time></trkpt><trkpt lat="45.966090239957566" lon="12.901835708159327"><ele>42.5</ele><time>2026-05-03T13:47:35.001Z</time></trkpt><trkpt lat="45.96617629308312" lon="12.901822871974176"><ele>42.66666666666667</ele><time>2026-05-03T13:47:36.001Z</time></trkpt><trkpt lat="45.966271099792166" lon="12.901805020199706"><ele>42.833333333333336</ele><time>2026-05-03T13:47:38.001Z</time></trkpt><trkpt lat="45.96635184407661" lon="12.901844503424535"><ele>43.0</ele><time>2026-05-03T13:47:39.001Z</time></trkpt><trkpt lat="45.96641554350889" lon="12.901893821011226"><ele>43.0</ele><time>2026-05-03T13:47:40.001Z</time></trkpt><trkpt lat="45.96642265897139" lon="12.90178115667896"><ele>43.0</ele><time>2026-05-03T13:47:43.001Z</time></trkpt><trkpt lat="45.966360495922046" lon="12.9016315730525"><ele>43.0</ele><time>2026-05-03T13:47:45.001Z</time></trkpt><trkpt lat="45.96629911737197" lon="12.901547699441199"><ele>43.0</ele><time>2026-05-03T13:47:46.001Z</time></trkpt><trkpt lat="45.966241183160385" lon="12.901436352756319"><ele>43.0</ele><time>2026-05-03T13:47:48.002Z</time></trkpt><trkpt lat="45.966297061047804" lon="12.901289974441976"><ele>43.16666666666667</ele><time>2026-05-03T13:47:50.002Z</time></trkpt><trkpt lat="45.96636844218786" lon="12.90119927729306"><ele>43.333333333333336</ele><time>2026-05-03T13:47:52.002Z</time></trkpt><trkpt lat="45.96644281940672" lon="12.901225462991874"><ele>43.5</ele><time>2026-05-03T13:47:54.002Z</time></trkpt><trkpt lat="45.966527618504664" lon="12.90125789189305"><ele>43.666666666666664</ele><time>2026-05-03T13:47:56.002Z</time></trkpt><trkpt lat="45.96661012936209" lon="12.901182596752138"><ele>43.83333333333333</ele><time>2026-05-03T13:47:58.002Z</time></trkpt><trkpt lat="45.966682868387984" lon="12.901129821558085"><ele>44.0</ele><time>2026-05-03T13:47:59.002Z</time></trkpt><trkpt lat="45.96680523134322" lon="12.901116100493367"><ele>44.2</ele><time>2026-05-03T13:48:00.002Z</time></trkpt><trkpt lat="45.9669034108227" lon="12.901028867086383"><ele>44.400000000000006</ele><time>2026-05-03T13:48:02.002Z</time></trkpt><trkpt lat="45.96697208933039" lon="12.901131038841761"><ele>44.6</ele><time>2026-05-03T13:48:06.002Z</time></trkpt><trkpt lat="45.96699417238831" lon="12.901248949158257"><ele>44.8</ele><time>2026-05-03T13:48:07.002Z</time></trkpt><trkpt lat="45.96699792770808" lon="12.901341698087274"><ele>45.0</ele><time>2026-05-03T13:48:08.002Z</time></trkpt><trkpt lat="45.96697257621699" lon="12.901518304358113"><ele>45.0</ele><time>2026-05-03T13:48:10.002Z</time></trkpt><trkpt lat="45.96694058261207" lon="12.901609876778785"><ele>45.0</ele><time>2026-05-03T13:48:11.002Z</time></trkpt><trkpt lat="45.96690405728765" lon="12.901690318927862"><ele>45.0</ele><time>2026-05-03T13:48:12.002Z</time></trkpt><trkpt lat="45.96682290410531" lon="12.901799736880822"><ele>45.0</ele><time>2026-05-03T13:48:14.002Z</time></trkpt><trkpt lat="45.96673043350982" lon="12.901884097811351"><ele>45.0</ele><time>2026-05-03T13:48:16.002Z</time></trkpt><trkpt lat="45.96662708640468" lon="12.901956248786547"><ele>44.6</ele><time>2026-05-03T13:48:18.002Z</time></trkpt><trkpt lat="45.96656009039805" lon="12.901991567025835"><ele>44.2</ele><time>2026-05-03T13:48:19.002Z</time></trkpt><trkpt lat="45.96646210944609" lon="12.901982996796487"><ele>43.8</ele><time>2026-05-03T13:48:21.003Z</time></trkpt><trkpt lat="45.96643871555868" lon="12.902146084807205"><ele>43.4</ele><time>2026-05-03T13:48:23.003Z</time></trkpt><trkpt lat="45.966383725288324" lon="12.902236679121254"><ele>43.0</ele><time>2026-05-03T13:48:24.003Z</time></trkpt><trkpt lat="45.96635354485999" lon="12.902360601711651"><ele>43.0</ele><time>2026-05-03T13:48:25.003Z</time></trkpt><trkpt lat="45.966309279990675" lon="12.902437340076931"><ele>43.0</ele><time>2026-05-03T13:48:26.003Z</time></trkpt><trkpt lat="45.96622298614929" lon="12.902514506935729"><ele>43.0</ele><time>2026-05-03T13:48:28.003Z</time></trkpt><trkpt lat="45.96615677067681" lon="12.902546384899065"><ele>43.0</ele><time>2026-05-03T13:48:29.003Z</time></trkpt><trkpt lat="45.966085163615034" lon="12.902581912398583"><ele>43.0</ele><time>2026-05-03T13:48:30.003Z</time></trkpt><trkpt lat="45.96599626968781" lon="12.902591222431173"><ele>43.0</ele><time>2026-05-03T13:48:32.003Z</time></trkpt><trkpt lat="45.9659265006824" lon="12.902600772644107"><ele>43.0</ele><time>2026-05-03T13:48:34.003Z</time></trkpt><trkpt lat="45.9657983939922" lon="12.902534877165955"><ele>43.0</ele><time>2026-05-03T13:48:36.003Z</time></trkpt><trkpt lat="45.96574196128962" lon="12.902484807391597"><ele>43.0</ele><time>2026-05-03T13:48:37.003Z</time></trkpt><trkpt lat="45.96563575391257" lon="12.902419983886578"><ele>43.0</ele><time>2026-05-03T13:48:39.003Z</time></trkpt><trkpt lat="45.965511346620254" lon="12.902348942088015"><ele>43.0</ele><time>2026-05-03T13:48:41.003Z</time></trkpt><trkpt lat="45.96544097515431" lon="12.902332256898392"><ele>43.0</ele><time>2026-05-03T13:48:42.003Z</time></trkpt><trkpt lat="45.96537435407864" lon="12.902315824223933"><ele>43.0</ele><time>2026-05-03T13:48:43.003Z</time></trkpt><trkpt lat="45.96530874549667" lon="12.902319164785617"><ele>43.0</ele><time>2026-05-03T13:48:44.003Z</time></trkpt><trkpt lat="45.96523769677268" lon="12.902281385350358"><ele>43.0</ele><time>2026-05-03T13:48:45.003Z</time></trkpt><trkpt lat="45.96512376251172" lon="12.902236444736268"><ele>43.0</ele><time>2026-05-03T13:48:47.003Z</time></trkpt><trkpt lat="45.965050714324576" lon="12.902195565912228"><ele>43.0</ele><time>2026-05-03T13:48:48.003Z</time></trkpt><trkpt lat="45.96496699155175" lon="12.902169740079492"><ele>43.0</ele><time>2026-05-03T13:48:50.003Z</time></trkpt><trkpt lat="45.96489446439966" lon="12.902168072197043"><ele>43.0</ele><time>2026-05-03T13:48:52Z</time></trkpt><trkpt lat="45.96496271271929" lon="12.902174609309043"><ele>43.0</ele><time>2026-05-03T13:49:40.001Z</time></trkpt><trkpt lat="45.964954990587515" lon="12.902022643897956"><ele>43.0</ele><time>2026-05-03T13:49:44.001Z</time></trkpt><trkpt lat="45.964953151024595" lon="12.901882792696851"><ele>43.0</ele><time>2026-05-03T13:49:46.001Z</time></trkpt><trkpt lat="45.96501828797177" lon="12.901766642802157"><ele>42.833333333333336</ele><time>2026-05-03T13:49:48.001Z</time></trkpt><trkpt lat="45.9650607930925" lon="12.901684242915714"><ele>42.66666666666667</ele><time>2026-05-03T13:49:51.001Z</time></trkpt><trkpt lat="45.96511731251768" lon="12.901609325544602"><ele>42.5</ele><time>2026-05-03T13:49:54.001Z</time></trkpt><trkpt lat="45.96504534579016" lon="12.901491524064344"><ele>42.333333333333336</ele><time>2026-05-03T13:49:56.002Z</time></trkpt><trkpt lat="45.96504372721489" lon="12.901398623925811"><ele>42.166666666666664</ele><time>2026-05-03T13:49:57.002Z</time></trkpt><trkpt lat="45.96503516445562" lon="12.901286490386802"><ele>42.0</ele><time>2026-05-03T13:49:59.002Z</time></trkpt><trkpt lat="45.96510343143527" lon="12.901266052550776"><ele>42.0</ele><time>2026-05-03T13:50:02.002Z</time></trkpt><trkpt lat="45.96521468348459" lon="12.90130253135378"><ele>42.0</ele><time>2026-05-03T13:50:04.002Z</time></trkpt><trkpt lat="45.96530626494145" lon="12.901363064101304"><ele>42.0</ele><time>2026-05-03T13:50:06.002Z</time></trkpt><trkpt lat="45.965417825750635" lon="12.901460650204562"><ele>42.0</ele><time>2026-05-03T13:50:08.002Z</time></trkpt><trkpt lat="45.965497356953364" lon="12.901518709642962"><ele>42.0</ele><time>2026-05-03T13:50:09.002Z</time></trkpt><trkpt lat="45.96558112048483" lon="12.901565959046199"><ele>42.0</ele><time>2026-05-03T13:50:10.002Z</time></trkpt><trkpt lat="45.965656737555385" lon="12.901584545884365"><ele>42.0</ele><time>2026-05-03T13:50:11.002Z</time></trkpt><trkpt lat="45.965729018903176" lon="12.901629547896277"><ele>42.0</ele><time>2026-05-03T13:50:12.002Z</time></trkpt><trkpt lat="45.96579843255889" lon="12.901677170723474"><ele>42.0</ele><time>2026-05-03T13:50:13.002Z</time></trkpt><trkpt lat="45.96587457920653" lon="12.901746126316512"><ele>42.0</ele><time>2026-05-03T13:50:14.002Z</time></trkpt><trkpt lat="45.96593739682413" lon="12.901795616473278"><ele>42.0</ele><time>2026-05-03T13:50:15.002Z</time></trkpt><trkpt lat="45.9660131948446" lon="12.90182937476151"><ele>42.2</ele><time>2026-05-03T13:50:16.002Z</time></trkpt><trkpt lat="45.966092582036616" lon="12.901842520589565"><ele>42.400000000000006</ele><time>2026-05-03T13:50:17.002Z</time></trkpt><trkpt lat="45.96621037120917" lon="12.901816243324829"><ele>42.599999999999994</ele><time>2026-05-03T13:50:19.002Z</time></trkpt><trkpt lat="45.96631856359376" lon="12.901847537049528"><ele>42.8</ele><time>2026-05-03T13:50:21.002Z</time></trkpt><trkpt lat="45.966377633238984" lon="12.901881794919117"><ele>43.0</ele><time>2026-05-03T13:50:22.002Z</time></trkpt><trkpt lat="45.966456864415726" lon="12.901825747004878"><ele>43.16666666666667</ele><time>2026-05-03T13:50:25.002Z</time></trkpt><trkpt lat="45.966396575156566" lon="12.901677087137708"><ele>43.333333333333336</ele><time>2026-05-03T13:50:27.002Z</time></trkpt><trkpt lat="45.96634007564209" lon="12.901611793879345"><ele>43.5</ele><time>2026-05-03T13:50:28.002Z</time></trkpt><trkpt lat="45.96628792750776" lon="12.901543044134339"><ele>43.666666666666664</ele><time>2026-05-03T13:50:29.002Z</time></trkpt><trkpt lat="45.96625263780274" lon="12.901421730525383"><ele>43.83333333333333</ele><time>2026-05-03T13:50:31.003Z</time></trkpt><trkpt lat="45.96629695061474" lon="12.901350819785103"><ele>44.0</ele><time>2026-05-03T13:50:33.003Z</time></trkpt><trkpt lat="45.966382142183804" lon="12.901205189401605"><ele>44.0</ele><time>2026-05-03T13:50:34.003Z</time></trkpt><trkpt lat="45.966459934659" lon="12.901223225650961"><ele>44.0</ele><time>2026-05-03T13:50:36.003Z</time></trkpt><trkpt lat="45.96657392020718" lon="12.901284185425743"><ele>44.0</ele><time>2026-05-03T13:50:38.003Z</time></trkpt><trkpt lat="45.966651031170386" lon="12.901187711894778"><ele>44.0</ele><time>2026-05-03T13:50:40.003Z</time></trkpt><trkpt lat="45.96674026343817" lon="12.90113201846051"><ele>44.0</ele><time>2026-05-03T13:50:41.003Z</time></trkpt><trkpt lat="45.966806922759744" lon="12.901101439452201"><ele>44.25</ele><time>2026-05-03T13:50:42.003Z</time></trkpt><trkpt lat="45.96689569559791" lon="12.900999263511379"><ele>44.5</ele><time>2026-05-03T13:50:44.003Z</time></trkpt><trkpt lat="45.96694275564407" lon="12.901149478141026"><ele>44.75</ele><time>2026-05-03T13:50:46.003Z</time></trkpt><trkpt lat="45.96696578201344" lon="12.901353802926055"><ele>45.0</ele><time>2026-05-03T13:50:48.003Z</time></trkpt><trkpt lat="45.966940773728886" lon="12.901528726242107"><ele>45.0</ele><time>2026-05-03T13:50:50.003Z</time></trkpt><trkpt lat="45.96687879764595" lon="12.901673772005395"><ele>45.0</ele><time>2026-05-03T13:50:52.003Z</time></trkpt><trkpt lat="45.966803393352365" lon="12.901774074208054"><ele>45.0</ele><time>2026-05-03T13:50:54.003Z</time></trkpt><trkpt lat="45.966748647525726" lon="12.90182467922834"><ele>45.0</ele><time>2026-05-03T13:50:55.003Z</time></trkpt><trkpt lat="45.966680599640725" lon="12.90188965061865"><ele>45.0</ele><time>2026-05-03T13:50:57.001Z</time></trkpt><trkpt lat="45.96655988080267" lon="12.901948287601144"><ele>44.6</ele><time>2026-05-03T13:50:59.001Z</time></trkpt><trkpt lat="45.96648041129844" lon="12.902013681685562"><ele>44.2</ele><time>2026-05-03T13:51:01Z</time></trkpt><trkpt lat="45.96644215810139" lon="12.902169133888307"><ele>43.8</ele><time>2026-05-03T13:51:03Z</time></trkpt><trkpt lat="45.966401188429884" lon="12.902280558048076"><ele>43.4</ele><time>2026-05-03T13:51:04Z</time></trkpt><trkpt lat="45.96638538376991" lon="12.902375484345516"><ele>43.0</ele><time>2026-05-03T13:51:05Z</time></trkpt><trkpt lat="45.966308066647365" lon="12.902513376116541"><ele>43.0</ele><time>2026-05-03T13:51:07Z</time></trkpt><trkpt lat="45.96624861680284" lon="12.902569497773374"><ele>43.0</ele><time>2026-05-03T13:51:08Z</time></trkpt><trkpt lat="45.96618856972613" lon="12.902643477898021"><ele>43.0</ele><time>2026-05-03T13:51:09Z</time></trkpt><trkpt lat="45.966125991660164" lon="12.902714877633748"><ele>43.0</ele><time>2026-05-03T13:51:10Z</time></trkpt><trkpt lat="45.966029430765005" lon="12.90277515928191"><ele>43.0</ele><time>2026-05-03T13:51:12Z</time></trkpt><trkpt lat="45.96593180501643" lon="12.902776992397271"><ele>43.0</ele><time>2026-05-03T13:51:14Z</time></trkpt><trkpt lat="45.96584137691706" lon="12.902731917383822"><ele>43.0</ele><time>2026-05-03T13:51:16Z</time></trkpt><trkpt lat="45.96578363259839" lon="12.90264892625923"><ele>43.0</ele><time>2026-05-03T13:51:17Z</time></trkpt><trkpt lat="45.965728171952186" lon="12.902546609520991"><ele>43.0</ele><time>2026-05-03T13:51:18Z</time></trkpt><trkpt lat="45.96567525356995" lon="12.902472923244224"><ele>43.0</ele><time>2026-05-03T13:51:19Z</time></trkpt><trkpt lat="45.96555962938468" lon="12.902359250981938"><ele>43.0</ele><time>2026-05-03T13:51:21Z</time></trkpt><trkpt lat="45.9654889048571" lon="12.902328869781929"><ele>43.0</ele><time>2026-05-03T13:51:22Z</time></trkpt><trkpt lat="45.96541335930464" lon="12.902326245260886"><ele>43.0</ele><time>2026-05-03T13:51:23Z</time></trkpt><trkpt lat="45.965324946322674" lon="12.902325321976777"><ele>43.0</ele><time>2026-05-03T13:51:24Z</time></trkpt><trkpt lat="45.96525403739467" lon="12.902301712157833"><ele>43.0</ele><time>2026-05-03T13:51:25Z</time></trkpt><trkpt lat="45.96514402839973" lon="12.902246927711763"><ele>43.0</ele><time>2026-05-03T13:51:27.001Z</time></trkpt><trkpt lat="45.9650409805276" lon="12.902198370420237"><ele>43.0</ele><time>2026-05-03T13:51:29.001Z</time></trkpt><trkpt lat="45.96497883872224" lon="12.902153217126086"><ele>43.0</ele><time>2026-05-03T13:53:28Z</time></trkpt><trkpt lat="45.96495016701212" lon="12.902040678455693"><ele>43.0</ele><time>2026-05-03T13:53:31.001Z</time></trkpt><trkpt lat="45.96495506180582" lon="12.90190524025037"><ele>43.0</ele><time>2026-05-03T13:53:33.001Z</time></trkpt><trkpt lat="45.96500012487845" lon="12.901797560933463"><ele>43.0</ele><time>2026-05-03T13:53:35.001Z</time></trkpt><trkpt lat="45.96503955923165" lon="12.901707036319603"><ele>43.0</ele><time>2026-05-03T13:53:37.001Z</time></trkpt><trkpt lat="45.965124495393994" lon="12.901626282797077"><ele>42.833333333333336</ele><time>2026-05-03T13:53:40.001Z</time></trkpt><trkpt lat="45.965093684842316" lon="12.901545549864966"><ele>42.66666666666667</ele><time>2026-05-03T13:53:42.001Z</time></trkpt><trkpt lat="45.965068637795646" lon="12.901445335006311"><ele>42.5</ele><time>2026-05-03T13:53:44.001Z</time></trkpt><trkpt lat="45.96503486033416" lon="12.901368715176764"><ele>42.333333333333336</ele><time>2026-05-03T13:53:46.001Z</time></trkpt><trkpt lat="45.96509380265986" lon="12.90128550055331"><ele>42.166666666666664</ele><time>2026-05-03T13:53:49.001Z</time></trkpt><trkpt lat="45.9652016126621" lon="12.901327783702364"><ele>42.0</ele><time>2026-05-03T13:53:52.001Z</time></trkpt><trkpt lat="45.96525885064331" lon="12.901368329781528"><ele>42.0</ele><time>2026-05-03T13:53:54.001Z</time></trkpt><trkpt lat="45.96560921531898" lon="12.901582531299907"><ele>42.0</ele><time>2026-05-03T13:53:57.001Z</time></trkpt><trkpt lat="45.96570228313481" lon="12.901635214520953"><ele>42.0</ele><time>2026-05-03T13:54:00.001Z</time></trkpt><trkpt lat="45.965840320846326" lon="12.901742802015963"><ele>42.0</ele><time>2026-05-03T13:54:01.001Z</time></trkpt><trkpt lat="45.96597403248585" lon="12.901804695954652"><ele>42.0</ele><time>2026-05-03T13:54:03.001Z</time></trkpt><trkpt lat="45.96604490507805" lon="12.901831081868334"><ele>42.0</ele><time>2026-05-03T13:54:04.001Z</time></trkpt><trkpt lat="45.966122353851425" lon="12.901822849174636"><ele>42.0</ele><time>2026-05-03T13:54:05.001Z</time></trkpt><trkpt lat="45.96618672973772" lon="12.901830860873254"><ele>42.2</ele><time>2026-05-03T13:54:06.001Z</time></trkpt><trkpt lat="45.966350951601136" lon="12.901847490176587"><ele>42.400000000000006</ele><time>2026-05-03T13:54:08.001Z</time></trkpt><trkpt lat="45.966414602394366" lon="12.901899505963167"><ele>42.599999999999994</ele><time>2026-05-03T13:54:09.001Z</time></trkpt><trkpt lat="45.966478703081336" lon="12.90188768711156"><ele>42.8</ele><time>2026-05-03T13:54:11.001Z</time></trkpt><trkpt lat="45.96646942132734" lon="12.901728922656602"><ele>43.0</ele><time>2026-05-03T13:54:13.001Z</time></trkpt><trkpt lat="45.966392658354586" lon="12.901585016929586"><ele>43.25</ele><time>2026-05-03T13:54:15.001Z</time></trkpt><trkpt lat="45.96631015696633" lon="12.901517433590588"><ele>43.5</ele><time>2026-05-03T13:54:16.001Z</time></trkpt><trkpt lat="45.96626426793247" lon="12.9014053789844"><ele>43.75</ele><time>2026-05-03T13:54:18.001Z</time></trkpt><trkpt lat="45.96634758295632" lon="12.901348298234085"><ele>44.0</ele><time>2026-05-03T13:54:22.002Z</time></trkpt><trkpt lat="45.96649109938741" lon="12.901163723207912"><ele>44.0</ele><time>2026-05-03T13:54:24.002Z</time></trkpt><trkpt lat="45.96660231796557" lon="12.901215213617585"><ele>44.0</ele><time>2026-05-03T13:54:26.002Z</time></trkpt><trkpt lat="45.9667280502639" lon="12.901138670076062"><ele>44.0</ele><time>2026-05-03T13:54:28.002Z</time></trkpt><trkpt lat="45.96679313397458" lon="12.901090397351517"><ele>44.0</ele><time>2026-05-03T13:54:29.002Z</time></trkpt><trkpt lat="45.96684994161146" lon="12.901050608419446"><ele>44.0</ele><time>2026-05-03T13:54:30.002Z</time></trkpt><trkpt lat="45.966928640707614" lon="12.901006407964484"><ele>44.166666666666664</ele><time>2026-05-03T13:54:32.002Z</time></trkpt><trkpt lat="45.96699663986815" lon="12.901080859330403"><ele>44.33333333333333</ele><time>2026-05-03T13:54:34.002Z</time></trkpt><trkpt lat="45.967010723531764" lon="12.901269527531557"><ele>44.5</ele><time>2026-05-03T13:54:36.002Z</time></trkpt><trkpt lat="45.96700793923092" lon="12.901370564109017"><ele>44.666666666666664</ele><time>2026-05-03T13:54:37.002Z</time></trkpt><trkpt lat="45.966997742387626" lon="12.901463178446415"><ele>44.833333333333336</ele><time>2026-05-03T13:54:38.002Z</time></trkpt><trkpt lat="45.966973196190644" lon="12.901560138138882"><ele>45.0</ele><time>2026-05-03T13:54:39.002Z</time></trkpt><trkpt lat="45.966934599611555" lon="12.901658531769224"><ele>45.0</ele><time>2026-05-03T13:54:40.002Z</time></trkpt><trkpt lat="45.966890103007806" lon="12.901737022225884"><ele>45.0</ele><time>2026-05-03T13:54:41.002Z</time></trkpt><trkpt lat="45.96679380930903" lon="12.90184740153295"><ele>45.0</ele><time>2026-05-03T13:54:43.002Z</time></trkpt><trkpt lat="45.96663718891028" lon="12.901914935635167"><ele>45.0</ele><time>2026-05-03T13:54:45.002Z</time></trkpt><trkpt lat="45.96652747869959" lon="12.9019644577978"><ele>44.666666666666664</ele><time>2026-05-03T13:54:47.002Z</time></trkpt><trkpt lat="45.966455116541596" lon="12.902053161686311"><ele>44.333333333333336</ele><time>2026-05-03T13:54:49.002Z</time></trkpt><trkpt lat="45.9664290831958" lon="12.902145267209592"><ele>44.0</ele><time>2026-05-03T13:54:50.002Z</time></trkpt><trkpt lat="45.96642588234074" lon="12.902269585681054"><ele>43.66666666666667</ele><time>2026-05-03T13:54:51.002Z</time></trkpt><trkpt lat="45.96639093449326" lon="12.902344920688869"><ele>43.333333333333336</ele><time>2026-05-03T13:54:52.002Z</time></trkpt><trkpt lat="45.966347106249586" lon="12.902421822659509"><ele>43.0</ele><time>2026-05-03T13:54:53.002Z</time></trkpt><trkpt lat="45.96628663748777" lon="12.90249862635652"><ele>43.0</ele><time>2026-05-03T13:54:54.002Z</time></trkpt><trkpt lat="45.96624214561235" lon="12.90257032272973"><ele>43.0</ele><time>2026-05-03T13:54:55.002Z</time></trkpt><trkpt lat="45.96613403335301" lon="12.902630078373447"><ele>43.0</ele><time>2026-05-03T13:54:57.002Z</time></trkpt><trkpt lat="45.966024040766534" lon="12.902644375126085"><ele>43.0</ele><time>2026-05-03T13:54:59.002Z</time></trkpt><trkpt lat="45.96594946726848" lon="12.902609017075541"><ele>43.0</ele><time>2026-05-03T13:55:01.002Z</time></trkpt><trkpt lat="45.96581626699383" lon="12.902563207290529"><ele>43.0</ele><time>2026-05-03T13:55:03.002Z</time></trkpt><trkpt lat="45.96575480944286" lon="12.902507622023677"><ele>43.0</ele><time>2026-05-03T13:55:04.002Z</time></trkpt><trkpt lat="45.9656608343892" lon="12.902412751166626"><ele>43.0</ele><time>2026-05-03T13:55:06.003Z</time></trkpt><trkpt lat="45.9655854809953" lon="12.902367926155977"><ele>43.0</ele><time>2026-05-03T13:55:07.003Z</time></trkpt><trkpt lat="45.965498320562624" lon="12.902349648390484"><ele>43.0</ele><time>2026-05-03T13:55:08.003Z</time></trkpt><trkpt lat="45.965409713983036" lon="12.90234008071589"><ele>43.0</ele><time>2026-05-03T13:55:09Z</time></trkpt><trkpt lat="45.96531374118388" lon="12.90232546905444"><ele>43.00000000000001</ele><time>2026-05-03T13:55:10Z</time></trkpt><trkpt lat="45.965243217221015" lon="12.902300058389773"><ele>43.0</ele><time>2026-05-03T13:55:11Z</time></trkpt><trkpt lat="45.965177088262266" lon="12.90226410663104"><ele>43.0</ele><time>2026-05-03T13:55:12Z</time></trkpt><trkpt lat="45.965113585963145" lon="12.902227780659056"><ele>43.0</ele><time>2026-05-03T13:55:13Z</time></trkpt><trkpt lat="45.96505224032561" lon="12.902191465722332"><ele>43.0</ele><time>2026-05-03T13:55:14Z</time></trkpt><trkpt lat="45.964987426619636" lon="12.902094940180309"><ele>43.00000000000001</ele><time>2026-05-03T13:55:16Z</time></trkpt><trkpt lat="45.96498217323418" lon="12.902003454981658"><ele>43.0</ele><time>2026-05-03T13:55:17Z</time></trkpt><trkpt lat="45.964987760408235" lon="12.901867898640198"><ele>43.00000000000001</ele><time>2026-05-03T13:55:19Z</time></trkpt><trkpt lat="45.965029306249605" lon="12.901788159459919"><ele>43.0</ele><time>2026-05-03T13:55:22Z</time></trkpt><trkpt lat="45.96507571647909" lon="12.901694098428615"><ele>43.0</ele><time>2026-05-03T13:55:25Z</time></trkpt><trkpt lat="45.965098307039796" lon="12.901574242366788"><ele>43.0</ele><time>2026-05-03T13:55:28Z</time></trkpt><trkpt lat="45.96505532923939" lon="12.901502223808551"><ele>43.0</ele><time>2026-05-03T13:55:29Z</time></trkpt><trkpt lat="45.96501387017925" lon="12.90142479843687"><ele>43.00000000000001</ele><time>2026-05-03T13:55:30Z</time></trkpt><trkpt lat="45.96500303658916" lon="12.901312136277422"><ele>43.0</ele><time>2026-05-03T13:55:32Z</time></trkpt><trkpt lat="45.96507175190222" lon="12.901274088579376"><ele>42.8</ele><time>2026-05-03T13:55:36Z</time></trkpt><trkpt lat="45.96513748559069" lon="12.901285834633372"><ele>42.599999999999994</ele><time>2026-05-03T13:55:38.001Z</time></trkpt><trkpt lat="45.96519827426713" lon="12.90132789107373"><ele>42.400000000000006</ele><time>2026-05-03T13:55:40.001Z</time></trkpt><trkpt lat="45.96526955546027" lon="12.901382820877123"><ele>42.2</ele><time>2026-05-03T13:55:42.001Z</time></trkpt><trkpt lat="45.96540054157228" lon="12.901483620492174"><ele>42.0</ele><time>2026-05-03T13:55:44.001Z</time></trkpt><trkpt lat="45.96548706878263" lon="12.9015384262268"><ele>42.0</ele><time>2026-05-03T13:55:45.001Z</time></trkpt><trkpt lat="45.96556701293008" lon="12.901575230621656"><ele>42.0</ele><time>2026-05-03T13:55:46.001Z</time></trkpt><trkpt lat="45.96564625755057" lon="12.901588370924294"><ele>42.0</ele><time>2026-05-03T13:55:47.001Z</time></trkpt><trkpt lat="45.96572931339916" lon="12.90165225802899"><ele>42.0</ele><time>2026-05-03T13:55:48.001Z</time></trkpt><trkpt lat="45.96579911231127" lon="12.901707189496536"><ele>42.0</ele><time>2026-05-03T13:55:49.001Z</time></trkpt><trkpt lat="45.96586549556409" lon="12.901757947320716"><ele>42.0</ele><time>2026-05-03T13:55:50.001Z</time></trkpt><trkpt lat="45.96593869434696" lon="12.90179491169124"><ele>42.166666666666664</ele><time>2026-05-03T13:55:51.001Z</time></trkpt><trkpt lat="45.966021615862836" lon="12.901817118701546"><ele>42.333333333333336</ele><time>2026-05-03T13:55:52.001Z</time></trkpt><trkpt lat="45.96609022669937" lon="12.901804938377607"><ele>42.5</ele><time>2026-05-03T13:55:53.001Z</time></trkpt><trkpt lat="45.966152576930526" lon="12.90178490267927"><ele>42.66666666666667</ele><time>2026-05-03T13:55:54.001Z</time></trkpt><trkpt lat="45.96626555338457" lon="12.901817732309771"><ele>42.833333333333336</ele><time>2026-05-03T13:55:56.001Z</time></trkpt><trkpt lat="45.96634259457685" lon="12.901865832021189"><ele>43.0</ele><time>2026-05-03T13:55:57.001Z</time></trkpt><trkpt lat="45.966419976401525" lon="12.90184352596338"><ele>43.16666666666667</ele><time>2026-05-03T13:55:59.001Z</time></trkpt><trkpt lat="45.96641077890467" lon="12.901733175167603"><ele>43.333333333333336</ele><time>2026-05-03T13:56:01.001Z</time></trkpt><trkpt lat="45.96637057197331" lon="12.901661097736817"><ele>43.5</ele><time>2026-05-03T13:56:02.001Z</time></trkpt><trkpt lat="45.96628851573572" lon="12.901542982548895"><ele>43.666666666666664</ele><time>2026-05-03T13:56:04.001Z</time></trkpt><trkpt lat="45.966248455461226" lon="12.901461823916161"><ele>43.83333333333333</ele><time>2026-05-03T13:56:05.001Z</time></trkpt><trkpt lat="45.96627083717447" lon="12.901343665309499"><ele>44.0</ele><time>2026-05-03T13:56:07.001Z</time></trkpt><trkpt lat="45.96633309917397" lon="12.901236221347549"><ele>44.0</ele><time>2026-05-03T13:56:09.001Z</time></trkpt><trkpt lat="45.96640313603127" lon="12.901213653982284"><ele>44.0</ele><time>2026-05-03T13:56:11.001Z</time></trkpt><trkpt lat="45.96648216490654" lon="12.901253552869743"><ele>44.0</ele><time>2026-05-03T13:56:13.001Z</time></trkpt><trkpt lat="45.96655656508152" lon="12.901216799232582"><ele>44.0</ele><time>2026-05-03T13:56:15.001Z</time></trkpt><trkpt lat="45.96673100990599" lon="12.901181933238693"><ele>44.0</ele><time>2026-05-03T13:56:16.001Z</time></trkpt><trkpt lat="45.96679233179343" lon="12.901125976711585"><ele>44.142857142857146</ele><time>2026-05-03T13:56:17.001Z</time></trkpt><trkpt lat="45.966852204169854" lon="12.901075638898787"><ele>44.285714285714285</ele><time>2026-05-03T13:56:18.001Z</time></trkpt><trkpt lat="45.96692349642813" lon="12.901014086641833"><ele>44.42857142857143</ele><time>2026-05-03T13:56:20.001Z</time></trkpt><trkpt lat="45.96698799664679" lon="12.901056298664965"><ele>44.57142857142857</ele><time>2026-05-03T13:56:22.001Z</time></trkpt><trkpt lat="45.96701709510415" lon="12.901150896276938"><ele>44.714285714285715</ele><time>2026-05-03T13:56:23.001Z</time></trkpt><trkpt lat="45.96702551434883" lon="12.90126612899896"><ele>44.857142857142854</ele><time>2026-05-03T13:56:24.001Z</time></trkpt><trkpt lat="45.96701768000061" lon="12.901364228714348"><ele>45.0</ele><time>2026-05-03T13:56:25.001Z</time></trkpt><trkpt lat="45.96700116982337" lon="12.901456480088155"><ele>45.0</ele><time>2026-05-03T13:56:26.001Z</time></trkpt><trkpt lat="45.966973898591206" lon="12.901539189397324"><ele>45.0</ele><time>2026-05-03T13:56:27.001Z</time></trkpt><trkpt lat="45.96693425372408" lon="12.901623749173101"><ele>45.0</ele><time>2026-05-03T13:56:28.002Z</time></trkpt><trkpt lat="45.96689205159557" lon="12.901693801819263"><ele>45.0</ele><time>2026-05-03T13:56:29.002Z</time></trkpt><trkpt lat="45.96684074521843" lon="12.901762159288143"><ele>45.0</ele><time>2026-05-03T13:56:30.002Z</time></trkpt><trkpt lat="45.966787962989756" lon="12.901818027368696"><ele>45.0</ele><time>2026-05-03T13:56:31.002Z</time></trkpt><trkpt lat="45.96669492344735" lon="12.901910700788571"><ele>45.0</ele><time>2026-05-03T13:56:33.002Z</time></trkpt><trkpt lat="45.96652556224646" lon="12.90195558620474"><ele>44.6</ele><time>2026-05-03T13:56:35.002Z</time></trkpt><trkpt lat="45.96647410746012" lon="12.902023440435071"><ele>44.2</ele><time>2026-05-03T13:56:37.002Z</time></trkpt><trkpt lat="45.96644099121366" lon="12.902126050908976"><ele>43.8</ele><time>2026-05-03T13:56:38.002Z</time></trkpt><trkpt lat="45.9664048255141" lon="12.902244816102682"><ele>43.4</ele><time>2026-05-03T13:56:39.002Z</time></trkpt><trkpt lat="45.96636974256444" lon="12.902358260498119"><ele>43.0</ele><time>2026-05-03T13:56:40.002Z</time></trkpt><trkpt lat="45.96629144547767" lon="12.902513991596427"><ele>43.0</ele><time>2026-05-03T13:56:42.002Z</time></trkpt><trkpt lat="45.96623977030759" lon="12.902589204377716"><ele>43.0</ele><time>2026-05-03T13:56:43.002Z</time></trkpt><trkpt lat="45.96615134879449" lon="12.902656906911384"><ele>43.0</ele><time>2026-05-03T13:56:45.002Z</time></trkpt><trkpt lat="45.96602935838454" lon="12.90267571129501"><ele>43.0</ele><time>2026-05-03T13:56:47.002Z</time></trkpt><trkpt lat="45.96595613088793" lon="12.902678486979775"><ele>43.0</ele><time>2026-05-03T13:56:48.002Z</time></trkpt><trkpt lat="45.965834241073196" lon="12.902650093703066"><ele>43.0</ele><time>2026-05-03T13:56:50.002Z</time></trkpt><trkpt lat="45.96577377172177" lon="12.902590591099662"><ele>43.0</ele><time>2026-05-03T13:56:51.002Z</time></trkpt><trkpt lat="45.96572549877575" lon="12.902514936296146"><ele>43.0</ele><time>2026-05-03T13:56:52.002Z</time></trkpt><trkpt lat="45.965684384825025" lon="12.902442943606165"><ele>43.0</ele><time>2026-05-03T13:56:53.002Z</time></trkpt><trkpt lat="45.9655693632318" lon="12.90236146925521"><ele>43.0</ele><time>2026-05-03T13:56:55.002Z</time></trkpt><trkpt lat="45.96549433041454" lon="12.902328150547085"><ele>43.0</ele><time>2026-05-03T13:56:56.002Z</time></trkpt><trkpt lat="45.96541790921217" lon="12.902320764182644"><ele>43.0</ele><time>2026-05-03T13:56:57.002Z</time></trkpt><trkpt lat="45.965339118481864" lon="12.902316751237013"><ele>43.0</ele><time>2026-05-03T13:56:58.002Z</time></trkpt><trkpt lat="45.965222429540404" lon="12.90227048185434"><ele>43.0</ele><time>2026-05-03T13:57:00.002Z</time></trkpt><trkpt lat="45.965108072181984" lon="12.902213237443398"><ele>43.0</ele><time>2026-05-03T13:57:02.002Z</time></trkpt><trkpt lat="45.96504814998127" lon="12.902172236829852"><ele>43.0</ele><time>2026-05-03T13:57:04.002Z</time></trkpt><trkpt lat="45.96499533756091" lon="12.902102873260366"><ele>43.0</ele><time>2026-05-03T13:57:06.002Z</time></trkpt><trkpt lat="45.96497321549698" lon="12.902014578386625"><ele>43.0</ele><time>2026-05-03T13:57:09.002Z</time></trkpt><trkpt lat="45.96499557627738" lon="12.901895487049869"><ele>43.0</ele><time>2026-05-03T13:57:12.002Z</time></trkpt><trkpt lat="45.965037929246904" lon="12.90181625563796"><ele>43.0</ele><time>2026-05-03T13:57:15Z</time></trkpt><trkpt lat="45.96504070798644" lon="12.901702192911142"><ele>43.0</ele><time>2026-05-03T13:57:18Z</time></trkpt><trkpt lat="45.96505632502472" lon="12.901454186330522"><ele>43.0</ele><time>2026-05-03T13:57:20Z</time></trkpt><trkpt lat="45.965026558970116" lon="12.901348654836326"><ele>43.0</ele><time>2026-05-03T13:57:23Z</time></trkpt><trkpt lat="45.96509099016154" lon="12.901286889733786"><ele>43.0</ele><time>2026-05-03T13:57:25Z</time></trkpt><trkpt lat="45.96521072815033" lon="12.9013074573061"><ele>43.0</ele><time>2026-05-03T13:57:27Z</time></trkpt><trkpt lat="45.96527925773464" lon="12.901357094316975"><ele>43.0</ele><time>2026-05-03T13:57:29Z</time></trkpt><trkpt lat="45.96538434206003" lon="12.901436450532337"><ele>42.833333333333336</ele><time>2026-05-03T13:57:46.001Z</time></trkpt><trkpt lat="45.965445046372025" lon="12.901483838534148"><ele>42.66666666666667</ele><time>2026-05-03T13:57:47.001Z</time></trkpt><trkpt lat="45.965532249619784" lon="12.901530169355041"><ele>42.5</ele><time>2026-05-03T13:57:48.001Z</time></trkpt><trkpt lat="45.96561379603186" lon="12.901568375379952"><ele>42.333333333333336</ele><time>2026-05-03T13:57:49.001Z</time></trkpt><trkpt lat="45.96568296380229" lon="12.90160316029175"><ele>42.166666666666664</ele><time>2026-05-03T13:57:50.001Z</time></trkpt><trkpt lat="45.96575365445559" lon="12.90163867920328"><ele>42.0</ele><time>2026-05-03T13:57:51.001Z</time></trkpt><trkpt lat="45.96580672611368" lon="12.901690452324589"><ele>42.142857142857146</ele><time>2026-05-03T13:57:52.001Z</time></trkpt><trkpt lat="45.96587294224362" lon="12.901745769326938"><ele>42.285714285714285</ele><time>2026-05-03T13:57:53.001Z</time></trkpt><trkpt lat="45.96593476652523" lon="12.90178914843106"><ele>42.42857142857143</ele><time>2026-05-03T13:57:54.001Z</time></trkpt><trkpt lat="45.965999766599495" lon="12.901818465943489"><ele>42.57142857142857</ele><time>2026-05-03T13:57:55.001Z</time></trkpt><trkpt lat="45.96607413529495" lon="12.901840334235485"><ele>42.714285714285715</ele><time>2026-05-03T13:57:56.001Z</time></trkpt><trkpt lat="45.96613928981936" lon="12.901828764793743"><ele>42.85714285714286</ele><time>2026-05-03T13:57:57.001Z</time></trkpt><trkpt lat="45.96621190497125" lon="12.901803124017764"><ele>43.0</ele><time>2026-05-03T13:57:58.001Z</time></trkpt><trkpt lat="45.96633029751591" lon="12.901864239273527"><ele>43.0</ele><time>2026-05-03T13:58:00.001Z</time></trkpt><trkpt lat="45.96642278965801" lon="12.901899936720696"><ele>43.0</ele><time>2026-05-03T13:58:02.001Z</time></trkpt><trkpt lat="45.96645035426428" lon="12.901792219611027"><ele>43.0</ele><time>2026-05-03T13:58:04.001Z</time></trkpt><trkpt lat="45.96636707226332" lon="12.901649946736617"><ele>43.0</ele><time>2026-05-03T13:58:06.001Z</time></trkpt><trkpt lat="45.96630378620384" lon="12.901570664813102"><ele>43.0</ele><time>2026-05-03T13:58:07.001Z</time></trkpt><trkpt lat="45.96625650621633" lon="12.901486525268114"><ele>43.16666666666667</ele><time>2026-05-03T13:58:09.001Z</time></trkpt><trkpt lat="45.96627917308082" lon="12.9013702304323"><ele>43.333333333333336</ele><time>2026-05-03T13:58:11.001Z</time></trkpt><trkpt lat="45.96633492916947" lon="12.901293955856154"><ele>43.5</ele><time>2026-05-03T13:58:14.001Z</time></trkpt><trkpt lat="45.96640336186351" lon="12.901282468823307"><ele>43.666666666666664</ele><time>2026-05-03T13:58:15.001Z</time></trkpt><trkpt lat="45.96648560735961" lon="12.901289074159612"><ele>43.83333333333333</ele><time>2026-05-03T13:58:16.001Z</time></trkpt><trkpt lat="45.966604285614814" lon="12.901209905514248"><ele>44.0</ele><time>2026-05-03T13:58:18.001Z</time></trkpt><trkpt lat="45.96667189061694" lon="12.901160695188633"><ele>44.2</ele><time>2026-05-03T13:58:19.001Z</time></trkpt><trkpt lat="45.966745303075136" lon="12.901105014952883"><ele>44.400000000000006</ele><time>2026-05-03T13:58:20.001Z</time></trkpt><trkpt lat="45.96684208267418" lon="12.901023142877657"><ele>44.6</ele><time>2026-05-03T13:58:22.001Z</time></trkpt><trkpt lat="45.966902699784804" lon="12.901094121042535"><ele>44.8</ele><time>2026-05-03T13:58:24.001Z</time></trkpt><trkpt lat="45.96691274495101" lon="12.901280233991342"><ele>45.0</ele><time>2026-05-03T13:58:26.001Z</time></trkpt><trkpt lat="45.96693094260382" lon="12.90136703220805"><ele>45.0</ele><time>2026-05-03T13:58:27.001Z</time></trkpt><trkpt lat="45.96688970253694" lon="12.901520349304496"><ele>45.0</ele><time>2026-05-03T13:58:29.001Z</time></trkpt><trkpt lat="45.966859980355125" lon="12.901612644561142"><ele>45.0</ele><time>2026-05-03T13:58:30.001Z</time></trkpt><trkpt lat="45.9668283975356" lon="12.901694321081727"><ele>45.0</ele><time>2026-05-03T13:58:31.001Z</time></trkpt><trkpt lat="45.96671709219729" lon="12.901819687765476"><ele>45.0</ele><time>2026-05-03T13:58:33.001Z</time></trkpt><trkpt lat="45.966640895007785" lon="12.901892486699616"><ele>44.6</ele><time>2026-05-03T13:58:35.001Z</time></trkpt><trkpt lat="45.966540634054105" lon="12.90195312641882"><ele>44.2</ele><time>2026-05-03T13:58:37.001Z</time></trkpt><trkpt lat="45.96645185563922" lon="12.902022168907662"><ele>43.8</ele><time>2026-05-03T13:58:39.002Z</time></trkpt><trkpt lat="45.96640694641688" lon="12.902170340858511"><ele>43.4</ele><time>2026-05-03T13:58:41.002Z</time></trkpt><trkpt lat="45.96635467318644" lon="12.902320755362211"><ele>43.0</ele><time>2026-05-03T13:58:43.002Z</time></trkpt><trkpt lat="45.96630404255692" lon="12.902439314933257"><ele>43.0</ele><time>2026-05-03T13:58:44.002Z</time></trkpt><trkpt lat="45.96625543247744" lon="12.902603949664098"><ele>43.0</ele><time>2026-05-03T13:58:46.002Z</time></trkpt><trkpt lat="45.966203274100494" lon="12.902703430183594"><ele>43.0</ele><time>2026-05-03T13:58:48.002Z</time></trkpt><trkpt lat="45.966116173804295" lon="12.902759791438774"><ele>43.0</ele><time>2026-05-03T13:58:50.002Z</time></trkpt><trkpt lat="45.96599356301217" lon="12.902794762336514"><ele>43.0</ele><time>2026-05-03T13:58:52.002Z</time></trkpt><trkpt lat="45.965881298089116" lon="12.90276744045482"><ele>43.0</ele><time>2026-05-03T13:58:54.002Z</time></trkpt><trkpt lat="45.96580297181481" lon="12.902704955022791"><ele>43.0</ele><time>2026-05-03T13:58:56.002Z</time></trkpt><trkpt lat="45.96575215810702" lon="12.90263688249838"><ele>43.0</ele><time>2026-05-03T13:58:57.002Z</time></trkpt><trkpt lat="45.965708895134206" lon="12.902571023732438"><ele>43.0</ele><time>2026-05-03T13:58:58.002Z</time></trkpt><trkpt lat="45.96563632546775" lon="12.902451558524538"><ele>43.0</ele><time>2026-05-03T13:59:00.002Z</time></trkpt><trkpt lat="45.965552962566434" lon="12.902342628043467"><ele>43.0</ele><time>2026-05-03T13:59:02.002Z</time></trkpt><trkpt lat="45.96549115931213" lon="12.90231446464154"><ele>43.0</ele><time>2026-05-03T13:59:03.002Z</time></trkpt><trkpt lat="45.965417177409904" lon="12.902304681069756"><ele>43.0</ele><time>2026-05-03T13:59:04.002Z</time></trkpt><trkpt lat="45.96534403659678" lon="12.902307750801738"><ele>43.0</ele><time>2026-05-03T13:59:05.002Z</time></trkpt><trkpt lat="45.96521601262315" lon="12.902267858512996"><ele>43.0</ele><time>2026-05-03T13:59:07.002Z</time></trkpt><trkpt lat="45.96514531435149" lon="12.902231191004548"><ele>43.0</ele><time>2026-05-03T13:59:08.002Z</time></trkpt><trkpt lat="45.965049472448584" lon="12.902190278213014"><ele>43.0</ele><time>2026-05-03T13:59:10.002Z</time></trkpt><trkpt lat="45.96498576049439" lon="12.902157651224034"><ele>43.0</ele><time>2026-05-03T13:59:13.002Z</time></trkpt><trkpt lat="45.96495681214901" lon="12.901870412624106"><ele>43.0</ele><time>2026-05-03T14:04:31.001Z</time></trkpt><trkpt lat="45.96502594144258" lon="12.901736905714197"><ele>43.0</ele><time>2026-05-03T14:04:33.001Z</time></trkpt><trkpt lat="45.96507126521255" lon="12.901644120726505"><ele>43.0</ele><time>2026-05-03T14:04:36.001Z</time></trkpt><trkpt lat="45.96507208463127" lon="12.901527055060532"><ele>43.0</ele><time>2026-05-03T14:04:39.001Z</time></trkpt><trkpt lat="45.96503431249194" lon="12.90142526506767"><ele>43.0</ele><time>2026-05-03T14:04:40.001Z</time></trkpt><trkpt lat="45.965017313799976" lon="12.901298509485072"><ele>43.0</ele><time>2026-05-03T14:04:42.001Z</time></trkpt><trkpt lat="45.96514966327247" lon="12.90128273974452"><ele>43.0</ele><time>2026-05-03T14:04:47.001Z</time></trkpt><trkpt lat="45.9652102616143" lon="12.901325581119579"><ele>42.8</ele><time>2026-05-03T14:04:49.001Z</time></trkpt><trkpt lat="45.96527335348208" lon="12.901362846213983"><ele>42.599999999999994</ele><time>2026-05-03T14:04:51.001Z</time></trkpt><trkpt lat="45.96533540363576" lon="12.901440821541023"><ele>42.400000000000006</ele><time>2026-05-03T14:04:54.001Z</time></trkpt><trkpt lat="45.96543434533958" lon="12.901464366442472"><ele>42.2</ele><time>2026-05-03T14:04:55.001Z</time></trkpt><trkpt lat="45.96554723532287" lon="12.901521741305721"><ele>42.0</ele><time>2026-05-03T14:04:56.001Z</time></trkpt><trkpt lat="45.96577667527032" lon="12.90167399468383"><ele>42.0</ele><time>2026-05-03T14:04:57.001Z</time></trkpt><trkpt lat="45.965861150638666" lon="12.901739860103786"><ele>42.0</ele><time>2026-05-03T14:04:58.001Z</time></trkpt><trkpt lat="45.965938015869575" lon="12.901800222396211"><ele>42.0</ele><time>2026-05-03T14:04:59.001Z</time></trkpt><trkpt lat="45.966006002501096" lon="12.901835678698527"><ele>42.0</ele><time>2026-05-03T14:05:00.001Z</time></trkpt><trkpt lat="45.966074638004784" lon="12.901843259393857"><ele>42.0</ele><time>2026-05-03T14:05:01.001Z</time></trkpt><trkpt lat="45.96615609574295" lon="12.901846630401591"><ele>42.0</ele><time>2026-05-03T14:05:02.001Z</time></trkpt><trkpt lat="45.96627108381828" lon="12.901806775028394"><ele>42.166666666666664</ele><time>2026-05-03T14:05:04.001Z</time></trkpt><trkpt lat="45.96634244957803" lon="12.901838375608289"><ele>42.333333333333336</ele><time>2026-05-03T14:05:05.001Z</time></trkpt><trkpt lat="45.96640892941056" lon="12.901888485289252"><ele>42.5</ele><time>2026-05-03T14:05:06.002Z</time></trkpt><trkpt lat="45.96648120811736" lon="12.901873837972207"><ele>42.66666666666667</ele><time>2026-05-03T14:05:08.002Z</time></trkpt><trkpt lat="45.966462623705624" lon="12.901718379337774"><ele>42.833333333333336</ele><time>2026-05-03T14:05:10.002Z</time></trkpt><trkpt lat="45.96642048256175" lon="12.901582866127344"><ele>43.0</ele><time>2026-05-03T14:05:12.002Z</time></trkpt><trkpt lat="45.96636630545567" lon="12.901521020985316"><ele>43.16666666666667</ele><time>2026-05-03T14:05:13.002Z</time></trkpt><trkpt lat="45.966303050347875" lon="12.901448773305827"><ele>43.333333333333336</ele><time>2026-05-03T14:05:14.002Z</time></trkpt><trkpt lat="45.96626752664985" lon="12.901343795025944"><ele>43.5</ele><time>2026-05-03T14:05:16.002Z</time></trkpt><trkpt lat="45.96631787826084" lon="12.901255826409871"><ele>43.666666666666664</ele><time>2026-05-03T14:05:17.002Z</time></trkpt><trkpt lat="45.96641017393449" lon="12.901211575849105"><ele>43.83333333333333</ele><time>2026-05-03T14:05:19.002Z</time></trkpt><trkpt lat="45.966500244963704" lon="12.901167180072212"><ele>44.0</ele><time>2026-05-03T14:05:21.002Z</time></trkpt><trkpt lat="45.96657074939834" lon="12.90120559183443"><ele>44.2</ele><time>2026-05-03T14:05:22.002Z</time></trkpt><trkpt lat="45.966695392678155" lon="12.901178080092402"><ele>44.400000000000006</ele><time>2026-05-03T14:05:24.002Z</time></trkpt><trkpt lat="45.966758240073844" lon="12.90112747991193"><ele>44.6</ele><time>2026-05-03T14:05:25.002Z</time></trkpt><trkpt lat="45.96682827872644" lon="12.901075482888938"><ele>44.8</ele><time>2026-05-03T14:05:26.002Z</time></trkpt><trkpt lat="45.96691744057354" lon="12.90100610156299"><ele>45.0</ele><time>2026-05-03T14:05:28.002Z</time></trkpt><trkpt lat="45.96699579825816" lon="12.90114988990022"><ele>45.0</ele><time>2026-05-03T14:05:31.002Z</time></trkpt><trkpt lat="45.967007096206736" lon="12.901279684680919"><ele>45.0</ele><time>2026-05-03T14:05:32.002Z</time></trkpt><trkpt lat="45.9670004345742" lon="12.901380801052177"><ele>45.0</ele><time>2026-05-03T14:05:33.002Z</time></trkpt><trkpt lat="45.966981132365014" lon="12.901487259987345"><ele>45.0</ele><time>2026-05-03T14:05:34.002Z</time></trkpt><trkpt lat="45.96694564682391" lon="12.901608696493689"><ele>45.0</ele><time>2026-05-03T14:05:35.002Z</time></trkpt><trkpt lat="45.9669054667001" lon="12.901706530512318"><ele>45.0</ele><time>2026-05-03T14:05:36.002Z</time></trkpt><trkpt lat="45.966803311003225" lon="12.901772956792154"><ele>44.666666666666664</ele><time>2026-05-03T14:05:37.002Z</time></trkpt><trkpt lat="45.96674142171793" lon="12.90180689295905"><ele>44.333333333333336</ele><time>2026-05-03T14:05:38.002Z</time></trkpt><trkpt lat="45.966691821972525" lon="12.901897104204348"><ele>44.0</ele><time>2026-05-03T14:05:40Z</time></trkpt><trkpt lat="45.966628016242844" lon="12.901914875754489"><ele>43.66666666666667</ele><time>2026-05-03T14:05:41Z</time></trkpt><trkpt lat="45.96656319985831" lon="12.901946077604707"><ele>43.333333333333336</ele><time>2026-05-03T14:05:42Z</time></trkpt><trkpt lat="45.966474069481464" lon="12.902009168448675"><ele>43.0</ele><time>2026-05-03T14:05:44Z</time></trkpt><trkpt lat="45.9664384324247" lon="12.902159255454075"><ele>43.0</ele><time>2026-05-03T14:05:46Z</time></trkpt><trkpt lat="45.96639217757553" lon="12.90233079130829"><ele>43.0</ele><time>2026-05-03T14:05:48Z</time></trkpt><trkpt lat="45.96634534321481" lon="12.902430394176921"><ele>43.0</ele><time>2026-05-03T14:05:49Z</time></trkpt><trkpt lat="45.9663005491734" lon="12.902513916522485"><ele>43.0</ele><time>2026-05-03T14:05:50Z</time></trkpt><trkpt lat="45.96620577074794" lon="12.902599384879943"><ele>43.0</ele><time>2026-05-03T14:05:52Z</time></trkpt><trkpt lat="45.96614453192148" lon="12.902626968663004"><ele>43.0</ele><time>2026-05-03T14:05:53Z</time></trkpt><trkpt lat="45.96607053046321" lon="12.902653538314235"><ele>43.0</ele><time>2026-05-03T14:05:54Z</time></trkpt><trkpt lat="45.96600241290134" lon="12.90266317860783"><ele>43.0</ele><time>2026-05-03T14:05:55Z</time></trkpt><trkpt lat="45.965890257855094" lon="12.902635260757346"><ele>43.0</ele><time>2026-05-03T14:05:57Z</time></trkpt><trkpt lat="45.96583099998472" lon="12.902589344558177"><ele>43.0</ele><time>2026-05-03T14:05:58Z</time></trkpt><trkpt lat="45.965767699291185" lon="12.902513463224413"><ele>43.0</ele><time>2026-05-03T14:05:59Z</time></trkpt><trkpt lat="45.96571380649395" lon="12.902444702170087"><ele>43.0</ele><time>2026-05-03T14:06:00Z</time></trkpt><trkpt lat="45.96560237427168" lon="12.902367935802822"><ele>43.0</ele><time>2026-05-03T14:06:02Z</time></trkpt><trkpt lat="45.965508002679776" lon="12.902336876762659"><ele>43.0</ele><time>2026-05-03T14:06:03Z</time></trkpt><trkpt lat="45.96541894653684" lon="12.902329760911218"><ele>43.0</ele><time>2026-05-03T14:06:04Z</time></trkpt><trkpt lat="45.965341872953594" lon="12.90231824025661"><ele>43.0</ele><time>2026-05-03T14:06:05Z</time></trkpt><trkpt lat="45.96526809020759" lon="12.902295392600442"><ele>43.0</ele><time>2026-05-03T14:06:06Z</time></trkpt><trkpt lat="45.965199084113586" lon="12.902264060171575"><ele>43.0</ele><time>2026-05-03T14:06:07Z</time></trkpt><trkpt lat="45.96512875596825" lon="12.902228643599353"><ele>43.0</ele><time>2026-05-03T14:06:08Z</time></trkpt><trkpt lat="45.96507095152271" lon="12.90218984827065"><ele>43.0</ele><time>2026-05-03T14:06:09Z</time></trkpt><trkpt lat="45.964977679777874" lon="12.902077794857036"><ele>43.0</ele><time>2026-05-03T14:06:11Z</time></trkpt><trkpt lat="45.96494758947168" lon="12.901959975731872"><ele>43.0</ele><time>2026-05-03T14:06:13Z</time></trkpt><trkpt lat="45.96496235849077" lon="12.901822493459123"><ele>43.0</ele><time>2026-05-03T14:06:15.001Z</time></trkpt><trkpt lat="45.965020544907844" lon="12.901772240967263"><ele>43.0</ele><time>2026-05-03T14:06:21.001Z</time></trkpt><trkpt lat="45.96506430307487" lon="12.901853018409367"><ele>43.0</ele><time>2026-05-03T14:06:32.001Z</time></trkpt><trkpt lat="45.965064395501635" lon="12.901747926748433"><ele>43.0</ele><time>2026-05-03T14:07:17.001Z</time></trkpt><trkpt lat="45.965127869237186" lon="12.901627198021554"><ele>43.0</ele><time>2026-05-03T14:07:20.001Z</time></trkpt><trkpt lat="45.965115485230164" lon="12.901515451350225"><ele>43.0</ele><time>2026-05-03T14:07:41.002Z</time></trkpt><trkpt lat="45.96506247606581" lon="12.901455152196641"><ele>42.8</ele><time>2026-05-03T14:07:43.002Z</time></trkpt><trkpt lat="45.96503823132795" lon="12.901345131123518"><ele>42.599999999999994</ele><time>2026-05-03T14:07:45Z</time></trkpt><trkpt lat="45.96511900815851" lon="12.901281061641692"><ele>42.400000000000006</ele><time>2026-05-03T14:07:50Z</time></trkpt><trkpt lat="45.96519445874954" lon="12.901337444634477"><ele>42.2</ele><time>2026-05-03T14:07:52Z</time></trkpt><trkpt lat="45.96523084135198" lon="12.901429655588148"><ele>42.0</ele><time>2026-05-03T14:07:54Z</time></trkpt><trkpt lat="45.965347750732136" lon="12.901467868134722"><ele>42.0</ele><time>2026-05-03T14:07:56Z</time></trkpt><trkpt lat="45.96541561755894" lon="12.901540913589212"><ele>42.0</ele><time>2026-05-03T14:07:57Z</time></trkpt><trkpt lat="45.96556145086546" lon="12.901591448413479"><ele>42.0</ele><time>2026-05-03T14:07:59Z</time></trkpt><trkpt lat="45.96563734624564" lon="12.901625239168824"><ele>42.0</ele><time>2026-05-03T14:08:00Z</time></trkpt><trkpt lat="45.965716536574696" lon="12.901654881026625"><ele>42.0</ele><time>2026-05-03T14:08:01Z</time></trkpt><trkpt lat="45.965797053224925" lon="12.901716470588623"><ele>42.2</ele><time>2026-05-03T14:08:02Z</time></trkpt><trkpt lat="45.965868915212454" lon="12.901782572166276"><ele>42.400000000000006</ele><time>2026-05-03T14:08:03Z</time></trkpt><trkpt lat="45.965987895168176" lon="12.90182958654396"><ele>42.599999999999994</ele><time>2026-05-03T14:08:05Z</time></trkpt><trkpt lat="45.966052869970646" lon="12.901832139995943"><ele>42.8</ele><time>2026-05-03T14:08:06Z</time></trkpt><trkpt lat="45.96617480486064" lon="12.901838673769229"><ele>43.0</ele><time>2026-05-03T14:08:08Z</time></trkpt><trkpt lat="45.96630231505144" lon="12.901858245506522"><ele>43.00000000000001</ele><time>2026-05-03T14:08:10Z</time></trkpt><trkpt lat="45.966363942325856" lon="12.901890451598824"><ele>43.0</ele><time>2026-05-03T14:08:11Z</time></trkpt><trkpt lat="45.96643618753545" lon="12.901890629538048"><ele>43.0</ele><time>2026-05-03T14:08:13Z</time></trkpt><trkpt lat="45.96644366756475" lon="12.901788688542805"><ele>43.0</ele><time>2026-05-03T14:08:15Z</time></trkpt><trkpt lat="45.96640633329217" lon="12.901706776237027"><ele>43.0</ele><time>2026-05-03T14:08:16Z</time></trkpt><trkpt lat="45.96634700364108" lon="12.901629927872479"><ele>43.00000000000001</ele><time>2026-05-03T14:08:17Z</time></trkpt><trkpt lat="45.96629675244246" lon="12.90156410245303"><ele>43.0</ele><time>2026-05-03T14:08:18Z</time></trkpt><trkpt lat="45.966252815391734" lon="12.901444968976246"><ele>43.2</ele><time>2026-05-03T14:08:20Z</time></trkpt><trkpt lat="45.96629591263243" lon="12.901316379135851"><ele>43.4</ele><time>2026-05-03T14:08:22.001Z</time></trkpt><trkpt lat="45.96636478358219" lon="12.901218305290872"><ele>43.6</ele><time>2026-05-03T14:08:24.001Z</time></trkpt><trkpt lat="45.96647113277339" lon="12.901247301873722"><ele>43.800000000000004</ele><time>2026-05-03T14:08:26.001Z</time></trkpt><trkpt lat="45.96656912207137" lon="12.901258146835461"><ele>44.0</ele><time>2026-05-03T14:08:28.001Z</time></trkpt><trkpt lat="45.9667001562498" lon="12.901136333416705"><ele>44.166666666666664</ele><time>2026-05-03T14:08:30.001Z</time></trkpt><trkpt lat="45.966765098314205" lon="12.901104380462414"><ele>44.33333333333333</ele><time>2026-05-03T14:08:31.001Z</time></trkpt><trkpt lat="45.966837613294736" lon="12.901031517273296"><ele>44.5</ele><time>2026-05-03T14:08:33.001Z</time></trkpt><trkpt lat="45.966905370348776" lon="12.901122906377752"><ele>44.666666666666664</ele><time>2026-05-03T14:08:36.001Z</time></trkpt><trkpt lat="45.96691647743189" lon="12.901218981011265"><ele>44.833333333333336</ele><time>2026-05-03T14:08:37.001Z</time></trkpt><trkpt lat="45.96693506848922" lon="12.90133335533442"><ele>45.0</ele><time>2026-05-03T14:08:38.001Z</time></trkpt><trkpt lat="45.96692557775908" lon="12.901481532830584"><ele>45.0</ele><time>2026-05-03T14:08:40.001Z</time></trkpt><trkpt lat="45.96686974883495" lon="12.901621407409522"><ele>45.0</ele><time>2026-05-03T14:08:42.001Z</time></trkpt><trkpt lat="45.96683130940151" lon="12.901705029669778"><ele>45.0</ele><time>2026-05-03T14:08:43.001Z</time></trkpt><trkpt lat="45.966760621006344" lon="12.901785459240084"><ele>45.0</ele><time>2026-05-03T14:08:45.001Z</time></trkpt><trkpt lat="45.96669287771384" lon="12.901866562616176"><ele>45.0</ele><time>2026-05-03T14:08:47.001Z</time></trkpt><trkpt lat="45.966635321484894" lon="12.901907574017716"><ele>45.0</ele><time>2026-05-03T14:08:48.001Z</time></trkpt><trkpt lat="45.96652863808277" lon="12.901961322796664"><ele>44.666666666666664</ele><time>2026-05-03T14:08:50.001Z</time></trkpt><trkpt lat="45.966475542822565" lon="12.902030933446074"><ele>44.333333333333336</ele><time>2026-05-03T14:08:52.001Z</time></trkpt><trkpt lat="45.96644525076405" lon="12.902131443963409"><ele>44.0</ele><time>2026-05-03T14:08:53.001Z</time></trkpt><trkpt lat="45.96640708360061" lon="12.902301323070379"><ele>43.66666666666667</ele><time>2026-05-03T14:08:55.001Z</time></trkpt><trkpt lat="45.966373386601454" lon="12.902385824899481"><ele>43.333333333333336</ele><time>2026-05-03T14:08:56.001Z</time></trkpt><trkpt lat="45.966317860101015" lon="12.902476658101515"><ele>43.0</ele><time>2026-05-03T14:08:57.001Z</time></trkpt><trkpt lat="45.966259048526624" lon="12.902551910633004"><ele>43.0</ele><time>2026-05-03T14:08:58.001Z</time></trkpt><trkpt lat="45.966161225872526" lon="12.9026306108644"><ele>43.0</ele><time>2026-05-03T14:09:00.001Z</time></trkpt><trkpt lat="45.966104159050275" lon="12.902670973752647"><ele>43.0</ele><time>2026-05-03T14:09:01.001Z</time></trkpt><trkpt lat="45.96603693379953" lon="12.902685796654696"><ele>43.0</ele><time>2026-05-03T14:09:02.001Z</time></trkpt><trkpt lat="45.96595469149849" lon="12.902683679661843"><ele>43.0</ele><time>2026-05-03T14:09:04.001Z</time></trkpt><trkpt lat="45.96583454663528" lon="12.902608650250677"><ele>43.0</ele><time>2026-05-03T14:09:06.001Z</time></trkpt><trkpt lat="45.96577246600817" lon="12.902523828261792"><ele>43.0</ele><time>2026-05-03T14:09:07.001Z</time></trkpt><trkpt lat="45.96571874028611" lon="12.902456919588847"><ele>43.0</ele><time>2026-05-03T14:09:08.001Z</time></trkpt><trkpt lat="45.965621952310684" lon="12.902369663541444"><ele>43.0</ele><time>2026-05-03T14:09:10.001Z</time></trkpt><trkpt lat="45.96553959730087" lon="12.902347591650424"><ele>43.0</ele><time>2026-05-03T14:09:11.001Z</time></trkpt><trkpt lat="45.96544759767882" lon="12.902321932443236"><ele>43.0</ele><time>2026-05-03T14:09:12.001Z</time></trkpt><trkpt lat="45.965380208284245" lon="12.902320236936061"><ele>43.0</ele><time>2026-05-03T14:09:13.001Z</time></trkpt><trkpt lat="45.96530913503809" lon="12.902316438850054"><ele>43.0</ele><time>2026-05-03T14:09:14.001Z</time></trkpt><trkpt lat="45.96517947012465" lon="12.90226543524247"><ele>43.0</ele><time>2026-05-03T14:09:16.001Z</time></trkpt><trkpt lat="45.96508067415421" lon="12.90223204760945"><ele>43.0</ele><time>2026-05-03T14:09:18.001Z</time></trkpt><trkpt lat="45.96501734447412" lon="12.902193288991507"><ele>43.0</ele><time>2026-05-03T14:09:20.001Z</time></trkpt><trkpt lat="45.96496953131838" lon="12.902091518523935"><ele>43.0</ele><time>2026-05-03T14:13:39.001Z</time></trkpt><trkpt lat="45.96496284513587" lon="12.901946742913623"><ele>43.0</ele><time>2026-05-03T14:13:41.001Z</time></trkpt><trkpt lat="45.96498750310438" lon="12.901823017343075"><ele>43.0</ele><time>2026-05-03T14:13:43.001Z</time></trkpt><trkpt lat="45.96505186846056" lon="12.901711166684162"><ele>43.0</ele><time>2026-05-03T14:13:46.001Z</time></trkpt><trkpt lat="45.96510767018056" lon="12.90164565787028"><ele>43.0</ele><time>2026-05-03T14:13:49.001Z</time></trkpt><trkpt lat="45.96507801335847" lon="12.90154233713282"><ele>43.0</ele><time>2026-05-03T14:13:51.001Z</time></trkpt><trkpt lat="45.96502121331464" lon="12.901464322806884"><ele>43.0</ele><time>2026-05-03T14:13:52.001Z</time></trkpt><trkpt lat="45.96496929782356" lon="12.901375914703406"><ele>43.0</ele><time>2026-05-03T14:13:54.001Z</time></trkpt><trkpt lat="45.96503936953418" lon="12.901321067507984"><ele>43.0</ele><time>2026-05-03T14:13:57.001Z</time></trkpt><trkpt lat="45.96513395803664" lon="12.901277873368201"><ele>43.0</ele><time>2026-05-03T14:13:59.002Z</time></trkpt><trkpt lat="45.965173738340496" lon="12.901348658312632"><ele>43.0</ele><time>2026-05-03T14:14:00.002Z</time></trkpt><trkpt lat="45.96527002234174" lon="12.901409286396332"><ele>43.0</ele><time>2026-05-03T14:14:02.002Z</time></trkpt><trkpt lat="45.96536677821189" lon="12.901479486949608"><ele>43.0</ele><time>2026-05-03T14:14:04Z</time></trkpt><trkpt lat="45.96544644204705" lon="12.90154489905902"><ele>43.0</ele><time>2026-05-03T14:14:05Z</time></trkpt><trkpt lat="45.96551892619914" lon="12.90157596142107"><ele>43.0</ele><time>2026-05-03T14:14:06Z</time></trkpt><trkpt lat="45.965598674098565" lon="12.901563285518385"><ele>43.0</ele><time>2026-05-03T14:14:07Z</time></trkpt><trkpt lat="45.965669449187075" lon="12.901614135556406"><ele>43.0</ele><time>2026-05-03T14:14:08Z</time></trkpt><trkpt lat="45.96575324883539" lon="12.901673856136082"><ele>43.0</ele><time>2026-05-03T14:14:09Z</time></trkpt><trkpt lat="45.96584445477853" lon="12.901765999731253"><ele>43.0</ele><time>2026-05-03T14:14:10Z</time></trkpt><trkpt lat="45.96595107872283" lon="12.901826866950586"><ele>43.0</ele><time>2026-05-03T14:14:12Z</time></trkpt><trkpt lat="45.96607912134882" lon="12.901849056805068"><ele>43.0</ele><time>2026-05-03T14:14:14Z</time></trkpt><trkpt lat="45.96616431058719" lon="12.901836062418553"><ele>43.0</ele><time>2026-05-03T14:14:15Z</time></trkpt><trkpt lat="45.96627193508409" lon="12.901858873646333"><ele>43.0</ele><time>2026-05-03T14:14:17Z</time></trkpt><trkpt lat="45.96635419202002" lon="12.901870030605927"><ele>43.00000000000001</ele><time>2026-05-03T14:14:18Z</time></trkpt><trkpt lat="45.96642194617564" lon="12.901908745642201"><ele>43.0</ele><time>2026-05-03T14:14:19Z</time></trkpt><trkpt lat="45.96643228447537" lon="12.901807051363292"><ele>43.0</ele><time>2026-05-03T14:14:21Z</time></trkpt><trkpt lat="45.96639628236348" lon="12.901731497276334"><ele>43.0</ele><time>2026-05-03T14:14:22Z</time></trkpt><trkpt lat="45.96634888525041" lon="12.901648404940708"><ele>43.0</ele><time>2026-05-03T14:14:23Z</time></trkpt><trkpt lat="45.966292768237885" lon="12.90157660573034"><ele>43.00000000000001</ele><time>2026-05-03T14:14:24Z</time></trkpt><trkpt lat="45.9662333726901" lon="12.901489056021841"><ele>43.0</ele><time>2026-05-03T14:14:26Z</time></trkpt><trkpt lat="45.96628846918653" lon="12.901325319014923"><ele>43.2</ele><time>2026-05-03T14:14:28Z</time></trkpt><trkpt lat="45.96636848408908" lon="12.901217544215763"><ele>43.4</ele><time>2026-05-03T14:14:30Z</time></trkpt><trkpt lat="45.966456357709696" lon="12.901246543611766"><ele>43.6</ele><time>2026-05-03T14:14:32Z</time></trkpt><trkpt lat="45.966516555831966" lon="12.90127804904537"><ele>43.800000000000004</ele><time>2026-05-03T14:14:33Z</time></trkpt><trkpt lat="45.96661782438677" lon="12.90118203978571"><ele>44.0</ele><time>2026-05-03T14:14:35Z</time></trkpt><trkpt lat="45.96672693952357" lon="12.901091061079057"><ele>44.2</ele><time>2026-05-03T14:14:36Z</time></trkpt><trkpt lat="45.966822028232215" lon="12.901032645002898"><ele>44.400000000000006</ele><time>2026-05-03T14:14:38Z</time></trkpt><trkpt lat="45.96689346022765" lon="12.901026982954786"><ele>44.6</ele><time>2026-05-03T14:14:40Z</time></trkpt><trkpt lat="45.96687766287543" lon="12.901131048899932"><ele>44.8</ele><time>2026-05-03T14:14:42Z</time></trkpt><trkpt lat="45.96690266462494" lon="12.901258776796075"><ele>45.0</ele><time>2026-05-03T14:14:44Z</time></trkpt><trkpt lat="45.96690439665553" lon="12.901445644405632"><ele>45.0</ele><time>2026-05-03T14:14:45Z</time></trkpt><trkpt lat="45.96684416451075" lon="12.90161715030326"><ele>45.0</ele><time>2026-05-03T14:14:47Z</time></trkpt><trkpt lat="45.96676728101883" lon="12.901744954361115"><ele>45.0</ele><time>2026-05-03T14:14:49.001Z</time></trkpt><trkpt lat="45.96668678655666" lon="12.90184762123655"><ele>45.0</ele><time>2026-05-03T14:14:51.001Z</time></trkpt><trkpt lat="45.966626230679445" lon="12.901902127754019"><ele>45.0</ele><time>2026-05-03T14:14:52.001Z</time></trkpt><trkpt lat="45.96651641808142" lon="12.901953602130732"><ele>44.6</ele><time>2026-05-03T14:14:54.001Z</time></trkpt><trkpt lat="45.96645259293475" lon="12.902062042706905"><ele>44.2</ele><time>2026-05-03T14:14:56.001Z</time></trkpt><trkpt lat="45.9664268466201" lon="12.90216833597016"><ele>43.8</ele><time>2026-05-03T14:14:57.001Z</time></trkpt><trkpt lat="45.96639148247966" lon="12.902287899449911"><ele>43.4</ele><time>2026-05-03T14:14:58.001Z</time></trkpt><trkpt lat="45.966359758079456" lon="12.902381627698642"><ele>43.0</ele><time>2026-05-03T14:14:59.001Z</time></trkpt><trkpt lat="45.966277987293324" lon="12.90252587820005"><ele>43.0</ele><time>2026-05-03T14:15:01.001Z</time></trkpt><trkpt lat="45.9662248849883" lon="12.902575763123144"><ele>43.0</ele><time>2026-05-03T14:15:02.001Z</time></trkpt><trkpt lat="45.966159563355674" lon="12.902607490767135"><ele>43.0</ele><time>2026-05-03T14:15:03.001Z</time></trkpt><trkpt lat="45.96608863876016" lon="12.902634172052924"><ele>43.0</ele><time>2026-05-03T14:15:04.001Z</time></trkpt><trkpt lat="45.96597971712038" lon="12.902642792258504"><ele>43.0</ele><time>2026-05-03T14:15:06.001Z</time></trkpt><trkpt lat="45.9658631238769" lon="12.902607749368693"><ele>43.0</ele><time>2026-05-03T14:15:08.001Z</time></trkpt><trkpt lat="45.96579763316021" lon="12.9025657018142"><ele>43.0</ele><time>2026-05-03T14:15:09.001Z</time></trkpt><trkpt lat="45.96573883390023" lon="12.902509942567269"><ele>43.0</ele><time>2026-05-03T14:15:10.001Z</time></trkpt><trkpt lat="45.96563042813288" lon="12.902412367924432"><ele>43.0</ele><time>2026-05-03T14:15:12.001Z</time></trkpt><trkpt lat="45.96556152520234" lon="12.902367292228924"><ele>43.0</ele><time>2026-05-03T14:15:13.001Z</time></trkpt><trkpt lat="45.965482159552714" lon="12.902340382271223"><ele>43.0</ele><time>2026-05-03T14:15:14.001Z</time></trkpt><trkpt lat="45.96539782644774" lon="12.90233360098556"><ele>43.0</ele><time>2026-05-03T14:15:15.001Z</time></trkpt><trkpt lat="45.965308760772345" lon="12.902318644414471"><ele>43.0</ele><time>2026-05-03T14:15:16.001Z</time></trkpt><trkpt lat="45.965222608509805" lon="12.902285336280277"><ele>43.0</ele><time>2026-05-03T14:15:17.001Z</time></trkpt><trkpt lat="45.965156753258945" lon="12.90224963603419"><ele>43.0</ele><time>2026-05-03T14:15:18.001Z</time></trkpt><trkpt lat="45.96505494287504" lon="12.902168540362547"><ele>43.0</ele><time>2026-05-03T14:15:20.001Z</time></trkpt><trkpt lat="45.96500949986443" lon="12.902104072387127"><ele>43.0</ele><time>2026-05-03T14:15:21.001Z</time></trkpt><trkpt lat="45.964966890739106" lon="12.90199276196478"><ele>43.0</ele><time>2026-05-03T14:15:23.001Z</time></trkpt><trkpt lat="45.96497091945243" lon="12.901868248393054"><ele>43.0</ele><time>2026-05-03T14:15:25.001Z</time></trkpt><trkpt lat="45.96502958563241" lon="12.901757688696993"><ele>43.0</ele><time>2026-05-03T14:15:27.001Z</time></trkpt><trkpt lat="45.965093895389785" lon="12.901661629293052"><ele>43.0</ele><time>2026-05-03T14:15:31.001Z</time></trkpt><trkpt lat="45.965074049854145" lon="12.901540617199807"><ele>43.0</ele><time>2026-05-03T14:15:34.001Z</time></trkpt><trkpt lat="45.965094385095966" lon="12.901446607310106"><ele>43.0</ele><time>2026-05-03T14:15:37.001Z</time></trkpt><trkpt lat="45.96516205634727" lon="12.901381984232026"><ele>43.0</ele><time>2026-05-03T14:15:43.001Z</time></trkpt><trkpt lat="45.96524329772049" lon="12.901405224197429"><ele>42.833333333333336</ele><time>2026-05-03T14:15:46.001Z</time></trkpt><trkpt lat="45.9653601415236" lon="12.901401130838039"><ele>42.66666666666667</ele><time>2026-05-03T14:15:48.001Z</time></trkpt><trkpt lat="45.96544852439335" lon="12.901495006616662"><ele>42.5</ele><time>2026-05-03T14:15:50.001Z</time></trkpt><trkpt lat="45.965514809619805" lon="12.901545574698888"><ele>42.333333333333336</ele><time>2026-05-03T14:15:51.001Z</time></trkpt><trkpt lat="45.96558431584799" lon="12.90158360760748"><ele>42.166666666666664</ele><time>2026-05-03T14:15:52.001Z</time></trkpt><trkpt lat="45.965650492778614" lon="12.901607028109344"><ele>42.0</ele><time>2026-05-03T14:15:53.001Z</time></trkpt><trkpt lat="45.965717584722995" lon="12.901631290584072"><ele>42.0</ele><time>2026-05-03T14:15:54.001Z</time></trkpt><trkpt lat="45.965780979565324" lon="12.901659521139328"><ele>42.0</ele><time>2026-05-03T14:15:55.001Z</time></trkpt><trkpt lat="45.96584183062677" lon="12.901699325610883"><ele>42.0</ele><time>2026-05-03T14:15:56.001Z</time></trkpt><trkpt lat="45.965898641183244" lon="12.901764811294527"><ele>42.0</ele><time>2026-05-03T14:15:57.001Z</time></trkpt><trkpt lat="45.96603125217658" lon="12.901805041737575"><ele>42.0</ele><time>2026-05-03T14:15:59.002Z</time></trkpt><trkpt lat="45.966098652617994" lon="12.901819420797962"><ele>42.0</ele><time>2026-05-03T14:16:00.002Z</time></trkpt><trkpt lat="45.96621291280329" lon="12.901807650242457"><ele>42.2</ele><time>2026-05-03T14:16:02.002Z</time></trkpt><trkpt lat="45.966342015483484" lon="12.901850561764304"><ele>42.400000000000006</ele><time>2026-05-03T14:16:04.002Z</time></trkpt><trkpt lat="45.966400208513484" lon="12.901892730525388"><ele>42.599999999999994</ele><time>2026-05-03T14:16:05.002Z</time></trkpt><trkpt lat="45.9664636683031" lon="12.901859265264116"><ele>42.8</ele><time>2026-05-03T14:16:07.002Z</time></trkpt><trkpt lat="45.966439227697094" lon="12.901705159658274"><ele>43.0</ele><time>2026-05-03T14:16:09Z</time></trkpt><trkpt lat="45.96636029826201" lon="12.901624335166998"><ele>43.2</ele><time>2026-05-03T14:16:10Z</time></trkpt><trkpt lat="45.966302380490006" lon="12.901556019498916"><ele>43.4</ele><time>2026-05-03T14:16:11Z</time></trkpt><trkpt lat="45.96624948904551" lon="12.901458942527778"><ele>43.6</ele><time>2026-05-03T14:16:13Z</time></trkpt><trkpt lat="45.966305625197265" lon="12.901312481637934"><ele>43.800000000000004</ele><time>2026-05-03T14:16:15Z</time></trkpt><trkpt lat="45.966381340415275" lon="12.90127875804172"><ele>44.0</ele><time>2026-05-03T14:16:19Z</time></trkpt><trkpt lat="45.966585872310624" lon="12.901212189102779"><ele>44.0</ele><time>2026-05-03T14:16:21Z</time></trkpt><trkpt lat="45.966658816725264" lon="12.901194220856478"><ele>44.0</ele><time>2026-05-03T14:16:22Z</time></trkpt><trkpt lat="45.966724757454976" lon="12.901149899157248"><ele>44.0</ele><time>2026-05-03T14:16:23Z</time></trkpt><trkpt lat="45.96678359687458" lon="12.901102038234136"><ele>44.0</ele><time>2026-05-03T14:16:24Z</time></trkpt><trkpt lat="45.96688748955644" lon="12.901022731591409"><ele>44.0</ele><time>2026-05-03T14:16:26Z</time></trkpt><trkpt lat="45.966961089596914" lon="12.901055794278175"><ele>44.0</ele><time>2026-05-03T14:16:28Z</time></trkpt><trkpt lat="45.966990547502235" lon="12.901146027591427"><ele>44.142857142857146</ele><time>2026-05-03T14:16:29Z</time></trkpt><trkpt lat="45.967003519166376" lon="12.90126318893879"><ele>44.285714285714285</ele><time>2026-05-03T14:16:30Z</time></trkpt><trkpt lat="45.96700566078496" lon="12.901371035218508"><ele>44.42857142857143</ele><time>2026-05-03T14:16:31Z</time></trkpt><trkpt lat="45.966993326068994" lon="12.901473158147322"><ele>44.57142857142857</ele><time>2026-05-03T14:16:32Z</time></trkpt><trkpt lat="45.96696906519553" lon="12.90156677494869"><ele>44.714285714285715</ele><time>2026-05-03T14:16:33Z</time></trkpt><trkpt lat="45.966932986248636" lon="12.90165954512684"><ele>44.857142857142854</ele><time>2026-05-03T14:16:34Z</time></trkpt><trkpt lat="45.96689371646815" lon="12.901734185062342"><ele>45.0</ele><time>2026-05-03T14:16:35Z</time></trkpt><trkpt lat="45.96679798762938" lon="12.901854121777449"><ele>44.5</ele><time>2026-05-03T14:16:37Z</time></trkpt><trkpt lat="45.96670363262664" lon="12.901937788303263"><ele>44.0</ele><time>2026-05-03T14:16:39Z</time></trkpt><trkpt lat="45.966533031097086" lon="12.90197623541717"><ele>43.5</ele><time>2026-05-03T14:16:41Z</time></trkpt><trkpt lat="45.966457076284286" lon="12.902054545908406"><ele>43.0</ele><time>2026-05-03T14:16:43Z</time></trkpt><trkpt lat="45.96641843588166" lon="12.90225890724154"><ele>43.0</ele><time>2026-05-03T14:16:45Z</time></trkpt><trkpt lat="45.96638623199972" lon="12.902362170339927"><ele>43.0</ele><time>2026-05-03T14:16:46Z</time></trkpt><trkpt lat="45.96629790833913" lon="12.902496835446527"><ele>43.0</ele><time>2026-05-03T14:16:48Z</time></trkpt><trkpt lat="45.966246729051754" lon="12.902554087276735"><ele>43.0</ele><time>2026-05-03T14:16:49Z</time></trkpt><trkpt lat="45.96613419476818" lon="12.902660423779219"><ele>43.0</ele><time>2026-05-03T14:16:51.001Z</time></trkpt><trkpt lat="45.966046419832445" lon="12.90267968398859"><ele>43.0</ele><time>2026-05-03T14:16:53.001Z</time></trkpt><trkpt lat="45.96592152492075" lon="12.902634639261631"><ele>43.0</ele><time>2026-05-03T14:16:55.001Z</time></trkpt><trkpt lat="45.96584532689223" lon="12.902585946400857"><ele>43.0</ele><time>2026-05-03T14:16:56.001Z</time></trkpt><trkpt lat="45.96577753224527" lon="12.902528445360787"><ele>43.0</ele><time>2026-05-03T14:16:57.001Z</time></trkpt><trkpt lat="45.96569236322505" lon="12.90244117327888"><ele>43.0</ele><time>2026-05-03T14:16:59.001Z</time></trkpt><trkpt lat="45.96558264808488" lon="12.902370142598107"><ele>43.0</ele><time>2026-05-03T14:17:01.001Z</time></trkpt><trkpt lat="45.96549986796405" lon="12.90232662124208"><ele>43.0</ele><time>2026-05-03T14:17:02.001Z</time></trkpt><trkpt lat="45.96540784763755" lon="12.902313859056543"><ele>43.0</ele><time>2026-05-03T14:17:03.001Z</time></trkpt><trkpt lat="45.96533584550947" lon="12.902322689034383"><ele>43.0</ele><time>2026-05-03T14:17:04.001Z</time></trkpt><trkpt lat="45.96525387536926" lon="12.902300404667217"><ele>43.0</ele><time>2026-05-03T14:17:05.001Z</time></trkpt><trkpt lat="45.96517228085488" lon="12.902258383991635"><ele>43.0</ele><time>2026-05-03T14:17:07.001Z</time></trkpt><trkpt lat="45.9650993998597" lon="12.902230338479901"><ele>43.0</ele><time>2026-05-03T14:17:08.001Z</time></trkpt><trkpt lat="45.96503932870475" lon="12.902195988914421"><ele>43.0</ele><time>2026-05-03T14:17:09.001Z</time></trkpt><trkpt lat="45.964974126785016" lon="12.902098293574094"><ele>43.0</ele><time>2026-05-03T14:17:11.001Z</time></trkpt><trkpt lat="45.964947229745285" lon="12.901960986181713"><ele>43.0</ele><time>2026-05-03T14:17:13.001Z</time></trkpt><trkpt lat="45.96497482041843" lon="12.901826739313783"><ele>43.0</ele><time>2026-05-03T14:17:15.001Z</time></trkpt><trkpt lat="45.96503650874287" lon="12.90175108670342"><ele>43.0</ele><time>2026-05-03T14:17:17.001Z</time></trkpt><trkpt lat="45.965099389517555" lon="12.901691299009642"><ele>42.833333333333336</ele><time>2026-05-03T14:17:20.001Z</time></trkpt><trkpt lat="45.96512492121538" lon="12.901601296655"><ele>42.66666666666667</ele><time>2026-05-03T14:17:22.001Z</time></trkpt><trkpt lat="45.96504731210234" lon="12.901467359203025"><ele>42.5</ele><time>2026-05-03T14:17:24.001Z</time></trkpt><trkpt lat="45.96503572332875" lon="12.901343700946981"><ele>42.333333333333336</ele><time>2026-05-03T14:17:26.001Z</time></trkpt><trkpt lat="45.96509318038824" lon="12.901267545201259"><ele>42.166666666666664</ele><time>2026-05-03T14:17:31.001Z</time></trkpt><trkpt lat="45.96517867230044" lon="12.901282025515773"><ele>42.0</ele><time>2026-05-03T14:17:33.001Z</time></trkpt><trkpt lat="45.96526020094441" lon="12.901336765772305"><ele>42.0</ele><time>2026-05-03T14:17:36.001Z</time></trkpt><trkpt lat="45.96538591429159" lon="12.901457413078308"><ele>42.0</ele><time>2026-05-03T14:17:38.001Z</time></trkpt><trkpt lat="45.96544703272175" lon="12.901496345371298"><ele>42.0</ele><time>2026-05-03T14:17:39.001Z</time></trkpt><trkpt lat="45.965513149826364" lon="12.901523664210663"><ele>42.0</ele><time>2026-05-03T14:17:40.001Z</time></trkpt><trkpt lat="45.96558069131372" lon="12.901558611837"><ele>42.0</ele><time>2026-05-03T14:17:41.001Z</time></trkpt><trkpt lat="45.96565942674531" lon="12.901589828086049"><ele>42.0</ele><time>2026-05-03T14:17:42.001Z</time></trkpt><trkpt lat="45.96574174795167" lon="12.90165524229572"><ele>42.0</ele><time>2026-05-03T14:17:43.001Z</time></trkpt><trkpt lat="45.96582328021516" lon="12.90169945007279"><ele>42.0</ele><time>2026-05-03T14:17:44.001Z</time></trkpt><trkpt lat="45.96589976691233" lon="12.901764250672503"><ele>42.0</ele><time>2026-05-03T14:17:45.001Z</time></trkpt><trkpt lat="45.96599977860576" lon="12.901819872262898"><ele>42.0</ele><time>2026-05-03T14:17:47.001Z</time></trkpt><trkpt lat="45.966116738734854" lon="12.901807740621342"><ele>42.0</ele><time>2026-05-03T14:17:49.001Z</time></trkpt><trkpt lat="45.96624325621901" lon="12.901802905941869"><ele>42.2</ele><time>2026-05-03T14:17:51.001Z</time></trkpt><trkpt lat="45.96631668055773" lon="12.901827982509834"><ele>42.400000000000006</ele><time>2026-05-03T14:17:52.001Z</time></trkpt><trkpt lat="45.96639849871973" lon="12.901899387320436"><ele>42.599999999999994</ele><time>2026-05-03T14:17:54.001Z</time></trkpt><trkpt lat="45.966454146837044" lon="12.901826197528619"><ele>42.8</ele><time>2026-05-03T14:17:56.001Z</time></trkpt><trkpt lat="45.96640211018174" lon="12.901658087908828"><ele>43.0</ele><time>2026-05-03T14:17:58.001Z</time></trkpt><trkpt lat="45.96639098117779" lon="12.901529964839739"><ele>43.2</ele><time>2026-05-03T14:18:00.001Z</time></trkpt><trkpt lat="45.96632803850298" lon="12.901456688915413"><ele>43.4</ele><time>2026-05-03T14:18:01.002Z</time></trkpt><trkpt lat="45.96628052859123" lon="12.901335541219913"><ele>43.6</ele><time>2026-05-03T14:18:03.002Z</time></trkpt><trkpt lat="45.966337862333866" lon="12.901173276846384"><ele>43.800000000000004</ele><time>2026-05-03T14:18:05.002Z</time></trkpt><trkpt lat="45.966436115946536" lon="12.901099878957146"><ele>44.0</ele><time>2026-05-03T14:18:07.002Z</time></trkpt><trkpt lat="45.96650448049439" lon="12.901130698142747"><ele>44.0</ele><time>2026-05-03T14:18:08.002Z</time></trkpt><trkpt lat="45.96657001458807" lon="12.901171260298938"><ele>44.0</ele><time>2026-05-03T14:18:09.002Z</time></trkpt><trkpt lat="45.96664392221963" lon="12.901173348511701"><ele>44.0</ele><time>2026-05-03T14:18:10.002Z</time></trkpt><trkpt lat="45.96671556725076" lon="12.901130495191424"><ele>44.0</ele><time>2026-05-03T14:18:11.002Z</time></trkpt><trkpt lat="45.966797178795744" lon="12.901075094269398"><ele>44.0</ele><time>2026-05-03T14:18:12.002Z</time></trkpt><trkpt lat="45.96689860963685" lon="12.901004760418623"><ele>44.0</ele><time>2026-05-03T14:18:14.002Z</time></trkpt><trkpt lat="45.96696523554283" lon="12.90102396929486"><ele>44.2</ele><time>2026-05-03T14:18:16Z</time></trkpt><trkpt lat="45.96699765792202" lon="12.901110890958588"><ele>44.400000000000006</ele><time>2026-05-03T14:18:17Z</time></trkpt><trkpt lat="45.96695435879485" lon="12.901319650898149"><ele>44.6</ele><time>2026-05-03T14:18:18Z</time></trkpt><trkpt lat="45.96693246989964" lon="12.901481941921642"><ele>44.8</ele><time>2026-05-03T14:18:20Z</time></trkpt><trkpt lat="45.96690375152422" lon="12.901585085830218"><ele>45.0</ele><time>2026-05-03T14:18:21Z</time></trkpt><trkpt lat="45.9668644377283" lon="12.901672312156546"><ele>44.6</ele><time>2026-05-03T14:18:22Z</time></trkpt><trkpt lat="45.966791504116124" lon="12.901784562809501"><ele>44.2</ele><time>2026-05-03T14:18:24Z</time></trkpt><trkpt lat="45.96670797410457" lon="12.901867174532338"><ele>43.8</ele><time>2026-05-03T14:18:26Z</time></trkpt><trkpt lat="45.96662427463475" lon="12.901888637205413"><ele>43.4</ele><time>2026-05-03T14:18:28Z</time></trkpt><trkpt lat="45.96652055005491" lon="12.901947954356245"><ele>43.0</ele><time>2026-05-03T14:18:30Z</time></trkpt><trkpt lat="45.96647229036162" lon="12.90203494522131"><ele>43.0</ele><time>2026-05-03T14:18:31Z</time></trkpt><trkpt lat="45.96643094477967" lon="12.902198475095888"><ele>43.0</ele><time>2026-05-03T14:18:33Z</time></trkpt><trkpt lat="45.96638576548321" lon="12.902317852698827"><ele>43.0</ele><time>2026-05-03T14:18:34Z</time></trkpt><trkpt lat="45.96635277826919" lon="12.902404295679128"><ele>43.0</ele><time>2026-05-03T14:18:35Z</time></trkpt><trkpt lat="45.96631368673211" lon="12.902478653180225"><ele>43.0</ele><time>2026-05-03T14:18:36Z</time></trkpt><trkpt lat="45.966224626848486" lon="12.902584737213216"><ele>43.0</ele><time>2026-05-03T14:18:38Z</time></trkpt><trkpt lat="45.966153769049086" lon="12.902626461405694"><ele>43.0</ele><time>2026-05-03T14:18:39Z</time></trkpt><trkpt lat="45.966080963192034" lon="12.902655283166261"><ele>43.0</ele><time>2026-05-03T14:18:40Z</time></trkpt><trkpt lat="45.965978810082646" lon="12.90264934086092"><ele>43.0</ele><time>2026-05-03T14:18:42Z</time></trkpt><trkpt lat="45.96585628723141" lon="12.902562893852894"><ele>43.0</ele><time>2026-05-03T14:18:44Z</time></trkpt><trkpt lat="45.96578606765252" lon="12.90250311058457"><ele>43.0</ele><time>2026-05-03T14:18:45Z</time></trkpt><trkpt lat="45.96572209985893" lon="12.902447898095248"><ele>43.0</ele><time>2026-05-03T14:18:46Z</time></trkpt><trkpt lat="45.96558930935128" lon="12.902372346926025"><ele>43.0</ele><time>2026-05-03T14:18:48Z</time></trkpt><trkpt lat="45.965503114536844" lon="12.902341257778618"><ele>43.0</ele><time>2026-05-03T14:18:49Z</time></trkpt><trkpt lat="45.96542973129021" lon="12.902331668091984"><ele>43.0</ele><time>2026-05-03T14:18:50Z</time></trkpt><trkpt lat="45.96534529064433" lon="12.90231917472545"><ele>43.0</ele><time>2026-05-03T14:18:51Z</time></trkpt><trkpt lat="45.965259896884604" lon="12.902292699720116"><ele>43.0</ele><time>2026-05-03T14:18:52Z</time></trkpt><trkpt lat="45.965191484980075" lon="12.902258165384755"><ele>43.0</ele><time>2026-05-03T14:18:53Z</time></trkpt><trkpt lat="45.96512846855129" lon="12.902218427382548"><ele>43.0</ele><time>2026-05-03T14:18:54Z</time></trkpt><trkpt lat="45.965068443510496" lon="12.902152564712864"><ele>43.0</ele><time>2026-05-03T14:18:55Z</time></trkpt><trkpt lat="45.96498685268027" lon="12.902048629621387"><ele>43.0</ele><time>2026-05-03T14:18:57Z</time></trkpt><trkpt lat="45.964957099655614" lon="12.901922826942439"><ele>43.0</ele><time>2026-05-03T14:18:59Z</time></trkpt><trkpt lat="45.964988915008156" lon="12.90180230079351"><ele>43.0</ele><time>2026-05-03T14:19:01.001Z</time></trkpt><trkpt lat="45.96505067160994" lon="12.901735781814898"><ele>43.0</ele><time>2026-05-03T14:19:05.001Z</time></trkpt><trkpt lat="45.9650736763468" lon="12.901637995040895"><ele>43.0</ele><time>2026-05-03T14:19:07.001Z</time></trkpt><trkpt lat="45.965051262560046" lon="12.90153848651421"><ele>43.0</ele><time>2026-05-03T14:19:09.001Z</time></trkpt><trkpt lat="45.965016939894625" lon="12.901400748640828"><ele>43.0</ele><time>2026-05-03T14:19:12.001Z</time></trkpt><trkpt lat="45.965088038483806" lon="12.901339509248677"><ele>42.8</ele><time>2026-05-03T14:19:16.001Z</time></trkpt><trkpt lat="45.965160672836404" lon="12.901368554259076"><ele>42.599999999999994</ele><time>2026-05-03T14:19:18.001Z</time></trkpt><trkpt lat="45.96524342637682" lon="12.901390469904275"><ele>42.400000000000006</ele><time>2026-05-03T14:19:20.001Z</time></trkpt><trkpt lat="45.96531201778183" lon="12.901448568537226"><ele>42.2</ele><time>2026-05-03T14:19:22.001Z</time></trkpt><trkpt lat="45.96539492255292" lon="12.901413716696167"><ele>42.0</ele><time>2026-05-03T14:19:25.001Z</time></trkpt><trkpt lat="45.965553992163706" lon="12.901558523242015"><ele>42.0</ele><time>2026-05-03T14:19:26.001Z</time></trkpt><trkpt lat="45.96565252401497" lon="12.901612394223969"><ele>42.0</ele><time>2026-05-03T14:19:27.001Z</time></trkpt><trkpt lat="45.96574062818643" lon="12.90165327774854"><ele>42.0</ele><time>2026-05-03T14:19:28.001Z</time></trkpt><trkpt lat="45.96582180702815" lon="12.901693095229817"><ele>42.0</ele><time>2026-05-03T14:19:29.001Z</time></trkpt><trkpt lat="45.96589658005731" lon="12.901742892577344"><ele>42.0</ele><time>2026-05-03T14:19:30.001Z</time></trkpt><trkpt lat="45.96597108129869" lon="12.901808441154367"><ele>42.166666666666664</ele><time>2026-05-03T14:19:31.001Z</time></trkpt><trkpt lat="45.966029998205784" lon="12.901846663853094"><ele>42.333333333333336</ele><time>2026-05-03T14:19:32.001Z</time></trkpt><trkpt lat="45.96615493053149" lon="12.901845220859556"><ele>42.5</ele><time>2026-05-03T14:19:34.001Z</time></trkpt><trkpt lat="45.9662339295856" lon="12.90181958790473"><ele>42.66666666666667</ele><time>2026-05-03T14:19:35.001Z</time></trkpt><trkpt lat="45.96629713131036" lon="12.901813430546818"><ele>42.833333333333336</ele><time>2026-05-03T14:19:36.001Z</time></trkpt><trkpt lat="45.96636552698446" lon="12.901854779081694"><ele>43.0</ele><time>2026-05-03T14:19:37.001Z</time></trkpt><trkpt lat="45.96641692414186" lon="12.9019168134992"><ele>43.0</ele><time>2026-05-03T14:19:38.001Z</time></trkpt><trkpt lat="45.96648147226644" lon="12.901892821287944"><ele>43.0</ele><time>2026-05-03T14:19:40.001Z</time></trkpt><trkpt lat="45.96648071577075" lon="12.901781624909592"><ele>43.0</ele><time>2026-05-03T14:19:41.001Z</time></trkpt><trkpt lat="45.96645503019799" lon="12.901593389596522"><ele>43.0</ele><time>2026-05-03T14:19:43.001Z</time></trkpt><trkpt lat="45.96639576795739" lon="12.901520882989182"><ele>43.0</ele><time>2026-05-03T14:19:44.001Z</time></trkpt><trkpt lat="45.966334213214814" lon="12.901472974737308"><ele>43.0</ele><time>2026-05-03T14:19:45.001Z</time></trkpt><trkpt lat="45.9662514628399" lon="12.901429701870795"><ele>43.2</ele><time>2026-05-03T14:19:46.001Z</time></trkpt><trkpt lat="45.966295395836944" lon="12.9013161479943"><ele>43.4</ele><time>2026-05-03T14:19:48.001Z</time></trkpt><trkpt lat="45.96636345381686" lon="12.901309976118688"><ele>43.6</ele><time>2026-05-03T14:19:51.001Z</time></trkpt><trkpt lat="45.96648282698832" lon="12.901143042413176"><ele>43.800000000000004</ele><time>2026-05-03T14:19:52.001Z</time></trkpt><trkpt lat="45.96654646156267" lon="12.901181090138206"><ele>44.0</ele><time>2026-05-03T14:19:53.001Z</time></trkpt><trkpt lat="45.96661167372002" lon="12.901194912551148"><ele>44.0</ele><time>2026-05-03T14:19:54.001Z</time></trkpt><trkpt lat="45.966692958759936" lon="12.90116198723252"><ele>44.0</ele><time>2026-05-03T14:19:55.001Z</time></trkpt><trkpt lat="45.96676383325672" lon="12.901109533810061"><ele>44.0</ele><time>2026-05-03T14:19:56.001Z</time></trkpt><trkpt lat="45.96682295702391" lon="12.901064719331611"><ele>44.0</ele><time>2026-05-03T14:19:57.001Z</time></trkpt><trkpt lat="45.96687683773334" lon="12.901011018399222"><ele>44.0</ele><time>2026-05-03T14:19:58.001Z</time></trkpt><trkpt lat="45.966950956673045" lon="12.901137659015737"><ele>44.0</ele><time>2026-05-03T14:20:01.001Z</time></trkpt><trkpt lat="45.9669646663104" lon="12.901239318444503"><ele>44.2</ele><time>2026-05-03T14:20:02.001Z</time></trkpt><trkpt lat="45.96697824267809" lon="12.901370856406086"><ele>44.400000000000006</ele><time>2026-05-03T14:20:03.001Z</time></trkpt><trkpt lat="45.96698718918026" lon="12.901465771500419"><ele>44.6</ele><time>2026-05-03T14:20:04.001Z</time></trkpt><trkpt lat="45.96694377007776" lon="12.901638408838656"><ele>44.8</ele><time>2026-05-03T14:20:06.001Z</time></trkpt><trkpt lat="45.966906006848596" lon="12.901716713960349"><ele>45.0</ele><time>2026-05-03T14:20:07.001Z</time></trkpt><trkpt lat="45.96675621181888" lon="12.90181177192205"><ele>44.6</ele><time>2026-05-03T14:20:09.001Z</time></trkpt><trkpt lat="45.966661556771875" lon="12.90191696417173"><ele>44.2</ele><time>2026-05-03T14:20:11.002Z</time></trkpt><trkpt lat="45.966546985750725" lon="12.901960263832933"><ele>43.8</ele><time>2026-05-03T14:20:13.002Z</time></trkpt><trkpt lat="45.96647536713127" lon="12.902036172353187"><ele>43.4</ele><time>2026-05-03T14:20:15.002Z</time></trkpt><trkpt lat="45.96642456579397" lon="12.90219219301737"><ele>43.0</ele><time>2026-05-03T14:20:17.002Z</time></trkpt><trkpt lat="45.966394237088416" lon="12.902282273650146"><ele>43.0</ele><time>2026-05-03T14:20:18.002Z</time></trkpt><trkpt lat="45.96635888031029" lon="12.902371206473486"><ele>43.0</ele><time>2026-05-03T14:20:19.002Z</time></trkpt><trkpt lat="45.96626734363403" lon="12.902501833477743"><ele>43.0</ele><time>2026-05-03T14:20:21Z</time></trkpt><trkpt lat="45.96619585674617" lon="12.902566918505062"><ele>43.0</ele><time>2026-05-03T14:20:22Z</time></trkpt><trkpt lat="45.96612716587061" lon="12.90262036589221"><ele>43.0</ele><time>2026-05-03T14:20:23Z</time></trkpt><trkpt lat="45.96602948130237" lon="12.902668484145364"><ele>43.0</ele><time>2026-05-03T14:20:25Z</time></trkpt><trkpt lat="45.965938191689006" lon="12.902679154616182"><ele>43.0</ele><time>2026-05-03T14:20:27Z</time></trkpt><trkpt lat="45.96582517305764" lon="12.902621256472578"><ele>43.0</ele><time>2026-05-03T14:20:29Z</time></trkpt><trkpt lat="45.96576734274117" lon="12.902562991723531"><ele>43.0</ele><time>2026-05-03T14:20:30Z</time></trkpt><trkpt lat="45.96571676620644" lon="12.90249524783681"><ele>43.0</ele><time>2026-05-03T14:20:31Z</time></trkpt><trkpt lat="45.965610106149626" lon="12.902401537692946"><ele>43.0</ele><time>2026-05-03T14:20:33Z</time></trkpt><trkpt lat="45.96553870973355" lon="12.902356427084769"><ele>43.0</ele><time>2026-05-03T14:20:34Z</time></trkpt><trkpt lat="45.96546576572636" lon="12.90233497043974"><ele>43.0</ele><time>2026-05-03T14:20:35Z</time></trkpt><trkpt lat="45.965382840572985" lon="12.90232315483036"><ele>43.0</ele><time>2026-05-03T14:20:36Z</time></trkpt><trkpt lat="45.9652980252767" lon="12.902312759827272"><ele>43.0</ele><time>2026-05-03T14:20:37Z</time></trkpt><trkpt lat="45.965232683750884" lon="12.902292909498135"><ele>43.0</ele><time>2026-05-03T14:20:38Z</time></trkpt><trkpt lat="45.965165907673736" lon="12.902261730180236"><ele>43.0</ele><time>2026-05-03T14:20:39Z</time></trkpt><trkpt lat="45.96509789679302" lon="12.902234450245178"><ele>43.0</ele><time>2026-05-03T14:20:40Z</time></trkpt><trkpt lat="45.96501980714061" lon="12.902198532884594"><ele>43.0</ele><time>2026-05-03T14:20:42Z</time></trkpt><trkpt lat="45.96502980475456" lon="12.902072137353375"><ele>43.0</ele><time>2026-05-03T14:27:45.001Z</time></trkpt><trkpt lat="45.96499983146873" lon="12.90193157220527"><ele>43.0</ele><time>2026-05-03T14:27:47.001Z</time></trkpt><trkpt lat="45.96499936526251" lon="12.901823601156492"><ele>43.0</ele><time>2026-05-03T14:27:49.001Z</time></trkpt><trkpt lat="45.96505392537607" lon="12.901726763597404"><ele>42.833333333333336</ele><time>2026-05-03T14:27:51.001Z</time></trkpt><trkpt lat="45.96509414293385" lon="12.90164868336372"><ele>42.66666666666667</ele><time>2026-05-03T14:27:54.001Z</time></trkpt><trkpt lat="45.96510767086265" lon="12.901559079447228"><ele>42.5</ele><time>2026-05-03T14:27:56.001Z</time></trkpt><trkpt lat="45.965049860223026" lon="12.901490463144683"><ele>42.333333333333336</ele><time>2026-05-03T14:27:58.001Z</time></trkpt><trkpt lat="45.965060976052676" lon="12.901348335501675"><ele>42.166666666666664</ele><time>2026-05-03T14:28:00.001Z</time></trkpt><trkpt lat="45.965038737646935" lon="12.901255865043428"><ele>42.0</ele><time>2026-05-03T14:28:02.001Z</time></trkpt><trkpt lat="45.96514979720402" lon="12.901269530087625"><ele>42.0</ele><time>2026-05-03T14:28:05.001Z</time></trkpt><trkpt lat="45.965209835155136" lon="12.901298587071897"><ele>42.0</ele><time>2026-05-03T14:28:06.001Z</time></trkpt><trkpt lat="45.965274574523164" lon="12.90135225424527"><ele>42.0</ele><time>2026-05-03T14:28:08.001Z</time></trkpt><trkpt lat="45.965327843010854" lon="12.901402468156267"><ele>42.0</ele><time>2026-05-03T14:28:09.001Z</time></trkpt><trkpt lat="45.965389803435045" lon="12.90146046570097"><ele>42.0</ele><time>2026-05-03T14:28:10.001Z</time></trkpt><trkpt lat="45.965459436363986" lon="12.901511627379088"><ele>42.0</ele><time>2026-05-03T14:28:11.001Z</time></trkpt><trkpt lat="45.96554439218982" lon="12.901549263614784"><ele>42.0</ele><time>2026-05-03T14:28:12.001Z</time></trkpt><trkpt lat="45.96563350414774" lon="12.901589851310483"><ele>42.0</ele><time>2026-05-03T14:28:13.001Z</time></trkpt><trkpt lat="45.96570791660464" lon="12.901629344457671"><ele>42.0</ele><time>2026-05-03T14:28:14.001Z</time></trkpt><trkpt lat="45.96578458584781" lon="12.901676654486307"><ele>42.0</ele><time>2026-05-03T14:28:15.001Z</time></trkpt><trkpt lat="45.96585568727319" lon="12.901742875591218"><ele>42.0</ele><time>2026-05-03T14:28:16.001Z</time></trkpt><trkpt lat="45.96591655083813" lon="12.901777948324973"><ele>42.0</ele><time>2026-05-03T14:28:17.001Z</time></trkpt><trkpt lat="45.96598989690871" lon="12.901821286455725"><ele>42.0</ele><time>2026-05-03T14:28:18.001Z</time></trkpt><trkpt lat="45.966118903772966" lon="12.901846416965096"><ele>42.2</ele><time>2026-05-03T14:28:20.001Z</time></trkpt><trkpt lat="45.96623291262305" lon="12.901824541451044"><ele>42.400000000000006</ele><time>2026-05-03T14:28:22.001Z</time></trkpt><trkpt lat="45.966351277596786" lon="12.901873514631356"><ele>42.599999999999994</ele><time>2026-05-03T14:28:24.001Z</time></trkpt><trkpt lat="45.96641722506425" lon="12.901856836118398"><ele>42.8</ele><time>2026-05-03T14:28:27.001Z</time></trkpt><trkpt lat="45.96639226523165" lon="12.901739248121888"><ele>43.0</ele><time>2026-05-03T14:28:30.001Z</time></trkpt><trkpt lat="45.96638111595455" lon="12.901600219145589"><ele>43.16666666666667</ele><time>2026-05-03T14:28:31.001Z</time></trkpt><trkpt lat="45.96633050178228" lon="12.901537069670967"><ele>43.333333333333336</ele><time>2026-05-03T14:28:32.001Z</time></trkpt><trkpt lat="45.966273114189605" lon="12.901438103145074"><ele>43.5</ele><time>2026-05-03T14:28:34.001Z</time></trkpt><trkpt lat="45.96627095801435" lon="12.901312322526065"><ele>43.666666666666664</ele><time>2026-05-03T14:28:36.001Z</time></trkpt><trkpt lat="45.966297635507445" lon="12.901228852051734"><ele>43.83333333333333</ele><time>2026-05-03T14:28:37.001Z</time></trkpt><trkpt lat="45.96639754512286" lon="12.901143349778515"><ele>44.0</ele><time>2026-05-03T14:28:39.001Z</time></trkpt><trkpt lat="45.96651228730502" lon="12.901180213615326"><ele>44.0</ele><time>2026-05-03T14:28:41.001Z</time></trkpt><trkpt lat="45.966619604435365" lon="12.901214280725775"><ele>44.0</ele><time>2026-05-03T14:28:43.002Z</time></trkpt><trkpt lat="45.96667810149906" lon="12.901175584210538"><ele>44.0</ele><time>2026-05-03T14:28:44.002Z</time></trkpt><trkpt lat="45.96675289001597" lon="12.90111653870709"><ele>44.0</ele><time>2026-05-03T14:28:45Z</time></trkpt><trkpt lat="45.96684302604879" lon="12.901051067237624"><ele>44.0</ele><time>2026-05-03T14:28:47Z</time></trkpt><trkpt lat="45.96690625920064" lon="12.901017326493466"><ele>44.0</ele><time>2026-05-03T14:28:49Z</time></trkpt><trkpt lat="45.966943661516716" lon="12.901157550064852"><ele>44.166666666666664</ele><time>2026-05-03T14:28:51Z</time></trkpt><trkpt lat="45.966939408610074" lon="12.901283396358567"><ele>44.33333333333333</ele><time>2026-05-03T14:28:53Z</time></trkpt><trkpt lat="45.967002313356964" lon="12.901356026708319"><ele>44.5</ele><time>2026-05-03T14:28:54Z</time></trkpt><trkpt lat="45.966989902139865" lon="12.901463157532863"><ele>44.666666666666664</ele><time>2026-05-03T14:28:55Z</time></trkpt><trkpt lat="45.9669617136282" lon="12.901566353268958"><ele>44.833333333333336</ele><time>2026-05-03T14:28:56Z</time></trkpt><trkpt lat="45.96691975000087" lon="12.901671075953272"><ele>45.0</ele><time>2026-05-03T14:28:57Z</time></trkpt><trkpt lat="45.96687689767688" lon="12.901751614730783"><ele>44.666666666666664</ele><time>2026-05-03T14:28:58Z</time></trkpt><trkpt lat="45.96682879286012" lon="12.901812088624634"><ele>44.333333333333336</ele><time>2026-05-03T14:28:59Z</time></trkpt><trkpt lat="45.96673319761929" lon="12.901905144301745"><ele>44.0</ele><time>2026-05-03T14:29:01Z</time></trkpt><trkpt lat="45.96667425003259" lon="12.90195140343042"><ele>43.66666666666667</ele><time>2026-05-03T14:29:02Z</time></trkpt><trkpt lat="45.96661284056031" lon="12.901985461795226"><ele>43.333333333333336</ele><time>2026-05-03T14:29:03Z</time></trkpt><trkpt lat="45.96651266400236" lon="12.902031850396158"><ele>43.0</ele><time>2026-05-03T14:29:05Z</time></trkpt><trkpt lat="45.96644490065174" lon="12.902139782896493"><ele>43.0</ele><time>2026-05-03T14:29:07Z</time></trkpt><trkpt lat="45.96638550371058" lon="12.902316594814915"><ele>43.0</ele><time>2026-05-03T14:29:09Z</time></trkpt><trkpt lat="45.966342257939104" lon="12.90242745157625"><ele>43.0</ele><time>2026-05-03T14:29:10Z</time></trkpt><trkpt lat="45.96629599943081" lon="12.902519473374127"><ele>43.0</ele><time>2026-05-03T14:29:11Z</time></trkpt><trkpt lat="45.966245410991796" lon="12.902599023306575"><ele>43.0</ele><time>2026-05-03T14:29:12Z</time></trkpt><trkpt lat="45.96619486220337" lon="12.902660634123878"><ele>43.0</ele><time>2026-05-03T14:29:13Z</time></trkpt><trkpt lat="45.96612140512186" lon="12.90265854012696"><ele>43.0</ele><time>2026-05-03T14:29:14Z</time></trkpt><trkpt lat="45.96600795868088" lon="12.902668155383235"><ele>43.0</ele><time>2026-05-03T14:29:16Z</time></trkpt><trkpt lat="45.96588846953996" lon="12.902630945320382"><ele>43.0</ele><time>2026-05-03T14:29:18Z</time></trkpt><trkpt lat="45.96582508871121" lon="12.902573019622713"><ele>43.0</ele><time>2026-05-03T14:29:19Z</time></trkpt><trkpt lat="45.96575810489875" lon="12.90249719150663"><ele>43.0</ele><time>2026-05-03T14:29:20Z</time></trkpt><trkpt lat="45.96569375417764" lon="12.90243614493141"><ele>43.0</ele><time>2026-05-03T14:29:21Z</time></trkpt><trkpt lat="45.965631398702115" lon="12.902396859756063"><ele>43.0</ele><time>2026-05-03T14:29:22Z</time></trkpt><trkpt lat="45.96555784645705" lon="12.90235316102751"><ele>43.0</ele><time>2026-05-03T14:29:23Z</time></trkpt><trkpt lat="45.965469802574646" lon="12.902324949723702"><ele>43.0</ele><time>2026-05-03T14:29:24Z</time></trkpt><trkpt lat="45.96537989474408" lon="12.902313539287453"><ele>43.0</ele><time>2026-05-03T14:29:25Z</time></trkpt><trkpt lat="45.965288057218764" lon="12.90230430833711"><ele>43.0</ele><time>2026-05-03T14:29:26Z</time></trkpt><trkpt lat="45.96521010416372" lon="12.90227835079461"><ele>43.0</ele><time>2026-05-03T14:29:27Z</time></trkpt><trkpt lat="45.9651453442438" lon="12.902243174517638"><ele>43.0</ele><time>2026-05-03T14:29:28Z</time></trkpt><trkpt lat="45.96504408729559" lon="12.902190836867875"><ele>43.0</ele><time>2026-05-03T14:29:30Z</time></trkpt><trkpt lat="45.96496526694475" lon="12.90212461745962"><ele>43.0</ele><time>2026-05-03T14:32:41.001Z</time></trkpt><trkpt lat="45.96496664012639" lon="12.90198366466677"><ele>43.0</ele><time>2026-05-03T14:32:43.001Z</time></trkpt><trkpt lat="45.964982821292864" lon="12.90183420410143"><ele>43.0</ele><time>2026-05-03T14:32:45.001Z</time></trkpt><trkpt lat="45.965026165984696" lon="12.901766610358191"><ele>43.0</ele><time>2026-05-03T14:32:46.001Z</time></trkpt><trkpt lat="45.96507875513794" lon="12.9016851338365"><ele>43.0</ele><time>2026-05-03T14:32:49.001Z</time></trkpt><trkpt lat="45.96511748795638" lon="12.901603300424068"><ele>43.0</ele><time>2026-05-03T14:32:51.001Z</time></trkpt><trkpt lat="45.96504936543153" lon="12.901483218746232"><ele>43.0</ele><time>2026-05-03T14:32:53.001Z</time></trkpt><trkpt lat="45.96504646595689" lon="12.901363777698217"><ele>43.0</ele><time>2026-05-03T14:32:55.001Z</time></trkpt><trkpt lat="45.96502910399758" lon="12.901267490708342"><ele>42.66666666666667</ele><time>2026-05-03T14:32:57Z</time></trkpt><trkpt lat="45.96509731893866" lon="12.901238077426925"><ele>42.333333333333336</ele><time>2026-05-03T14:32:59Z</time></trkpt><trkpt lat="45.96515777798952" lon="12.901275573334035"><ele>42.0</ele><time>2026-05-03T14:33:01Z</time></trkpt><trkpt lat="45.96559050116151" lon="12.901585346824735"><ele>42.0</ele><time>2026-05-03T14:33:07Z</time></trkpt><trkpt lat="45.96571146112253" lon="12.901629547541306"><ele>42.0</ele><time>2026-05-03T14:33:08Z</time></trkpt><trkpt lat="45.96577543267917" lon="12.901663064046062"><ele>42.0</ele><time>2026-05-03T14:33:09Z</time></trkpt><trkpt lat="45.965832023562044" lon="12.901723778733073"><ele>42.0</ele><time>2026-05-03T14:33:10Z</time></trkpt><trkpt lat="45.96590926197276" lon="12.90177813848848"><ele>42.0</ele><time>2026-05-03T14:33:11Z</time></trkpt><trkpt lat="45.96598012931848" lon="12.901832609334887"><ele>42.0</ele><time>2026-05-03T14:33:12Z</time></trkpt><trkpt lat="45.966106965068406" lon="12.901859608692071"><ele>42.142857142857146</ele><time>2026-05-03T14:33:14Z</time></trkpt><trkpt lat="45.96616796468786" lon="12.901832553483763"><ele>42.285714285714285</ele><time>2026-05-03T14:33:15Z</time></trkpt><trkpt lat="45.966232050616654" lon="12.901813885519925"><ele>42.42857142857143</ele><time>2026-05-03T14:33:16Z</time></trkpt><trkpt lat="45.96630983619324" lon="12.901825821421841"><ele>42.57142857142857</ele><time>2026-05-03T14:33:17Z</time></trkpt><trkpt lat="45.966372386491464" lon="12.901843234153887"><ele>42.714285714285715</ele><time>2026-05-03T14:33:18Z</time></trkpt><trkpt lat="45.966420206195835" lon="12.901908173040107"><ele>42.85714285714286</ele><time>2026-05-03T14:33:19Z</time></trkpt><trkpt lat="45.966486626610205" lon="12.901859105725274"><ele>43.0</ele><time>2026-05-03T14:33:21Z</time></trkpt><trkpt lat="45.96649349812566" lon="12.901714439531899"><ele>43.16666666666667</ele><time>2026-05-03T14:33:23Z</time></trkpt><trkpt lat="45.9664417785263" lon="12.901602970993288"><ele>43.333333333333336</ele><time>2026-05-03T14:33:24Z</time></trkpt><trkpt lat="45.966368821267764" lon="12.901516857137857"><ele>43.5</ele><time>2026-05-03T14:33:25Z</time></trkpt><trkpt lat="45.96631453929192" lon="12.901457548928365"><ele>43.666666666666664</ele><time>2026-05-03T14:33:26Z</time></trkpt><trkpt lat="45.96626084990543" lon="12.901402029877884"><ele>43.83333333333333</ele><time>2026-05-03T14:33:27Z</time></trkpt><trkpt lat="45.966311464828" lon="12.901291095253354"><ele>44.0</ele><time>2026-05-03T14:33:29Z</time></trkpt><trkpt lat="45.9663801075649" lon="12.901286945181825"><ele>44.0</ele><time>2026-05-03T14:33:32Z</time></trkpt><trkpt lat="45.96650410642772" lon="12.901153001614837"><ele>44.0</ele><time>2026-05-03T14:33:33Z</time></trkpt><trkpt lat="45.966563295072945" lon="12.901190117312344"><ele>44.0</ele><time>2026-05-03T14:33:34Z</time></trkpt><trkpt lat="45.96662765220908" lon="12.901199542227534"><ele>44.0</ele><time>2026-05-03T14:33:35Z</time></trkpt><trkpt lat="45.966724473203" lon="12.901155874039343"><ele>44.0</ele><time>2026-05-03T14:33:36Z</time></trkpt><trkpt lat="45.966799594549634" lon="12.901096473303697"><ele>44.166666666666664</ele><time>2026-05-03T14:33:37Z</time></trkpt><trkpt lat="45.966860529788995" lon="12.901045432998304"><ele>44.33333333333333</ele><time>2026-05-03T14:33:38Z</time></trkpt><trkpt lat="45.96692030451828" lon="12.901008708753274"><ele>44.5</ele><time>2026-05-03T14:33:40Z</time></trkpt><trkpt lat="45.966992971181426" lon="12.90108486661178"><ele>44.666666666666664</ele><time>2026-05-03T14:33:42Z</time></trkpt><trkpt lat="45.967013934715546" lon="12.901197148745188"><ele>44.833333333333336</ele><time>2026-05-03T14:33:43Z</time></trkpt><trkpt lat="45.96702439319699" lon="12.901340199557941"><ele>45.0</ele><time>2026-05-03T14:33:44Z</time></trkpt><trkpt lat="45.96701017682253" lon="12.901449618312686"><ele>45.0</ele><time>2026-05-03T14:33:45Z</time></trkpt><trkpt lat="45.9669829886382" lon="12.901545878406584"><ele>45.0</ele><time>2026-05-03T14:33:46Z</time></trkpt><trkpt lat="45.966941828358934" lon="12.901644899538063"><ele>45.0</ele><time>2026-05-03T14:33:47Z</time></trkpt><trkpt lat="45.966840557674615" lon="12.901732611284569"><ele>45.0</ele><time>2026-05-03T14:33:48Z</time></trkpt><trkpt lat="45.966775746144314" lon="12.901807615366824"><ele>45.0</ele><time>2026-05-03T14:33:49Z</time></trkpt><trkpt lat="45.96669383851133" lon="12.901900185706152"><ele>44.666666666666664</ele><time>2026-05-03T14:33:51Z</time></trkpt><trkpt lat="45.966623913052906" lon="12.90193858914004"><ele>44.333333333333336</ele><time>2026-05-03T14:33:52Z</time></trkpt><trkpt lat="45.96651642415186" lon="12.901990140645035"><ele>44.0</ele><time>2026-05-03T14:33:54Z</time></trkpt><trkpt lat="45.96646384588962" lon="12.902102373799599"><ele>43.66666666666667</ele><time>2026-05-03T14:33:56.001Z</time></trkpt><trkpt lat="45.966439144929524" lon="12.902217204846467"><ele>43.333333333333336</ele><time>2026-05-03T14:33:57.001Z</time></trkpt><trkpt lat="45.966424037555484" lon="12.90232166549289"><ele>43.0</ele><time>2026-05-03T14:33:58.001Z</time></trkpt><trkpt lat="45.96636554747721" lon="12.902426306678622"><ele>43.0</ele><time>2026-05-03T14:33:59.001Z</time></trkpt><trkpt lat="45.966322179390495" lon="12.90251804623582"><ele>43.0</ele><time>2026-05-03T14:34:00.001Z</time></trkpt><trkpt lat="45.96627119234732" lon="12.902577416739014"><ele>43.0</ele><time>2026-05-03T14:34:01.001Z</time></trkpt><trkpt lat="45.96617528746091" lon="12.902646787471204"><ele>43.0</ele><time>2026-05-03T14:34:03.001Z</time></trkpt><trkpt lat="45.966064972012376" lon="12.902666348017517"><ele>43.0</ele><time>2026-05-03T14:34:05.001Z</time></trkpt><trkpt lat="45.965993714317634" lon="12.90266050313674"><ele>43.0</ele><time>2026-05-03T14:34:06.001Z</time></trkpt><trkpt lat="45.96586860630538" lon="12.902580854411571"><ele>43.0</ele><time>2026-05-03T14:34:08.001Z</time></trkpt><trkpt lat="45.96578432330812" lon="12.902501736130219"><ele>43.0</ele><time>2026-05-03T14:34:09.001Z</time></trkpt><trkpt lat="45.965718591198126" lon="12.902437159593305"><ele>43.0</ele><time>2026-05-03T14:34:10.001Z</time></trkpt><trkpt lat="45.96565383991815" lon="12.902388483846764"><ele>43.0</ele><time>2026-05-03T14:34:11.001Z</time></trkpt><trkpt lat="45.96558122257574" lon="12.90236200306929"><ele>43.0</ele><time>2026-05-03T14:34:12.001Z</time></trkpt><trkpt lat="45.96550274832365" lon="12.902334544382796"><ele>43.0</ele><time>2026-05-03T14:34:13.001Z</time></trkpt><trkpt lat="45.96540970990567" lon="12.902329541814131"><ele>43.0</ele><time>2026-05-03T14:34:14.001Z</time></trkpt><trkpt lat="45.965301619259705" lon="12.902311225467262"><ele>43.0</ele><time>2026-05-03T14:34:15.001Z</time></trkpt><trkpt lat="45.96523470061967" lon="12.902288281633544"><ele>43.0</ele><time>2026-05-03T14:34:16.001Z</time></trkpt><trkpt lat="45.965150239100524" lon="12.902248553154049"><ele>43.0</ele><time>2026-05-03T14:34:17.001Z</time></trkpt><trkpt lat="45.965085916354106" lon="12.902197249382564"><ele>43.0</ele><time>2026-05-03T14:34:18.001Z</time></trkpt><trkpt lat="45.965026337035184" lon="12.902151976156386"><ele>43.0</ele><time>2026-05-03T14:34:19.001Z</time></trkpt><trkpt lat="45.964967163243166" lon="12.902036775835043"><ele>43.0</ele><time>2026-05-03T14:34:21.001Z</time></trkpt><trkpt lat="45.964961622024376" lon="12.901905020900832"><ele>43.0</ele><time>2026-05-03T14:34:23.001Z</time></trkpt><trkpt lat="45.9649910424348" lon="12.901811690190431"><ele>43.0</ele><time>2026-05-03T14:34:25.001Z</time></trkpt><trkpt lat="45.96506552749795" lon="12.901730273447573"><ele>43.0</ele><time>2026-05-03T14:34:27.001Z</time></trkpt><trkpt lat="45.965100938744115" lon="12.901639574019791"><ele>43.0</ele><time>2026-05-03T14:34:31.001Z</time></trkpt><trkpt lat="45.96506852365598" lon="12.901555952749671"><ele>43.0</ele><time>2026-05-03T14:34:33.001Z</time></trkpt><trkpt lat="45.96507851872021" lon="12.901464183070422"><ele>43.0</ele><time>2026-05-03T14:34:35.001Z</time></trkpt><trkpt lat="45.965018013941595" lon="12.901424036915483"><ele>43.0</ele><time>2026-05-03T14:34:36.001Z</time></trkpt><trkpt lat="45.96508692924194" lon="12.901351539920606"><ele>43.0</ele><time>2026-05-03T14:34:39.001Z</time></trkpt><trkpt lat="45.965151023396544" lon="12.901314724076563"><ele>43.0</ele><time>2026-05-03T14:34:41.001Z</time></trkpt><trkpt lat="45.96524377549228" lon="12.90138840162067"><ele>43.0</ele><time>2026-05-03T14:34:44.001Z</time></trkpt><trkpt lat="45.96534044827545" lon="12.901431785203135"><ele>43.0</ele><time>2026-05-03T14:34:46.001Z</time></trkpt><trkpt lat="45.96545267005873" lon="12.901495640932989"><ele>43.0</ele><time>2026-05-03T14:34:47.001Z</time></trkpt><trkpt lat="45.96559650902774" lon="12.901561810292778"><ele>43.0</ele><time>2026-05-03T14:34:48.001Z</time></trkpt><trkpt lat="45.96568235822223" lon="12.901612303350726"><ele>43.0</ele><time>2026-05-03T14:34:49.001Z</time></trkpt><trkpt lat="45.96578354289111" lon="12.901686216499021"><ele>43.0</ele><time>2026-05-03T14:34:50.001Z</time></trkpt><trkpt lat="45.96585335138092" lon="12.901739248783718"><ele>43.0</ele><time>2026-05-03T14:34:51.001Z</time></trkpt><trkpt lat="45.96592373434626" lon="12.901792088362726"><ele>43.0</ele><time>2026-05-03T14:34:52.001Z</time></trkpt><trkpt lat="45.9660107416636" lon="12.90182396301318"><ele>43.0</ele><time>2026-05-03T14:34:53.001Z</time></trkpt><trkpt lat="45.966128271904076" lon="12.901835040039211"><ele>43.0</ele><time>2026-05-03T14:34:55.001Z</time></trkpt><trkpt lat="45.96620435562895" lon="12.901803977820334"><ele>43.0</ele><time>2026-05-03T14:34:56.001Z</time></trkpt><trkpt lat="45.96628312200119" lon="12.901853230511746"><ele>43.0</ele><time>2026-05-03T14:34:57.001Z</time></trkpt><trkpt lat="45.96634590317517" lon="12.901871601262979"><ele>43.0</ele><time>2026-05-03T14:34:58.001Z</time></trkpt><trkpt lat="45.96643544497879" lon="12.901883283894625"><ele>43.16666666666667</ele><time>2026-05-03T14:35:00.001Z</time></trkpt><trkpt lat="45.96644509834826" lon="12.901747946665562"><ele>43.333333333333336</ele><time>2026-05-03T14:35:02.001Z</time></trkpt><trkpt lat="45.96640461031449" lon="12.901667583084146"><ele>43.5</ele><time>2026-05-03T14:35:03Z</time></trkpt><trkpt lat="45.96634283811849" lon="12.901600449318526"><ele>43.666666666666664</ele><time>2026-05-03T14:35:04Z</time></trkpt><trkpt lat="45.96629541330057" lon="12.901527097594165"><ele>43.83333333333333</ele><time>2026-05-03T14:35:05Z</time></trkpt><trkpt lat="45.96625578115817" lon="12.901406367795657"><ele>44.0</ele><time>2026-05-03T14:35:07Z</time></trkpt><trkpt lat="45.966282032930685" lon="12.90130650811712"><ele>44.0</ele><time>2026-05-03T14:35:08Z</time></trkpt><trkpt lat="45.96636011140681" lon="12.901218113963141"><ele>44.0</ele><time>2026-05-03T14:35:10Z</time></trkpt><trkpt lat="45.9664631607751" lon="12.901236882059292"><ele>44.0</ele><time>2026-05-03T14:35:12Z</time></trkpt><trkpt lat="45.966529518668345" lon="12.901245723159835"><ele>44.0</ele><time>2026-05-03T14:35:14Z</time></trkpt><trkpt lat="45.966688706983625" lon="12.901158830367418"><ele>44.0</ele><time>2026-05-03T14:35:16Z</time></trkpt><trkpt lat="45.966774880499436" lon="12.901095724157862"><ele>44.166666666666664</ele><time>2026-05-03T14:35:17Z</time></trkpt><trkpt lat="45.96683881912785" lon="12.901047059249743"><ele>44.33333333333333</ele><time>2026-05-03T14:35:18Z</time></trkpt><trkpt lat="45.96691622975599" lon="12.900995613436985"><ele>44.5</ele><time>2026-05-03T14:35:20Z</time></trkpt><trkpt lat="45.96698563671036" lon="12.901053680032566"><ele>44.666666666666664</ele><time>2026-05-03T14:35:22Z</time></trkpt><trkpt lat="45.96700360353471" lon="12.901154065564732"><ele>44.833333333333336</ele><time>2026-05-03T14:35:23Z</time></trkpt><trkpt lat="45.967017172942214" lon="12.901289377564016"><ele>45.0</ele><time>2026-05-03T14:35:24Z</time></trkpt><trkpt lat="45.96701334125338" lon="12.901401628207473"><ele>45.0</ele><time>2026-05-03T14:35:25Z</time></trkpt><trkpt lat="45.96699378711682" lon="12.901519484388567"><ele>45.0</ele><time>2026-05-03T14:35:26Z</time></trkpt><trkpt lat="45.966957785059584" lon="12.901625508766998"><ele>45.0</ele><time>2026-05-03T14:35:27Z</time></trkpt><trkpt lat="45.96691405840746" lon="12.90171813856783"><ele>45.0</ele><time>2026-05-03T14:35:28Z</time></trkpt><trkpt lat="45.96680338207513" lon="12.901765475531048"><ele>45.0</ele><time>2026-05-03T14:35:29Z</time></trkpt><trkpt lat="45.966749391644605" lon="12.901842033863307"><ele>45.0</ele><time>2026-05-03T14:35:30Z</time></trkpt><trkpt lat="45.966651236830494" lon="12.901945493292628"><ele>44.6</ele><time>2026-05-03T14:35:32Z</time></trkpt><trkpt lat="45.96657972376458" lon="12.901951209156206"><ele>44.2</ele><time>2026-05-03T14:35:33Z</time></trkpt><trkpt lat="45.96650404592326" lon="12.902034077735518"><ele>43.8</ele><time>2026-05-03T14:35:35Z</time></trkpt><trkpt lat="45.9664463961226" lon="12.902150611225109"><ele>43.4</ele><time>2026-05-03T14:35:37Z</time></trkpt><trkpt lat="45.96643236452658" lon="12.902282982941003"><ele>43.0</ele><time>2026-05-03T14:35:38Z</time></trkpt><trkpt lat="45.96638003626768" lon="12.902390427630158"><ele>43.0</ele><time>2026-05-03T14:35:39Z</time></trkpt><trkpt lat="45.96632345776173" lon="12.902479702554523"><ele>43.0</ele><time>2026-05-03T14:35:40Z</time></trkpt><trkpt lat="45.96625097951339" lon="12.902565459023407"><ele>43.0</ele><time>2026-05-03T14:35:41Z</time></trkpt><trkpt lat="45.96619423073418" lon="12.90262120196102"><ele>43.0</ele><time>2026-05-03T14:35:42Z</time></trkpt><trkpt lat="45.96609028094973" lon="12.902684404908289"><ele>43.0</ele><time>2026-05-03T14:35:44Z</time></trkpt><trkpt lat="45.965968075426005" lon="12.902699812775735"><ele>43.0</ele><time>2026-05-03T14:35:46Z</time></trkpt><trkpt lat="45.96584400622625" lon="12.902623327663107"><ele>43.0</ele><time>2026-05-03T14:35:48Z</time></trkpt><trkpt lat="45.965766556518844" lon="12.90254113264613"><ele>43.0</ele><time>2026-05-03T14:35:49Z</time></trkpt><trkpt lat="45.96570410281293" lon="12.902473103909406"><ele>43.0</ele><time>2026-05-03T14:35:50Z</time></trkpt><trkpt lat="45.965639752138664" lon="12.902423825477298"><ele>43.0</ele><time>2026-05-03T14:35:51Z</time></trkpt><trkpt lat="45.9655726258634" lon="12.902375113378007"><ele>43.0</ele><time>2026-05-03T14:35:52Z</time></trkpt></trkseg></trk></gpx>